<?xml version="1.0" encoding="UTF-8" standalone="no" ?>
<gpx xmlns="http://www.topografix.com/GPX/1/1" xmlns:xsi="http://www.w3.org/2001/XMLSchema-instance" xsi:schemaLocation="http://www.topografix.com/GPX/1/1 http://www.topografix.com/GPX/1/1/gpx.xsd" version="1.1" creator="VisuGPX - https://www.visugpx.com">
  <metadata>
    <name>Tour des 5 lacs.</name>
  </metadata>
  <trk>
    <name><![CDATA[04/06/2021 07:15:23]]></name>
    <trkseg>
      <trkpt lat="48.04725" lon="6.97557">
        <ele>961.40002441406</ele>
        <time>2021-06-04T05:15:23Z</time>
      </trkpt>
      <trkpt lat="48.04725" lon="6.97557">
        <ele>961.59997558594</ele>
        <time>2021-06-04T05:15:24Z</time>
      </trkpt>
      <trkpt lat="48.04726" lon="6.9756">
        <ele>961.20001220703</ele>
        <time>2021-06-04T05:15:44Z</time>
      </trkpt>
      <trkpt lat="48.04723" lon="6.97558">
        <ele>960.79998779297</ele>
        <time>2021-06-04T05:16:12Z</time>
      </trkpt>
      <trkpt lat="48.04722" lon="6.97567">
        <ele>961.79998779297</ele>
        <time>2021-06-04T05:16:35Z</time>
      </trkpt>
      <trkpt lat="48.0472" lon="6.97568">
        <ele>961.79998779297</ele>
        <time>2021-06-04T05:16:45Z</time>
      </trkpt>
      <trkpt lat="48.04719" lon="6.97568">
        <ele>961.79998779297</ele>
        <time>2021-06-04T05:16:46Z</time>
      </trkpt>
      <trkpt lat="48.04717" lon="6.97566">
        <ele>961.79998779297</ele>
        <time>2021-06-04T05:16:49Z</time>
      </trkpt>
      <trkpt lat="48.04716" lon="6.97566">
        <ele>961.79998779297</ele>
        <time>2021-06-04T05:16:50Z</time>
      </trkpt>
      <trkpt lat="48.04715" lon="6.97566">
        <ele>961.79998779297</ele>
        <time>2021-06-04T05:16:51Z</time>
      </trkpt>
      <trkpt lat="48.04714" lon="6.97566">
        <ele>961.79998779297</ele>
        <time>2021-06-04T05:16:52Z</time>
      </trkpt>
      <trkpt lat="48.04709" lon="6.97565">
        <ele>961.59997558594</ele>
        <time>2021-06-04T05:17:03Z</time>
      </trkpt>
      <trkpt lat="48.04708" lon="6.97566">
        <ele>961.59997558594</ele>
        <time>2021-06-04T05:17:04Z</time>
      </trkpt>
      <trkpt lat="48.04707" lon="6.97568">
        <ele>961.59997558594</ele>
        <time>2021-06-04T05:17:05Z</time>
      </trkpt>
      <trkpt lat="48.04706" lon="6.97569">
        <ele>961.59997558594</ele>
        <time>2021-06-04T05:17:06Z</time>
      </trkpt>
      <trkpt lat="48.04706" lon="6.9757">
        <ele>961.59997558594</ele>
        <time>2021-06-04T05:17:07Z</time>
      </trkpt>
      <trkpt lat="48.04705" lon="6.97571">
        <ele>961.59997558594</ele>
        <time>2021-06-04T05:17:08Z</time>
      </trkpt>
      <trkpt lat="48.04697" lon="6.97578">
        <ele>962</ele>
        <time>2021-06-04T05:17:25Z</time>
      </trkpt>
      <trkpt lat="48.04697" lon="6.97579">
        <ele>965</ele>
        <time>2021-06-04T05:17:44Z</time>
      </trkpt>
      <trkpt lat="48.04708" lon="6.97595">
        <ele>967.79998779297</ele>
        <time>2021-06-04T05:18:05Z</time>
      </trkpt>
      <trkpt lat="48.0472" lon="6.97608">
        <ele>970</ele>
        <time>2021-06-04T05:18:28Z</time>
      </trkpt>
      <trkpt lat="48.04733" lon="6.97615">
        <ele>972</ele>
        <time>2021-06-04T05:18:53Z</time>
      </trkpt>
      <trkpt lat="48.04737" lon="6.97624">
        <ele>974.79998779297</ele>
        <time>2021-06-04T05:19:17Z</time>
      </trkpt>
      <trkpt lat="48.04737" lon="6.97645">
        <ele>976.79998779297</ele>
        <time>2021-06-04T05:19:37Z</time>
      </trkpt>
      <trkpt lat="48.0473" lon="6.97653">
        <ele>979.20001220703</ele>
        <time>2021-06-04T05:19:57Z</time>
      </trkpt>
      <trkpt lat="48.04709" lon="6.97669">
        <ele>981.59997558594</ele>
        <time>2021-06-04T05:20:22Z</time>
      </trkpt>
      <trkpt lat="48.04703" lon="6.97676">
        <ele>983.40002441406</ele>
        <time>2021-06-04T05:20:37Z</time>
      </trkpt>
      <trkpt lat="48.047" lon="6.97679">
        <ele>984.40002441406</ele>
        <time>2021-06-04T05:20:43Z</time>
      </trkpt>
      <trkpt lat="48.04682" lon="6.97682">
        <ele>987.20001220703</ele>
        <time>2021-06-04T05:21:02Z</time>
      </trkpt>
      <trkpt lat="48.04665" lon="6.97686">
        <ele>989.20001220703</ele>
        <time>2021-06-04T05:21:21Z</time>
      </trkpt>
      <trkpt lat="48.04656" lon="6.97697">
        <ele>990.79998779297</ele>
        <time>2021-06-04T05:21:36Z</time>
      </trkpt>
      <trkpt lat="48.04655" lon="6.97698">
        <ele>991</ele>
        <time>2021-06-04T05:21:37Z</time>
      </trkpt>
      <trkpt lat="48.04646" lon="6.97717">
        <ele>993.40002441406</ele>
        <time>2021-06-04T05:21:58Z</time>
      </trkpt>
      <trkpt lat="48.0463" lon="6.97729">
        <ele>995</ele>
        <time>2021-06-04T05:22:16Z</time>
      </trkpt>
      <trkpt lat="48.04625" lon="6.97739">
        <ele>996</ele>
        <time>2021-06-04T05:22:31Z</time>
      </trkpt>
      <trkpt lat="48.04614" lon="6.97743">
        <ele>998.40002441406</ele>
        <time>2021-06-04T05:22:51Z</time>
      </trkpt>
      <trkpt lat="48.04611" lon="6.97743">
        <ele>999</ele>
        <time>2021-06-04T05:22:54Z</time>
      </trkpt>
      <trkpt lat="48.04591" lon="6.97744">
        <ele>1001.4000244141</ele>
        <time>2021-06-04T05:23:16Z</time>
      </trkpt>
      <trkpt lat="48.0458" lon="6.9775">
        <ele>1003.799987793</ele>
        <time>2021-06-04T05:23:31Z</time>
      </trkpt>
      <trkpt lat="48.04576" lon="6.97751">
        <ele>1005.200012207</ele>
        <time>2021-06-04T05:23:38Z</time>
      </trkpt>
      <trkpt lat="48.04552" lon="6.9775">
        <ele>1007.4000244141</ele>
        <time>2021-06-04T05:24:02Z</time>
      </trkpt>
      <trkpt lat="48.04538" lon="6.97754">
        <ele>1010.200012207</ele>
        <time>2021-06-04T05:24:19Z</time>
      </trkpt>
      <trkpt lat="48.04522" lon="6.97756">
        <ele>1011.5999755859</ele>
        <time>2021-06-04T05:24:37Z</time>
      </trkpt>
      <trkpt lat="48.04511" lon="6.97769">
        <ele>1014.5999755859</ele>
        <time>2021-06-04T05:24:57Z</time>
      </trkpt>
      <trkpt lat="48.04503" lon="6.97782">
        <ele>1016.4000244141</ele>
        <time>2021-06-04T05:25:12Z</time>
      </trkpt>
      <trkpt lat="48.04494" lon="6.97787">
        <ele>1019.200012207</ele>
        <time>2021-06-04T05:25:30Z</time>
      </trkpt>
      <trkpt lat="48.04487" lon="6.97789">
        <ele>1020.5999755859</ele>
        <time>2021-06-04T05:25:39Z</time>
      </trkpt>
      <trkpt lat="48.04468" lon="6.97796">
        <ele>1023.5999755859</ele>
        <time>2021-06-04T05:25:59Z</time>
      </trkpt>
      <trkpt lat="48.04462" lon="6.97806">
        <ele>1026.5999755859</ele>
        <time>2021-06-04T05:26:19Z</time>
      </trkpt>
      <trkpt lat="48.04455" lon="6.97812">
        <ele>1029.8000488281</ele>
        <time>2021-06-04T05:26:35Z</time>
      </trkpt>
      <trkpt lat="48.04441" lon="6.97825">
        <ele>1032.8000488281</ele>
        <time>2021-06-04T05:26:55Z</time>
      </trkpt>
      <trkpt lat="48.04427" lon="6.9783">
        <ele>1034.8000488281</ele>
        <time>2021-06-04T05:27:15Z</time>
      </trkpt>
      <trkpt lat="48.04407" lon="6.97827">
        <ele>1036.4000244141</ele>
        <time>2021-06-04T05:27:39Z</time>
      </trkpt>
      <trkpt lat="48.04389" lon="6.97826">
        <ele>1038.4000244141</ele>
        <time>2021-06-04T05:27:58Z</time>
      </trkpt>
      <trkpt lat="48.04367" lon="6.97831">
        <ele>1040.1999511719</ele>
        <time>2021-06-04T05:28:19Z</time>
      </trkpt>
      <trkpt lat="48.04348" lon="6.97837">
        <ele>1042.8000488281</ele>
        <time>2021-06-04T05:28:43Z</time>
      </trkpt>
      <trkpt lat="48.0433" lon="6.97836">
        <ele>1044.8000488281</ele>
        <time>2021-06-04T05:29:03Z</time>
      </trkpt>
      <trkpt lat="48.0432" lon="6.97841">
        <ele>1044.8000488281</ele>
        <time>2021-06-04T05:29:20Z</time>
      </trkpt>
      <trkpt lat="48.04295" lon="6.97844">
        <ele>1046.5999755859</ele>
        <time>2021-06-04T05:29:39Z</time>
      </trkpt>
      <trkpt lat="48.04279" lon="6.9784">
        <ele>1048.4000244141</ele>
        <time>2021-06-04T05:29:57Z</time>
      </trkpt>
      <trkpt lat="48.04264" lon="6.97833">
        <ele>1049.8000488281</ele>
        <time>2021-06-04T05:30:13Z</time>
      </trkpt>
      <trkpt lat="48.04243" lon="6.97825">
        <ele>1051</ele>
        <time>2021-06-04T05:30:36Z</time>
      </trkpt>
      <trkpt lat="48.04226" lon="6.97817">
        <ele>1051.4000244141</ele>
        <time>2021-06-04T05:30:54Z</time>
      </trkpt>
      <trkpt lat="48.04221" lon="6.97815">
        <ele>1051.4000244141</ele>
        <time>2021-06-04T05:30:58Z</time>
      </trkpt>
      <trkpt lat="48.04219" lon="6.97815">
        <ele>1051.4000244141</ele>
        <time>2021-06-04T05:30:59Z</time>
      </trkpt>
      <trkpt lat="48.04218" lon="6.97815">
        <ele>1051.4000244141</ele>
        <time>2021-06-04T05:31:00Z</time>
      </trkpt>
      <trkpt lat="48.04202" lon="6.97809">
        <ele>1051.5999755859</ele>
        <time>2021-06-04T05:31:14Z</time>
      </trkpt>
      <trkpt lat="48.04179" lon="6.97805">
        <ele>1052.4000244141</ele>
        <time>2021-06-04T05:31:32Z</time>
      </trkpt>
      <trkpt lat="48.04151" lon="6.97802">
        <ele>1053.4000244141</ele>
        <time>2021-06-04T05:31:49Z</time>
      </trkpt>
      <trkpt lat="48.04141" lon="6.97801">
        <ele>1054</ele>
        <time>2021-06-04T05:31:55Z</time>
      </trkpt>
      <trkpt lat="48.04131" lon="6.97801">
        <ele>1054.8000488281</ele>
        <time>2021-06-04T05:32:02Z</time>
      </trkpt>
      <trkpt lat="48.04126" lon="6.97803">
        <ele>1055.4000244141</ele>
        <time>2021-06-04T05:32:07Z</time>
      </trkpt>
      <trkpt lat="48.04106" lon="6.97809">
        <ele>1058</ele>
        <time>2021-06-04T05:32:27Z</time>
      </trkpt>
      <trkpt lat="48.04099" lon="6.9781">
        <ele>1058.8000488281</ele>
        <time>2021-06-04T05:32:34Z</time>
      </trkpt>
      <trkpt lat="48.04098" lon="6.97811">
        <ele>1059</ele>
        <time>2021-06-04T05:32:35Z</time>
      </trkpt>
      <trkpt lat="48.04083" lon="6.9782">
        <ele>1060.1999511719</ele>
        <time>2021-06-04T05:32:50Z</time>
      </trkpt>
      <trkpt lat="48.0407" lon="6.97833">
        <ele>1062.1999511719</ele>
        <time>2021-06-04T05:33:07Z</time>
      </trkpt>
      <trkpt lat="48.04055" lon="6.97846">
        <ele>1063.4000244141</ele>
        <time>2021-06-04T05:33:20Z</time>
      </trkpt>
      <trkpt lat="48.04037" lon="6.97869">
        <ele>1065.4000244141</ele>
        <time>2021-06-04T05:33:40Z</time>
      </trkpt>
      <trkpt lat="48.04032" lon="6.97878">
        <ele>1065.5999755859</ele>
        <time>2021-06-04T05:33:45Z</time>
      </trkpt>
      <trkpt lat="48.04028" lon="6.97889">
        <ele>1066.4000244141</ele>
        <time>2021-06-04T05:33:51Z</time>
      </trkpt>
      <trkpt lat="48.04021" lon="6.97917">
        <ele>1068.1999511719</ele>
        <time>2021-06-04T05:34:11Z</time>
      </trkpt>
      <trkpt lat="48.0402" lon="6.97937">
        <ele>1069.4000244141</ele>
        <time>2021-06-04T05:34:26Z</time>
      </trkpt>
      <trkpt lat="48.04013" lon="6.97968">
        <ele>1071.4000244141</ele>
        <time>2021-06-04T05:34:46Z</time>
      </trkpt>
      <trkpt lat="48.04009" lon="6.97986">
        <ele>1073</ele>
        <time>2021-06-04T05:35:00Z</time>
      </trkpt>
      <trkpt lat="48.04006" lon="6.98015">
        <ele>1074.8000488281</ele>
        <time>2021-06-04T05:35:19Z</time>
      </trkpt>
      <trkpt lat="48.04002" lon="6.98048">
        <ele>1077.1999511719</ele>
        <time>2021-06-04T05:35:41Z</time>
      </trkpt>
      <trkpt lat="48.03993" lon="6.98078">
        <ele>1079.4000244141</ele>
        <time>2021-06-04T05:36:02Z</time>
      </trkpt>
      <trkpt lat="48.0399" lon="6.98107">
        <ele>1081</ele>
        <time>2021-06-04T05:36:19Z</time>
      </trkpt>
      <trkpt lat="48.03989" lon="6.98136">
        <ele>1083</ele>
        <time>2021-06-04T05:36:37Z</time>
      </trkpt>
      <trkpt lat="48.03988" lon="6.98162">
        <ele>1084.4000244141</ele>
        <time>2021-06-04T05:36:52Z</time>
      </trkpt>
      <trkpt lat="48.03984" lon="6.98184">
        <ele>1085.8000488281</ele>
        <time>2021-06-04T05:37:06Z</time>
      </trkpt>
      <trkpt lat="48.03985" lon="6.98186">
        <ele>1086</ele>
        <time>2021-06-04T05:37:07Z</time>
      </trkpt>
      <trkpt lat="48.03986" lon="6.98188">
        <ele>1086.1999511719</ele>
        <time>2021-06-04T05:37:08Z</time>
      </trkpt>
      <trkpt lat="48.03986" lon="6.9819">
        <ele>1086.1999511719</ele>
        <time>2021-06-04T05:37:09Z</time>
      </trkpt>
      <trkpt lat="48.03986" lon="6.98192">
        <ele>1086.4000244141</ele>
        <time>2021-06-04T05:37:10Z</time>
      </trkpt>
      <trkpt lat="48.03986" lon="6.98194">
        <ele>1086.5999755859</ele>
        <time>2021-06-04T05:37:11Z</time>
      </trkpt>
      <trkpt lat="48.03987" lon="6.982">
        <ele>1087.1999511719</ele>
        <time>2021-06-04T05:37:14Z</time>
      </trkpt>
      <trkpt lat="48.03986" lon="6.98202">
        <ele>1087.4000244141</ele>
        <time>2021-06-04T05:37:15Z</time>
      </trkpt>
      <trkpt lat="48.03986" lon="6.98204">
        <ele>1087.5999755859</ele>
        <time>2021-06-04T05:37:16Z</time>
      </trkpt>
      <trkpt lat="48.03986" lon="6.98206">
        <ele>1087.8000488281</ele>
        <time>2021-06-04T05:37:17Z</time>
      </trkpt>
      <trkpt lat="48.03987" lon="6.98208">
        <ele>1087.8000488281</ele>
        <time>2021-06-04T05:37:18Z</time>
      </trkpt>
      <trkpt lat="48.03987" lon="6.9821">
        <ele>1088</ele>
        <time>2021-06-04T05:37:19Z</time>
      </trkpt>
      <trkpt lat="48.03985" lon="6.98238">
        <ele>1089.1999511719</ele>
        <time>2021-06-04T05:37:37Z</time>
      </trkpt>
      <trkpt lat="48.03976" lon="6.98266">
        <ele>1089.4000244141</ele>
        <time>2021-06-04T05:37:54Z</time>
      </trkpt>
      <trkpt lat="48.03964" lon="6.98292">
        <ele>1087.8000488281</ele>
        <time>2021-06-04T05:38:12Z</time>
      </trkpt>
      <trkpt lat="48.03956" lon="6.98316">
        <ele>1088.4000244141</ele>
        <time>2021-06-04T05:38:28Z</time>
      </trkpt>
      <trkpt lat="48.03948" lon="6.98351">
        <ele>1090</ele>
        <time>2021-06-04T05:38:49Z</time>
      </trkpt>
      <trkpt lat="48.03942" lon="6.98379">
        <ele>1091.1999511719</ele>
        <time>2021-06-04T05:39:06Z</time>
      </trkpt>
      <trkpt lat="48.03935" lon="6.98405">
        <ele>1093.1999511719</ele>
        <time>2021-06-04T05:39:24Z</time>
      </trkpt>
      <trkpt lat="48.03932" lon="6.98442">
        <ele>1095</ele>
        <time>2021-06-04T05:39:47Z</time>
      </trkpt>
      <trkpt lat="48.03934" lon="6.98452">
        <ele>1095.8000488281</ele>
        <time>2021-06-04T05:39:53Z</time>
      </trkpt>
      <trkpt lat="48.03942" lon="6.98481">
        <ele>1097</ele>
        <time>2021-06-04T05:40:09Z</time>
      </trkpt>
      <trkpt lat="48.03941" lon="6.98503">
        <ele>1098.4000244141</ele>
        <time>2021-06-04T05:40:25Z</time>
      </trkpt>
      <trkpt lat="48.03948" lon="6.98538">
        <ele>1101.1999511719</ele>
        <time>2021-06-04T05:40:48Z</time>
      </trkpt>
      <trkpt lat="48.03951" lon="6.98563">
        <ele>1102.8000488281</ele>
        <time>2021-06-04T05:41:04Z</time>
      </trkpt>
      <trkpt lat="48.03958" lon="6.98596">
        <ele>1104.8000488281</ele>
        <time>2021-06-04T05:41:23Z</time>
      </trkpt>
      <trkpt lat="48.03961" lon="6.98625">
        <ele>1106.1999511719</ele>
        <time>2021-06-04T05:41:44Z</time>
      </trkpt>
      <trkpt lat="48.03965" lon="6.98658">
        <ele>1108</ele>
        <time>2021-06-04T05:42:04Z</time>
      </trkpt>
      <trkpt lat="48.03966" lon="6.98687">
        <ele>1109</ele>
        <time>2021-06-04T05:42:26Z</time>
      </trkpt>
      <trkpt lat="48.03966" lon="6.98692">
        <ele>1109.1999511719</ele>
        <time>2021-06-04T05:42:29Z</time>
      </trkpt>
      <trkpt lat="48.03966" lon="6.98724">
        <ele>1109.1999511719</ele>
        <time>2021-06-04T05:42:46Z</time>
      </trkpt>
      <trkpt lat="48.03969" lon="6.98742">
        <ele>1109.1999511719</ele>
        <time>2021-06-04T05:43:03Z</time>
      </trkpt>
      <trkpt lat="48.03974" lon="6.98749">
        <ele>1109</ele>
        <time>2021-06-04T05:43:25Z</time>
      </trkpt>
      <trkpt lat="48.03981" lon="6.98751">
        <ele>1108</ele>
        <time>2021-06-04T05:44:04Z</time>
      </trkpt>
      <trkpt lat="48.0398" lon="6.98752">
        <ele>1108</ele>
        <time>2021-06-04T05:44:06Z</time>
      </trkpt>
      <trkpt lat="48.03977" lon="6.98757">
        <ele>1108</ele>
        <time>2021-06-04T05:44:34Z</time>
      </trkpt>
      <trkpt lat="48.03979" lon="6.98752">
        <ele>1108.1999511719</ele>
        <time>2021-06-04T05:44:58Z</time>
      </trkpt>
      <trkpt lat="48.03977" lon="6.98761">
        <ele>1109</ele>
        <time>2021-06-04T05:45:25Z</time>
      </trkpt>
      <trkpt lat="48.03974" lon="6.98759">
        <ele>1109.5999755859</ele>
        <time>2021-06-04T05:45:50Z</time>
      </trkpt>
      <trkpt lat="48.03975" lon="6.98761">
        <ele>1109.5999755859</ele>
        <time>2021-06-04T05:45:51Z</time>
      </trkpt>
      <trkpt lat="48.03978" lon="6.98782">
        <ele>1109</ele>
        <time>2021-06-04T05:46:08Z</time>
      </trkpt>
      <trkpt lat="48.03978" lon="6.98798">
        <ele>1108.4000244141</ele>
        <time>2021-06-04T05:46:21Z</time>
      </trkpt>
      <trkpt lat="48.03978" lon="6.98809">
        <ele>1108.5999755859</ele>
        <time>2021-06-04T05:46:27Z</time>
      </trkpt>
      <trkpt lat="48.0398" lon="6.98837">
        <ele>1108.8000488281</ele>
        <time>2021-06-04T05:46:42Z</time>
      </trkpt>
      <trkpt lat="48.03986" lon="6.98864">
        <ele>1108.8000488281</ele>
        <time>2021-06-04T05:46:55Z</time>
      </trkpt>
      <trkpt lat="48.03994" lon="6.98891">
        <ele>1109</ele>
        <time>2021-06-04T05:47:08Z</time>
      </trkpt>
      <trkpt lat="48.04002" lon="6.98918">
        <ele>1109.1999511719</ele>
        <time>2021-06-04T05:47:22Z</time>
      </trkpt>
      <trkpt lat="48.04011" lon="6.98933">
        <ele>1109</ele>
        <time>2021-06-04T05:47:36Z</time>
      </trkpt>
      <trkpt lat="48.04013" lon="6.98936">
        <ele>1109</ele>
        <time>2021-06-04T05:47:38Z</time>
      </trkpt>
      <trkpt lat="48.04013" lon="6.98937">
        <ele>1109</ele>
        <time>2021-06-04T05:47:39Z</time>
      </trkpt>
      <trkpt lat="48.04014" lon="6.98939">
        <ele>1109</ele>
        <time>2021-06-04T05:47:40Z</time>
      </trkpt>
      <trkpt lat="48.04029" lon="6.98968">
        <ele>1109.8000488281</ele>
        <time>2021-06-04T05:47:57Z</time>
      </trkpt>
      <trkpt lat="48.04038" lon="6.98981">
        <ele>1110.5999755859</ele>
        <time>2021-06-04T05:48:13Z</time>
      </trkpt>
      <trkpt lat="48.04053" lon="6.98998">
        <ele>1111.8000488281</ele>
        <time>2021-06-04T05:48:32Z</time>
      </trkpt>
      <trkpt lat="48.04067" lon="6.98998">
        <ele>1112.5999755859</ele>
        <time>2021-06-04T05:48:50Z</time>
      </trkpt>
      <trkpt lat="48.04074" lon="6.99011">
        <ele>1112.5999755859</ele>
        <time>2021-06-04T05:49:12Z</time>
      </trkpt>
      <trkpt lat="48.04087" lon="6.99011">
        <ele>1113.5999755859</ele>
        <time>2021-06-04T05:49:33Z</time>
      </trkpt>
      <trkpt lat="48.04096" lon="6.99027">
        <ele>1113.4000244141</ele>
        <time>2021-06-04T05:49:47Z</time>
      </trkpt>
      <trkpt lat="48.04098" lon="6.99051">
        <ele>1114.5999755859</ele>
        <time>2021-06-04T05:49:59Z</time>
      </trkpt>
      <trkpt lat="48.04103" lon="6.99075">
        <ele>1116.5999755859</ele>
        <time>2021-06-04T05:50:11Z</time>
      </trkpt>
      <trkpt lat="48.04107" lon="6.99099">
        <ele>1118.4000244141</ele>
        <time>2021-06-04T05:50:30Z</time>
      </trkpt>
      <trkpt lat="48.04108" lon="6.9914">
        <ele>1119.4000244141</ele>
        <time>2021-06-04T05:50:49Z</time>
      </trkpt>
      <trkpt lat="48.04107" lon="6.99166">
        <ele>1120.5999755859</ele>
        <time>2021-06-04T05:51:04Z</time>
      </trkpt>
      <trkpt lat="48.04104" lon="6.99191">
        <ele>1121.4000244141</ele>
        <time>2021-06-04T05:51:20Z</time>
      </trkpt>
      <trkpt lat="48.04103" lon="6.9922">
        <ele>1122</ele>
        <time>2021-06-04T05:51:38Z</time>
      </trkpt>
      <trkpt lat="48.04101" lon="6.99255">
        <ele>1123.1999511719</ele>
        <time>2021-06-04T05:51:57Z</time>
      </trkpt>
      <trkpt lat="48.041" lon="6.99285">
        <ele>1124.5999755859</ele>
        <time>2021-06-04T05:52:15Z</time>
      </trkpt>
      <trkpt lat="48.04102" lon="6.99305">
        <ele>1124.5999755859</ele>
        <time>2021-06-04T05:52:25Z</time>
      </trkpt>
      <trkpt lat="48.04107" lon="6.99329">
        <ele>1124.4000244141</ele>
        <time>2021-06-04T05:52:38Z</time>
      </trkpt>
      <trkpt lat="48.04107" lon="6.99343">
        <ele>1124.1999511719</ele>
        <time>2021-06-04T05:52:44Z</time>
      </trkpt>
      <trkpt lat="48.04107" lon="6.99345">
        <ele>1124.1999511719</ele>
        <time>2021-06-04T05:52:45Z</time>
      </trkpt>
      <trkpt lat="48.04106" lon="6.99351">
        <ele>1124.1999511719</ele>
        <time>2021-06-04T05:52:48Z</time>
      </trkpt>
      <trkpt lat="48.041" lon="6.99383">
        <ele>1124.1999511719</ele>
        <time>2021-06-04T05:53:05Z</time>
      </trkpt>
      <trkpt lat="48.04098" lon="6.99411">
        <ele>1123.5999755859</ele>
        <time>2021-06-04T05:53:23Z</time>
      </trkpt>
      <trkpt lat="48.04095" lon="6.99446">
        <ele>1123</ele>
        <time>2021-06-04T05:53:41Z</time>
      </trkpt>
      <trkpt lat="48.04094" lon="6.99475">
        <ele>1122.4000244141</ele>
        <time>2021-06-04T05:53:57Z</time>
      </trkpt>
      <trkpt lat="48.04091" lon="6.99507">
        <ele>1122.4000244141</ele>
        <time>2021-06-04T05:54:14Z</time>
      </trkpt>
      <trkpt lat="48.04091" lon="6.99509">
        <ele>1122.4000244141</ele>
        <time>2021-06-04T05:54:15Z</time>
      </trkpt>
      <trkpt lat="48.04088" lon="6.99534">
        <ele>1121.8000488281</ele>
        <time>2021-06-04T05:54:30Z</time>
      </trkpt>
      <trkpt lat="48.04089" lon="6.99568">
        <ele>1121.8000488281</ele>
        <time>2021-06-04T05:54:46Z</time>
      </trkpt>
      <trkpt lat="48.04091" lon="6.9958">
        <ele>1121.8000488281</ele>
        <time>2021-06-04T05:54:52Z</time>
      </trkpt>
      <trkpt lat="48.04092" lon="6.99602">
        <ele>1121.4000244141</ele>
        <time>2021-06-04T05:55:05Z</time>
      </trkpt>
      <trkpt lat="48.04102" lon="6.99625">
        <ele>1120.1999511719</ele>
        <time>2021-06-04T05:55:21Z</time>
      </trkpt>
      <trkpt lat="48.04106" lon="6.99629">
        <ele>1120</ele>
        <time>2021-06-04T05:55:24Z</time>
      </trkpt>
      <trkpt lat="48.04111" lon="6.99642">
        <ele>1119.4000244141</ele>
        <time>2021-06-04T05:55:35Z</time>
      </trkpt>
      <trkpt lat="48.04117" lon="6.99654">
        <ele>1118.8000488281</ele>
        <time>2021-06-04T05:55:49Z</time>
      </trkpt>
      <trkpt lat="48.04119" lon="6.99665">
        <ele>1118.4000244141</ele>
        <time>2021-06-04T05:55:54Z</time>
      </trkpt>
      <trkpt lat="48.04121" lon="6.99668">
        <ele>1118.1999511719</ele>
        <time>2021-06-04T05:55:55Z</time>
      </trkpt>
      <trkpt lat="48.0413" lon="6.99686">
        <ele>1118</ele>
        <time>2021-06-04T05:56:10Z</time>
      </trkpt>
      <trkpt lat="48.0412" lon="6.99709">
        <ele>1118.4000244141</ele>
        <time>2021-06-04T05:56:30Z</time>
      </trkpt>
      <trkpt lat="48.04118" lon="6.9971">
        <ele>1118.4000244141</ele>
        <time>2021-06-04T05:56:31Z</time>
      </trkpt>
      <trkpt lat="48.04117" lon="6.99712">
        <ele>1118.4000244141</ele>
        <time>2021-06-04T05:56:32Z</time>
      </trkpt>
      <trkpt lat="48.04116" lon="6.99714">
        <ele>1118.4000244141</ele>
        <time>2021-06-04T05:56:33Z</time>
      </trkpt>
      <trkpt lat="48.04114" lon="6.99715">
        <ele>1118.4000244141</ele>
        <time>2021-06-04T05:56:34Z</time>
      </trkpt>
      <trkpt lat="48.04113" lon="6.99717">
        <ele>1118.4000244141</ele>
        <time>2021-06-04T05:56:35Z</time>
      </trkpt>
      <trkpt lat="48.04112" lon="6.99719">
        <ele>1118.4000244141</ele>
        <time>2021-06-04T05:56:36Z</time>
      </trkpt>
      <trkpt lat="48.04111" lon="6.9972">
        <ele>1118.4000244141</ele>
        <time>2021-06-04T05:56:37Z</time>
      </trkpt>
      <trkpt lat="48.04108" lon="6.99741">
        <ele>1118.5999755859</ele>
        <time>2021-06-04T05:56:53Z</time>
      </trkpt>
      <trkpt lat="48.04107" lon="6.99745">
        <ele>1118.8000488281</ele>
        <time>2021-06-04T05:57:06Z</time>
      </trkpt>
      <trkpt lat="48.04107" lon="6.99747">
        <ele>1118.8000488281</ele>
        <time>2021-06-04T05:57:07Z</time>
      </trkpt>
      <trkpt lat="48.04107" lon="6.99748">
        <ele>1118.5999755859</ele>
        <time>2021-06-04T05:57:08Z</time>
      </trkpt>
      <trkpt lat="48.04108" lon="6.99749">
        <ele>1118.5999755859</ele>
        <time>2021-06-04T05:57:09Z</time>
      </trkpt>
      <trkpt lat="48.04109" lon="6.9975">
        <ele>1118.5999755859</ele>
        <time>2021-06-04T05:57:10Z</time>
      </trkpt>
      <trkpt lat="48.0412" lon="6.99759">
        <ele>1117.5999755859</ele>
        <time>2021-06-04T05:57:25Z</time>
      </trkpt>
      <trkpt lat="48.04123" lon="6.99767">
        <ele>1117.4000244141</ele>
        <time>2021-06-04T05:57:31Z</time>
      </trkpt>
      <trkpt lat="48.04124" lon="6.99769">
        <ele>1117.4000244141</ele>
        <time>2021-06-04T05:57:32Z</time>
      </trkpt>
      <trkpt lat="48.04125" lon="6.99771">
        <ele>1117.4000244141</ele>
        <time>2021-06-04T05:57:33Z</time>
      </trkpt>
      <trkpt lat="48.04125" lon="6.99773">
        <ele>1117.5999755859</ele>
        <time>2021-06-04T05:57:34Z</time>
      </trkpt>
      <trkpt lat="48.04125" lon="6.99775">
        <ele>1117.5999755859</ele>
        <time>2021-06-04T05:57:35Z</time>
      </trkpt>
      <trkpt lat="48.04123" lon="6.99812">
        <ele>1117.4000244141</ele>
        <time>2021-06-04T05:57:53Z</time>
      </trkpt>
      <trkpt lat="48.04118" lon="6.99829">
        <ele>1117.5999755859</ele>
        <time>2021-06-04T05:58:07Z</time>
      </trkpt>
      <trkpt lat="48.04117" lon="6.99831">
        <ele>1117.4000244141</ele>
        <time>2021-06-04T05:58:10Z</time>
      </trkpt>
      <trkpt lat="48.04116" lon="6.99835">
        <ele>1117.4000244141</ele>
        <time>2021-06-04T05:58:13Z</time>
      </trkpt>
      <trkpt lat="48.04117" lon="6.99837">
        <ele>1117.4000244141</ele>
        <time>2021-06-04T05:58:14Z</time>
      </trkpt>
      <trkpt lat="48.04129" lon="6.9986">
        <ele>1116.8000488281</ele>
        <time>2021-06-04T05:58:32Z</time>
      </trkpt>
      <trkpt lat="48.04132" lon="6.99868">
        <ele>1116</ele>
        <time>2021-06-04T05:58:38Z</time>
      </trkpt>
      <trkpt lat="48.04132" lon="6.9987">
        <ele>1115.8000488281</ele>
        <time>2021-06-04T05:58:39Z</time>
      </trkpt>
      <trkpt lat="48.04132" lon="6.99871">
        <ele>1115.8000488281</ele>
        <time>2021-06-04T05:58:40Z</time>
      </trkpt>
      <trkpt lat="48.04131" lon="6.99885">
        <ele>1115.5999755859</ele>
        <time>2021-06-04T05:58:52Z</time>
      </trkpt>
      <trkpt lat="48.04133" lon="6.99912">
        <ele>1116.8000488281</ele>
        <time>2021-06-04T05:59:13Z</time>
      </trkpt>
      <trkpt lat="48.04133" lon="6.99931">
        <ele>1118.8000488281</ele>
        <time>2021-06-04T05:59:32Z</time>
      </trkpt>
      <trkpt lat="48.04137" lon="6.9993">
        <ele>1120.4000244141</ele>
        <time>2021-06-04T05:59:44Z</time>
      </trkpt>
      <trkpt lat="48.04145" lon="6.99927">
        <ele>1122</ele>
        <time>2021-06-04T05:59:59Z</time>
      </trkpt>
      <trkpt lat="48.04165" lon="6.9993">
        <ele>1124.5999755859</ele>
        <time>2021-06-04T06:00:20Z</time>
      </trkpt>
      <trkpt lat="48.04187" lon="6.99944">
        <ele>1127.5999755859</ele>
        <time>2021-06-04T06:00:39Z</time>
      </trkpt>
      <trkpt lat="48.04202" lon="6.9995">
        <ele>1129.1999511719</ele>
        <time>2021-06-04T06:00:55Z</time>
      </trkpt>
      <trkpt lat="48.04214" lon="6.99952">
        <ele>1132</ele>
        <time>2021-06-04T06:01:15Z</time>
      </trkpt>
      <trkpt lat="48.04232" lon="6.9996">
        <ele>1134</ele>
        <time>2021-06-04T06:01:32Z</time>
      </trkpt>
      <trkpt lat="48.0424" lon="6.9996">
        <ele>1135.5999755859</ele>
        <time>2021-06-04T06:01:46Z</time>
      </trkpt>
      <trkpt lat="48.04256" lon="6.99969">
        <ele>1138.4000244141</ele>
        <time>2021-06-04T06:02:07Z</time>
      </trkpt>
      <trkpt lat="48.04267" lon="6.99977">
        <ele>1141.5999755859</ele>
        <time>2021-06-04T06:02:25Z</time>
      </trkpt>
      <trkpt lat="48.04282" lon="6.99984">
        <ele>1144.5999755859</ele>
        <time>2021-06-04T06:02:47Z</time>
      </trkpt>
      <trkpt lat="48.04297" lon="6.99986">
        <ele>1146.5999755859</ele>
        <time>2021-06-04T06:03:03Z</time>
      </trkpt>
      <trkpt lat="48.04309" lon="7.00005">
        <ele>1149.1999511719</ele>
        <time>2021-06-04T06:03:23Z</time>
      </trkpt>
      <trkpt lat="48.04324" lon="7.00025">
        <ele>1152.1999511719</ele>
        <time>2021-06-04T06:03:44Z</time>
      </trkpt>
      <trkpt lat="48.04332" lon="7.00034">
        <ele>1152.8000488281</ele>
        <time>2021-06-04T06:03:51Z</time>
      </trkpt>
      <trkpt lat="48.04339" lon="7.00051">
        <ele>1155</ele>
        <time>2021-06-04T06:04:09Z</time>
      </trkpt>
      <trkpt lat="48.04336" lon="7.00063">
        <ele>1158</ele>
        <time>2021-06-04T06:04:25Z</time>
      </trkpt>
      <trkpt lat="48.04323" lon="7.00067">
        <ele>1160</ele>
        <time>2021-06-04T06:04:44Z</time>
      </trkpt>
      <trkpt lat="48.0431" lon="7.00061">
        <ele>1162.4000244141</ele>
        <time>2021-06-04T06:05:07Z</time>
      </trkpt>
      <trkpt lat="48.04309" lon="7.00067">
        <ele>1165.1999511719</ele>
        <time>2021-06-04T06:05:28Z</time>
      </trkpt>
      <trkpt lat="48.04309" lon="7.0009">
        <ele>1167.5999755859</ele>
        <time>2021-06-04T06:05:48Z</time>
      </trkpt>
      <trkpt lat="48.04307" lon="7.00101">
        <ele>1170.8000488281</ele>
        <time>2021-06-04T06:06:07Z</time>
      </trkpt>
      <trkpt lat="48.0431" lon="7.00104">
        <ele>1171.4000244141</ele>
        <time>2021-06-04T06:06:11Z</time>
      </trkpt>
      <trkpt lat="48.04323" lon="7.00123">
        <ele>1172.8000488281</ele>
        <time>2021-06-04T06:06:33Z</time>
      </trkpt>
      <trkpt lat="48.04335" lon="7.00146">
        <ele>1174.5999755859</ele>
        <time>2021-06-04T06:06:52Z</time>
      </trkpt>
      <trkpt lat="48.04339" lon="7.00175">
        <ele>1177.4000244141</ele>
        <time>2021-06-04T06:07:13Z</time>
      </trkpt>
      <trkpt lat="48.04342" lon="7.00202">
        <ele>1180.1999511719</ele>
        <time>2021-06-04T06:07:32Z</time>
      </trkpt>
      <trkpt lat="48.04334" lon="7.00199">
        <ele>1182.5999755859</ele>
        <time>2021-06-04T06:07:48Z</time>
      </trkpt>
      <trkpt lat="48.04329" lon="7.00195">
        <ele>1184.5999755859</ele>
        <time>2021-06-04T06:08:03Z</time>
      </trkpt>
      <trkpt lat="48.04329" lon="7.00194">
        <ele>1184.8000488281</ele>
        <time>2021-06-04T06:08:23Z</time>
      </trkpt>
      <trkpt lat="48.04324" lon="7.00195">
        <ele>1184.8000488281</ele>
        <time>2021-06-04T06:08:57Z</time>
      </trkpt>
      <trkpt lat="48.04308" lon="7.00206">
        <ele>1187.8000488281</ele>
        <time>2021-06-04T06:09:18Z</time>
      </trkpt>
      <trkpt lat="48.04295" lon="7.00219">
        <ele>1190.8000488281</ele>
        <time>2021-06-04T06:09:37Z</time>
      </trkpt>
      <trkpt lat="48.04282" lon="7.00226">
        <ele>1193.5999755859</ele>
        <time>2021-06-04T06:09:52Z</time>
      </trkpt>
      <trkpt lat="48.04268" lon="7.00239">
        <ele>1196</ele>
        <time>2021-06-04T06:10:11Z</time>
      </trkpt>
      <trkpt lat="48.04271" lon="7.00246">
        <ele>1198.5999755859</ele>
        <time>2021-06-04T06:10:25Z</time>
      </trkpt>
      <trkpt lat="48.04277" lon="7.0025">
        <ele>1199</ele>
        <time>2021-06-04T06:10:34Z</time>
      </trkpt>
      <trkpt lat="48.0428" lon="7.00254">
        <ele>1199.5999755859</ele>
        <time>2021-06-04T06:10:41Z</time>
      </trkpt>
      <trkpt lat="48.04281" lon="7.00255">
        <ele>1199.5999755859</ele>
        <time>2021-06-04T06:10:42Z</time>
      </trkpt>
      <trkpt lat="48.04282" lon="7.00256">
        <ele>1199.5999755859</ele>
        <time>2021-06-04T06:10:43Z</time>
      </trkpt>
      <trkpt lat="48.04283" lon="7.00257">
        <ele>1199.5999755859</ele>
        <time>2021-06-04T06:10:44Z</time>
      </trkpt>
      <trkpt lat="48.04283" lon="7.00258">
        <ele>1199.8000488281</ele>
        <time>2021-06-04T06:10:45Z</time>
      </trkpt>
      <trkpt lat="48.04284" lon="7.0026">
        <ele>1199.8000488281</ele>
        <time>2021-06-04T06:10:46Z</time>
      </trkpt>
      <trkpt lat="48.04286" lon="7.00271">
        <ele>1200.8000488281</ele>
        <time>2021-06-04T06:10:54Z</time>
      </trkpt>
      <trkpt lat="48.04298" lon="7.00285">
        <ele>1202.4000244141</ele>
        <time>2021-06-04T06:11:12Z</time>
      </trkpt>
      <trkpt lat="48.04304" lon="7.00306">
        <ele>1204</ele>
        <time>2021-06-04T06:11:30Z</time>
      </trkpt>
      <trkpt lat="48.04298" lon="7.00306">
        <ele>1205</ele>
        <time>2021-06-04T06:11:39Z</time>
      </trkpt>
      <trkpt lat="48.04297" lon="7.00305">
        <ele>1205</ele>
        <time>2021-06-04T06:11:40Z</time>
      </trkpt>
      <trkpt lat="48.04294" lon="7.00304">
        <ele>1205.4000244141</ele>
        <time>2021-06-04T06:11:43Z</time>
      </trkpt>
      <trkpt lat="48.04292" lon="7.00304">
        <ele>1205.5999755859</ele>
        <time>2021-06-04T06:11:45Z</time>
      </trkpt>
      <trkpt lat="48.04291" lon="7.00304">
        <ele>1205.8000488281</ele>
        <time>2021-06-04T06:11:46Z</time>
      </trkpt>
      <trkpt lat="48.0429" lon="7.00304">
        <ele>1206.1999511719</ele>
        <time>2021-06-04T06:11:47Z</time>
      </trkpt>
      <trkpt lat="48.04266" lon="7.0031">
        <ele>1208.8000488281</ele>
        <time>2021-06-04T06:12:10Z</time>
      </trkpt>
      <trkpt lat="48.04245" lon="7.00324">
        <ele>1210.5999755859</ele>
        <time>2021-06-04T06:12:30Z</time>
      </trkpt>
      <trkpt lat="48.04229" lon="7.00345">
        <ele>1213.8000488281</ele>
        <time>2021-06-04T06:12:50Z</time>
      </trkpt>
      <trkpt lat="48.04222" lon="7.00357">
        <ele>1215</ele>
        <time>2021-06-04T06:13:06Z</time>
      </trkpt>
      <trkpt lat="48.0422" lon="7.0036">
        <ele>1215.1999511719</ele>
        <time>2021-06-04T06:13:09Z</time>
      </trkpt>
      <trkpt lat="48.04219" lon="7.00361">
        <ele>1215.1999511719</ele>
        <time>2021-06-04T06:13:10Z</time>
      </trkpt>
      <trkpt lat="48.04219" lon="7.00362">
        <ele>1215.1999511719</ele>
        <time>2021-06-04T06:13:11Z</time>
      </trkpt>
      <trkpt lat="48.04217" lon="7.00366">
        <ele>1215.4000244141</ele>
        <time>2021-06-04T06:13:14Z</time>
      </trkpt>
      <trkpt lat="48.04203" lon="7.00382">
        <ele>1218</ele>
        <time>2021-06-04T06:13:32Z</time>
      </trkpt>
      <trkpt lat="48.04191" lon="7.00401">
        <ele>1220.4000244141</ele>
        <time>2021-06-04T06:13:51Z</time>
      </trkpt>
      <trkpt lat="48.04181" lon="7.00417">
        <ele>1222.5999755859</ele>
        <time>2021-06-04T06:14:07Z</time>
      </trkpt>
      <trkpt lat="48.0417" lon="7.00433">
        <ele>1225.1999511719</ele>
        <time>2021-06-04T06:14:25Z</time>
      </trkpt>
      <trkpt lat="48.04156" lon="7.00452">
        <ele>1228.1999511719</ele>
        <time>2021-06-04T06:14:44Z</time>
      </trkpt>
      <trkpt lat="48.04142" lon="7.00478">
        <ele>1231.1999511719</ele>
        <time>2021-06-04T06:15:05Z</time>
      </trkpt>
      <trkpt lat="48.04131" lon="7.00497">
        <ele>1233.1999511719</ele>
        <time>2021-06-04T06:15:20Z</time>
      </trkpt>
      <trkpt lat="48.04131" lon="7.00499">
        <ele>1233.4000244141</ele>
        <time>2021-06-04T06:15:21Z</time>
      </trkpt>
      <trkpt lat="48.04125" lon="7.0051">
        <ele>1234.4000244141</ele>
        <time>2021-06-04T06:15:29Z</time>
      </trkpt>
      <trkpt lat="48.04117" lon="7.00523">
        <ele>1236.8000488281</ele>
        <time>2021-06-04T06:15:48Z</time>
      </trkpt>
      <trkpt lat="48.0411" lon="7.00535">
        <ele>1237.8000488281</ele>
        <time>2021-06-04T06:16:15Z</time>
      </trkpt>
      <trkpt lat="48.04111" lon="7.00536">
        <ele>1238</ele>
        <time>2021-06-04T06:16:16Z</time>
      </trkpt>
      <trkpt lat="48.04111" lon="7.00538">
        <ele>1238</ele>
        <time>2021-06-04T06:16:17Z</time>
      </trkpt>
      <trkpt lat="48.04111" lon="7.0054">
        <ele>1238</ele>
        <time>2021-06-04T06:16:18Z</time>
      </trkpt>
      <trkpt lat="48.04111" lon="7.00541">
        <ele>1238.1999511719</ele>
        <time>2021-06-04T06:16:19Z</time>
      </trkpt>
      <trkpt lat="48.04102" lon="7.00569">
        <ele>1240.1999511719</ele>
        <time>2021-06-04T06:16:38Z</time>
      </trkpt>
      <trkpt lat="48.04098" lon="7.0059">
        <ele>1242.8000488281</ele>
        <time>2021-06-04T06:16:57Z</time>
      </trkpt>
      <trkpt lat="48.04091" lon="7.00616">
        <ele>1245</ele>
        <time>2021-06-04T06:17:16Z</time>
      </trkpt>
      <trkpt lat="48.04079" lon="7.00642">
        <ele>1248</ele>
        <time>2021-06-04T06:17:36Z</time>
      </trkpt>
      <trkpt lat="48.04076" lon="7.00653">
        <ele>1249.5999755859</ele>
        <time>2021-06-04T06:17:53Z</time>
      </trkpt>
      <trkpt lat="48.04077" lon="7.00652">
        <ele>1249.8000488281</ele>
        <time>2021-06-04T06:18:29Z</time>
      </trkpt>
      <trkpt lat="48.04075" lon="7.00656">
        <ele>1250</ele>
        <time>2021-06-04T06:18:37Z</time>
      </trkpt>
      <trkpt lat="48.04075" lon="7.00658">
        <ele>1250</ele>
        <time>2021-06-04T06:18:38Z</time>
      </trkpt>
      <trkpt lat="48.04074" lon="7.0066">
        <ele>1250</ele>
        <time>2021-06-04T06:18:39Z</time>
      </trkpt>
      <trkpt lat="48.04066" lon="7.00688">
        <ele>1251.5999755859</ele>
        <time>2021-06-04T06:18:58Z</time>
      </trkpt>
      <trkpt lat="48.04064" lon="7.00717">
        <ele>1254.8000488281</ele>
        <time>2021-06-04T06:19:18Z</time>
      </trkpt>
      <trkpt lat="48.04063" lon="7.00744">
        <ele>1257.4000244141</ele>
        <time>2021-06-04T06:19:36Z</time>
      </trkpt>
      <trkpt lat="48.0406" lon="7.00779">
        <ele>1259.8000488281</ele>
        <time>2021-06-04T06:19:59Z</time>
      </trkpt>
      <trkpt lat="48.04055" lon="7.00815">
        <ele>1262.5999755859</ele>
        <time>2021-06-04T06:20:22Z</time>
      </trkpt>
      <trkpt lat="48.04047" lon="7.0086">
        <ele>1264.4000244141</ele>
        <time>2021-06-04T06:20:48Z</time>
      </trkpt>
      <trkpt lat="48.0404" lon="7.00901">
        <ele>1265.1999511719</ele>
        <time>2021-06-04T06:21:13Z</time>
      </trkpt>
      <trkpt lat="48.04033" lon="7.00938">
        <ele>1268</ele>
        <time>2021-06-04T06:21:36Z</time>
      </trkpt>
      <trkpt lat="48.04019" lon="7.00962">
        <ele>1269.1999511719</ele>
        <time>2021-06-04T06:21:56Z</time>
      </trkpt>
      <trkpt lat="48.0401" lon="7.00985">
        <ele>1271.8000488281</ele>
        <time>2021-06-04T06:22:14Z</time>
      </trkpt>
      <trkpt lat="48.04003" lon="7.01002">
        <ele>1274.8000488281</ele>
        <time>2021-06-04T06:22:30Z</time>
      </trkpt>
      <trkpt lat="48.03995" lon="7.01022">
        <ele>1278</ele>
        <time>2021-06-04T06:22:47Z</time>
      </trkpt>
      <trkpt lat="48.03989" lon="7.01038">
        <ele>1280.8000488281</ele>
        <time>2021-06-04T06:23:05Z</time>
      </trkpt>
      <trkpt lat="48.03981" lon="7.01055">
        <ele>1283.8000488281</ele>
        <time>2021-06-04T06:23:23Z</time>
      </trkpt>
      <trkpt lat="48.03976" lon="7.0107">
        <ele>1286.8000488281</ele>
        <time>2021-06-04T06:23:38Z</time>
      </trkpt>
      <trkpt lat="48.0397" lon="7.01086">
        <ele>1290</ele>
        <time>2021-06-04T06:23:55Z</time>
      </trkpt>
      <trkpt lat="48.03963" lon="7.01101">
        <ele>1292.4000244141</ele>
        <time>2021-06-04T06:24:13Z</time>
      </trkpt>
      <trkpt lat="48.03959" lon="7.01119">
        <ele>1295.4000244141</ele>
        <time>2021-06-04T06:24:32Z</time>
      </trkpt>
      <trkpt lat="48.03954" lon="7.01132">
        <ele>1298.5999755859</ele>
        <time>2021-06-04T06:24:47Z</time>
      </trkpt>
      <trkpt lat="48.03947" lon="7.01147">
        <ele>1301.8000488281</ele>
        <time>2021-06-04T06:25:02Z</time>
      </trkpt>
      <trkpt lat="48.03936" lon="7.01161">
        <ele>1304.1999511719</ele>
        <time>2021-06-04T06:25:20Z</time>
      </trkpt>
      <trkpt lat="48.03926" lon="7.01177">
        <ele>1307.1999511719</ele>
        <time>2021-06-04T06:25:37Z</time>
      </trkpt>
      <trkpt lat="48.03925" lon="7.0119">
        <ele>1310</ele>
        <time>2021-06-04T06:25:51Z</time>
      </trkpt>
      <trkpt lat="48.0392" lon="7.01202">
        <ele>1313.1999511719</ele>
        <time>2021-06-04T06:26:05Z</time>
      </trkpt>
      <trkpt lat="48.03914" lon="7.01219">
        <ele>1315.5999755859</ele>
        <time>2021-06-04T06:26:21Z</time>
      </trkpt>
      <trkpt lat="48.03907" lon="7.0124">
        <ele>1318.1999511719</ele>
        <time>2021-06-04T06:26:38Z</time>
      </trkpt>
      <trkpt lat="48.03899" lon="7.01254">
        <ele>1321.1999511719</ele>
        <time>2021-06-04T06:26:54Z</time>
      </trkpt>
      <trkpt lat="48.03892" lon="7.01273">
        <ele>1324.1999511719</ele>
        <time>2021-06-04T06:27:12Z</time>
      </trkpt>
      <trkpt lat="48.03879" lon="7.01293">
        <ele>1326</ele>
        <time>2021-06-04T06:27:31Z</time>
      </trkpt>
      <trkpt lat="48.03873" lon="7.013">
        <ele>1327</ele>
        <time>2021-06-04T06:27:39Z</time>
      </trkpt>
      <trkpt lat="48.03869" lon="7.01303">
        <ele>1327.1999511719</ele>
        <time>2021-06-04T06:27:43Z</time>
      </trkpt>
      <trkpt lat="48.03855" lon="7.0132">
        <ele>1329</ele>
        <time>2021-06-04T06:28:01Z</time>
      </trkpt>
      <trkpt lat="48.0384" lon="7.01341">
        <ele>1331.5999755859</ele>
        <time>2021-06-04T06:28:20Z</time>
      </trkpt>
      <trkpt lat="48.03823" lon="7.01358">
        <ele>1334.4000244141</ele>
        <time>2021-06-04T06:28:40Z</time>
      </trkpt>
      <trkpt lat="48.03806" lon="7.01372">
        <ele>1336.8000488281</ele>
        <time>2021-06-04T06:28:59Z</time>
      </trkpt>
      <trkpt lat="48.03803" lon="7.01378">
        <ele>1337.1999511719</ele>
        <time>2021-06-04T06:29:05Z</time>
      </trkpt>
      <trkpt lat="48.03801" lon="7.01385">
        <ele>1337.5999755859</ele>
        <time>2021-06-04T06:29:09Z</time>
      </trkpt>
      <trkpt lat="48.03808" lon="7.0141">
        <ele>1340.4000244141</ele>
        <time>2021-06-04T06:29:27Z</time>
      </trkpt>
      <trkpt lat="48.03823" lon="7.01429">
        <ele>1343</ele>
        <time>2021-06-04T06:29:46Z</time>
      </trkpt>
      <trkpt lat="48.03834" lon="7.0146">
        <ele>1346</ele>
        <time>2021-06-04T06:30:08Z</time>
      </trkpt>
      <trkpt lat="48.03838" lon="7.01477">
        <ele>1348.1999511719</ele>
        <time>2021-06-04T06:30:20Z</time>
      </trkpt>
      <trkpt lat="48.03837" lon="7.0148">
        <ele>1348.5999755859</ele>
        <time>2021-06-04T06:30:22Z</time>
      </trkpt>
      <trkpt lat="48.03831" lon="7.01507">
        <ele>1350.8000488281</ele>
        <time>2021-06-04T06:30:40Z</time>
      </trkpt>
      <trkpt lat="48.03813" lon="7.01513">
        <ele>1353.1999511719</ele>
        <time>2021-06-04T06:30:58Z</time>
      </trkpt>
      <trkpt lat="48.03798" lon="7.01514">
        <ele>1355.1999511719</ele>
        <time>2021-06-04T06:31:15Z</time>
      </trkpt>
      <trkpt lat="48.03796" lon="7.01518">
        <ele>1355.8000488281</ele>
        <time>2021-06-04T06:31:19Z</time>
      </trkpt>
      <trkpt lat="48.03796" lon="7.0152">
        <ele>1356</ele>
        <time>2021-06-04T06:31:20Z</time>
      </trkpt>
      <trkpt lat="48.03795" lon="7.01521">
        <ele>1356.1999511719</ele>
        <time>2021-06-04T06:31:21Z</time>
      </trkpt>
      <trkpt lat="48.03795" lon="7.01523">
        <ele>1356.1999511719</ele>
        <time>2021-06-04T06:31:22Z</time>
      </trkpt>
      <trkpt lat="48.03795" lon="7.01525">
        <ele>1356.4000244141</ele>
        <time>2021-06-04T06:31:23Z</time>
      </trkpt>
      <trkpt lat="48.03795" lon="7.01527">
        <ele>1356.5999755859</ele>
        <time>2021-06-04T06:31:24Z</time>
      </trkpt>
      <trkpt lat="48.03795" lon="7.01528">
        <ele>1356.5999755859</ele>
        <time>2021-06-04T06:31:25Z</time>
      </trkpt>
      <trkpt lat="48.03796" lon="7.0153">
        <ele>1356.5999755859</ele>
        <time>2021-06-04T06:31:26Z</time>
      </trkpt>
      <trkpt lat="48.03796" lon="7.01532">
        <ele>1356.5999755859</ele>
        <time>2021-06-04T06:31:27Z</time>
      </trkpt>
      <trkpt lat="48.03796" lon="7.01533">
        <ele>1356.5999755859</ele>
        <time>2021-06-04T06:31:28Z</time>
      </trkpt>
      <trkpt lat="48.03796" lon="7.01535">
        <ele>1356.5999755859</ele>
        <time>2021-06-04T06:31:29Z</time>
      </trkpt>
      <trkpt lat="48.03796" lon="7.01537">
        <ele>1356.8000488281</ele>
        <time>2021-06-04T06:31:30Z</time>
      </trkpt>
      <trkpt lat="48.03794" lon="7.01573">
        <ele>1357.8000488281</ele>
        <time>2021-06-04T06:31:51Z</time>
      </trkpt>
      <trkpt lat="48.03783" lon="7.01595">
        <ele>1361</ele>
        <time>2021-06-04T06:32:08Z</time>
      </trkpt>
      <trkpt lat="48.03767" lon="7.01626">
        <ele>1361.1999511719</ele>
        <time>2021-06-04T06:32:31Z</time>
      </trkpt>
      <trkpt lat="48.03762" lon="7.01629">
        <ele>1361.8000488281</ele>
        <time>2021-06-04T06:32:48Z</time>
      </trkpt>
      <trkpt lat="48.03762" lon="7.01626">
        <ele>1361.8000488281</ele>
        <time>2021-06-04T06:33:04Z</time>
      </trkpt>
      <trkpt lat="48.03759" lon="7.01632">
        <ele>1362.4000244141</ele>
        <time>2021-06-04T06:33:21Z</time>
      </trkpt>
      <trkpt lat="48.03758" lon="7.01634">
        <ele>1362.4000244141</ele>
        <time>2021-06-04T06:33:22Z</time>
      </trkpt>
      <trkpt lat="48.03757" lon="7.01635">
        <ele>1362.1999511719</ele>
        <time>2021-06-04T06:33:23Z</time>
      </trkpt>
      <trkpt lat="48.03756" lon="7.01636">
        <ele>1362.1999511719</ele>
        <time>2021-06-04T06:33:24Z</time>
      </trkpt>
      <trkpt lat="48.03754" lon="7.01644">
        <ele>1362.1999511719</ele>
        <time>2021-06-04T06:33:30Z</time>
      </trkpt>
      <trkpt lat="48.03758" lon="7.01648">
        <ele>1362</ele>
        <time>2021-06-04T06:33:44Z</time>
      </trkpt>
      <trkpt lat="48.03757" lon="7.01647">
        <ele>1362</ele>
        <time>2021-06-04T06:34:03Z</time>
      </trkpt>
      <trkpt lat="48.03755" lon="7.01645">
        <ele>1362</ele>
        <time>2021-06-04T06:34:07Z</time>
      </trkpt>
      <trkpt lat="48.03754" lon="7.01644">
        <ele>1362</ele>
        <time>2021-06-04T06:34:08Z</time>
      </trkpt>
      <trkpt lat="48.03753" lon="7.01642">
        <ele>1362</ele>
        <time>2021-06-04T06:34:09Z</time>
      </trkpt>
      <trkpt lat="48.03752" lon="7.01641">
        <ele>1362</ele>
        <time>2021-06-04T06:34:10Z</time>
      </trkpt>
      <trkpt lat="48.03751" lon="7.0164">
        <ele>1362</ele>
        <time>2021-06-04T06:34:11Z</time>
      </trkpt>
      <trkpt lat="48.03733" lon="7.01619">
        <ele>1362.1999511719</ele>
        <time>2021-06-04T06:34:34Z</time>
      </trkpt>
      <trkpt lat="48.03731" lon="7.01624">
        <ele>1360.5999755859</ele>
        <time>2021-06-04T06:34:58Z</time>
      </trkpt>
      <trkpt lat="48.0373" lon="7.01632">
        <ele>1359.1999511719</ele>
        <time>2021-06-04T06:35:26Z</time>
      </trkpt>
      <trkpt lat="48.03729" lon="7.01636">
        <ele>1358.8000488281</ele>
        <time>2021-06-04T06:35:42Z</time>
      </trkpt>
      <trkpt lat="48.03731" lon="7.01639">
        <ele>1359.1999511719</ele>
        <time>2021-06-04T06:35:54Z</time>
      </trkpt>
      <trkpt lat="48.03732" lon="7.01641">
        <ele>1359.4000244141</ele>
        <time>2021-06-04T06:36:12Z</time>
      </trkpt>
      <trkpt lat="48.0373" lon="7.01637">
        <ele>1359.5999755859</ele>
        <time>2021-06-04T06:36:27Z</time>
      </trkpt>
      <trkpt lat="48.03729" lon="7.01635">
        <ele>1359.1999511719</ele>
        <time>2021-06-04T06:36:49Z</time>
      </trkpt>
      <trkpt lat="48.03729" lon="7.01634">
        <ele>1359.8000488281</ele>
        <time>2021-06-04T06:37:18Z</time>
      </trkpt>
      <trkpt lat="48.03729" lon="7.01634">
        <ele>1359</ele>
        <time>2021-06-04T06:37:39Z</time>
      </trkpt>
      <trkpt lat="48.03728" lon="7.01634">
        <ele>1359.1999511719</ele>
        <time>2021-06-04T06:38:09Z</time>
      </trkpt>
      <trkpt lat="48.03726" lon="7.01625">
        <ele>1359.1999511719</ele>
        <time>2021-06-04T06:38:34Z</time>
      </trkpt>
      <trkpt lat="48.03725" lon="7.01624">
        <ele>1359</ele>
        <time>2021-06-04T06:38:35Z</time>
      </trkpt>
      <trkpt lat="48.03725" lon="7.01621">
        <ele>1356.4000244141</ele>
        <time>2021-06-04T06:38:50Z</time>
      </trkpt>
      <trkpt lat="48.03725" lon="7.01618">
        <ele>1356.8000488281</ele>
        <time>2021-06-04T06:39:34Z</time>
      </trkpt>
      <trkpt lat="48.03725" lon="7.01614">
        <ele>1356.5999755859</ele>
        <time>2021-06-04T06:39:36Z</time>
      </trkpt>
      <trkpt lat="48.03723" lon="7.01587">
        <ele>1356.4000244141</ele>
        <time>2021-06-04T06:39:52Z</time>
      </trkpt>
      <trkpt lat="48.03721" lon="7.01573">
        <ele>1355.4000244141</ele>
        <time>2021-06-04T06:40:09Z</time>
      </trkpt>
      <trkpt lat="48.03721" lon="7.01562">
        <ele>1354.8000488281</ele>
        <time>2021-06-04T06:40:21Z</time>
      </trkpt>
      <trkpt lat="48.03717" lon="7.01545">
        <ele>1351.5999755859</ele>
        <time>2021-06-04T06:40:32Z</time>
      </trkpt>
      <trkpt lat="48.03713" lon="7.01533">
        <ele>1349</ele>
        <time>2021-06-04T06:40:53Z</time>
      </trkpt>
      <trkpt lat="48.03712" lon="7.0153">
        <ele>1350</ele>
        <time>2021-06-04T06:41:20Z</time>
      </trkpt>
      <trkpt lat="48.03711" lon="7.01526">
        <ele>1350.4000244141</ele>
        <time>2021-06-04T06:41:22Z</time>
      </trkpt>
      <trkpt lat="48.03712" lon="7.01507">
        <ele>1348.1999511719</ele>
        <time>2021-06-04T06:41:37Z</time>
      </trkpt>
      <trkpt lat="48.03713" lon="7.01497">
        <ele>1348</ele>
        <time>2021-06-04T06:41:45Z</time>
      </trkpt>
      <trkpt lat="48.03715" lon="7.01486">
        <ele>1346.4000244141</ele>
        <time>2021-06-04T06:41:51Z</time>
      </trkpt>
      <trkpt lat="48.03714" lon="7.0148">
        <ele>1345.5999755859</ele>
        <time>2021-06-04T06:41:55Z</time>
      </trkpt>
      <trkpt lat="48.03714" lon="7.01478">
        <ele>1345.4000244141</ele>
        <time>2021-06-04T06:41:56Z</time>
      </trkpt>
      <trkpt lat="48.03713" lon="7.01476">
        <ele>1345</ele>
        <time>2021-06-04T06:41:57Z</time>
      </trkpt>
      <trkpt lat="48.03713" lon="7.01475">
        <ele>1344.8000488281</ele>
        <time>2021-06-04T06:41:58Z</time>
      </trkpt>
      <trkpt lat="48.03713" lon="7.01474">
        <ele>1344.8000488281</ele>
        <time>2021-06-04T06:41:59Z</time>
      </trkpt>
      <trkpt lat="48.03711" lon="7.01472">
        <ele>1344.5999755859</ele>
        <time>2021-06-04T06:42:01Z</time>
      </trkpt>
      <trkpt lat="48.03708" lon="7.01469">
        <ele>1344.1999511719</ele>
        <time>2021-06-04T06:42:05Z</time>
      </trkpt>
      <trkpt lat="48.03707" lon="7.01469">
        <ele>1344</ele>
        <time>2021-06-04T06:42:06Z</time>
      </trkpt>
      <trkpt lat="48.03702" lon="7.01449">
        <ele>1341.8000488281</ele>
        <time>2021-06-04T06:42:20Z</time>
      </trkpt>
      <trkpt lat="48.03702" lon="7.01443">
        <ele>1341.4000244141</ele>
        <time>2021-06-04T06:42:23Z</time>
      </trkpt>
      <trkpt lat="48.03701" lon="7.01442">
        <ele>1341.1999511719</ele>
        <time>2021-06-04T06:42:24Z</time>
      </trkpt>
      <trkpt lat="48.03701" lon="7.0144">
        <ele>1341.1999511719</ele>
        <time>2021-06-04T06:42:25Z</time>
      </trkpt>
      <trkpt lat="48.037" lon="7.01438">
        <ele>1341</ele>
        <time>2021-06-04T06:42:26Z</time>
      </trkpt>
      <trkpt lat="48.037" lon="7.01437">
        <ele>1341</ele>
        <time>2021-06-04T06:42:27Z</time>
      </trkpt>
      <trkpt lat="48.03698" lon="7.01429">
        <ele>1339.1999511719</ele>
        <time>2021-06-04T06:42:32Z</time>
      </trkpt>
      <trkpt lat="48.03698" lon="7.01407">
        <ele>1337</ele>
        <time>2021-06-04T06:42:45Z</time>
      </trkpt>
      <trkpt lat="48.03705" lon="7.01389">
        <ele>1336.1999511719</ele>
        <time>2021-06-04T06:42:58Z</time>
      </trkpt>
      <trkpt lat="48.03708" lon="7.0138">
        <ele>1335.4000244141</ele>
        <time>2021-06-04T06:43:07Z</time>
      </trkpt>
      <trkpt lat="48.03708" lon="7.01376">
        <ele>1335</ele>
        <time>2021-06-04T06:43:09Z</time>
      </trkpt>
      <trkpt lat="48.03708" lon="7.01374">
        <ele>1334.8000488281</ele>
        <time>2021-06-04T06:43:10Z</time>
      </trkpt>
      <trkpt lat="48.03708" lon="7.01372">
        <ele>1334.5999755859</ele>
        <time>2021-06-04T06:43:11Z</time>
      </trkpt>
      <trkpt lat="48.03709" lon="7.0137">
        <ele>1334.4000244141</ele>
        <time>2021-06-04T06:43:12Z</time>
      </trkpt>
      <trkpt lat="48.03709" lon="7.01369">
        <ele>1334.4000244141</ele>
        <time>2021-06-04T06:43:13Z</time>
      </trkpt>
      <trkpt lat="48.03709" lon="7.01367">
        <ele>1334.1999511719</ele>
        <time>2021-06-04T06:43:14Z</time>
      </trkpt>
      <trkpt lat="48.03709" lon="7.01365">
        <ele>1333.8000488281</ele>
        <time>2021-06-04T06:43:16Z</time>
      </trkpt>
      <trkpt lat="48.03687" lon="7.01363">
        <ele>1331</ele>
        <time>2021-06-04T06:43:34Z</time>
      </trkpt>
      <trkpt lat="48.03681" lon="7.01361">
        <ele>1328.8000488281</ele>
        <time>2021-06-04T06:43:41Z</time>
      </trkpt>
      <trkpt lat="48.03681" lon="7.01357">
        <ele>1328.1999511719</ele>
        <time>2021-06-04T06:43:44Z</time>
      </trkpt>
      <trkpt lat="48.03681" lon="7.01356">
        <ele>1328</ele>
        <time>2021-06-04T06:43:45Z</time>
      </trkpt>
      <trkpt lat="48.03682" lon="7.01354">
        <ele>1328</ele>
        <time>2021-06-04T06:43:46Z</time>
      </trkpt>
      <trkpt lat="48.03683" lon="7.01353">
        <ele>1327.8000488281</ele>
        <time>2021-06-04T06:43:47Z</time>
      </trkpt>
      <trkpt lat="48.03683" lon="7.01351">
        <ele>1327.8000488281</ele>
        <time>2021-06-04T06:43:48Z</time>
      </trkpt>
      <trkpt lat="48.03684" lon="7.01348">
        <ele>1327.1999511719</ele>
        <time>2021-06-04T06:43:56Z</time>
      </trkpt>
      <trkpt lat="48.03686" lon="7.01343">
        <ele>1327.1999511719</ele>
        <time>2021-06-04T06:43:59Z</time>
      </trkpt>
      <trkpt lat="48.03686" lon="7.0134">
        <ele>1327.1999511719</ele>
        <time>2021-06-04T06:44:01Z</time>
      </trkpt>
      <trkpt lat="48.03686" lon="7.01339">
        <ele>1327.1999511719</ele>
        <time>2021-06-04T06:44:02Z</time>
      </trkpt>
      <trkpt lat="48.03685" lon="7.01339">
        <ele>1327</ele>
        <time>2021-06-04T06:44:03Z</time>
      </trkpt>
      <trkpt lat="48.03683" lon="7.01339">
        <ele>1326.8000488281</ele>
        <time>2021-06-04T06:44:04Z</time>
      </trkpt>
      <trkpt lat="48.03682" lon="7.01339">
        <ele>1326.5999755859</ele>
        <time>2021-06-04T06:44:05Z</time>
      </trkpt>
      <trkpt lat="48.03672" lon="7.01341">
        <ele>1323.8000488281</ele>
        <time>2021-06-04T06:44:15Z</time>
      </trkpt>
      <trkpt lat="48.03671" lon="7.01339">
        <ele>1323.1999511719</ele>
        <time>2021-06-04T06:44:31Z</time>
      </trkpt>
      <trkpt lat="48.0367" lon="7.01333">
        <ele>1323</ele>
        <time>2021-06-04T06:44:35Z</time>
      </trkpt>
      <trkpt lat="48.03676" lon="7.01308">
        <ele>1321.1999511719</ele>
        <time>2021-06-04T06:44:49Z</time>
      </trkpt>
      <trkpt lat="48.03677" lon="7.01306">
        <ele>1320.8000488281</ele>
        <time>2021-06-04T06:44:51Z</time>
      </trkpt>
      <trkpt lat="48.03681" lon="7.01285">
        <ele>1317.8000488281</ele>
        <time>2021-06-04T06:45:04Z</time>
      </trkpt>
      <trkpt lat="48.0368" lon="7.01284">
        <ele>1317.4000244141</ele>
        <time>2021-06-04T06:45:05Z</time>
      </trkpt>
      <trkpt lat="48.03679" lon="7.01283">
        <ele>1317</ele>
        <time>2021-06-04T06:45:07Z</time>
      </trkpt>
      <trkpt lat="48.03677" lon="7.01282">
        <ele>1316.8000488281</ele>
        <time>2021-06-04T06:45:08Z</time>
      </trkpt>
      <trkpt lat="48.03676" lon="7.01282">
        <ele>1316.5999755859</ele>
        <time>2021-06-04T06:45:09Z</time>
      </trkpt>
      <trkpt lat="48.03675" lon="7.01281">
        <ele>1316.4000244141</ele>
        <time>2021-06-04T06:45:10Z</time>
      </trkpt>
      <trkpt lat="48.03674" lon="7.01281">
        <ele>1316.1999511719</ele>
        <time>2021-06-04T06:45:11Z</time>
      </trkpt>
      <trkpt lat="48.03653" lon="7.01277">
        <ele>1313</ele>
        <time>2021-06-04T06:45:30Z</time>
      </trkpt>
      <trkpt lat="48.03652" lon="7.01276">
        <ele>1312.8000488281</ele>
        <time>2021-06-04T06:45:31Z</time>
      </trkpt>
      <trkpt lat="48.03649" lon="7.01277">
        <ele>1311.1999511719</ele>
        <time>2021-06-04T06:45:49Z</time>
      </trkpt>
      <trkpt lat="48.03644" lon="7.01275">
        <ele>1310.5999755859</ele>
        <time>2021-06-04T06:45:56Z</time>
      </trkpt>
      <trkpt lat="48.03644" lon="7.01274">
        <ele>1310.5999755859</ele>
        <time>2021-06-04T06:45:57Z</time>
      </trkpt>
      <trkpt lat="48.03644" lon="7.01272">
        <ele>1310.4000244141</ele>
        <time>2021-06-04T06:45:58Z</time>
      </trkpt>
      <trkpt lat="48.03645" lon="7.01268">
        <ele>1309.5999755859</ele>
        <time>2021-06-04T06:46:11Z</time>
      </trkpt>
      <trkpt lat="48.03645" lon="7.01267">
        <ele>1309.5999755859</ele>
        <time>2021-06-04T06:46:12Z</time>
      </trkpt>
      <trkpt lat="48.03644" lon="7.01265">
        <ele>1309.5999755859</ele>
        <time>2021-06-04T06:46:13Z</time>
      </trkpt>
      <trkpt lat="48.03643" lon="7.01262">
        <ele>1309.4000244141</ele>
        <time>2021-06-04T06:46:17Z</time>
      </trkpt>
      <trkpt lat="48.0364" lon="7.01258">
        <ele>1309</ele>
        <time>2021-06-04T06:46:20Z</time>
      </trkpt>
      <trkpt lat="48.0364" lon="7.01255">
        <ele>1308.5999755859</ele>
        <time>2021-06-04T06:46:22Z</time>
      </trkpt>
      <trkpt lat="48.0364" lon="7.01253">
        <ele>1308.4000244141</ele>
        <time>2021-06-04T06:46:23Z</time>
      </trkpt>
      <trkpt lat="48.0364" lon="7.01252">
        <ele>1308.1999511719</ele>
        <time>2021-06-04T06:46:24Z</time>
      </trkpt>
      <trkpt lat="48.03641" lon="7.01248">
        <ele>1307.8000488281</ele>
        <time>2021-06-04T06:46:26Z</time>
      </trkpt>
      <trkpt lat="48.03642" lon="7.01241">
        <ele>1307</ele>
        <time>2021-06-04T06:46:30Z</time>
      </trkpt>
      <trkpt lat="48.03641" lon="7.01239">
        <ele>1306.8000488281</ele>
        <time>2021-06-04T06:46:32Z</time>
      </trkpt>
      <trkpt lat="48.03637" lon="7.0124">
        <ele>1305.5999755859</ele>
        <time>2021-06-04T06:46:36Z</time>
      </trkpt>
      <trkpt lat="48.03623" lon="7.01244">
        <ele>1304.1999511719</ele>
        <time>2021-06-04T06:46:48Z</time>
      </trkpt>
      <trkpt lat="48.03621" lon="7.01245">
        <ele>1304.1999511719</ele>
        <time>2021-06-04T06:46:50Z</time>
      </trkpt>
      <trkpt lat="48.03595" lon="7.01252">
        <ele>1301</ele>
        <time>2021-06-04T06:47:09Z</time>
      </trkpt>
      <trkpt lat="48.03588" lon="7.01255">
        <ele>1299.4000244141</ele>
        <time>2021-06-04T06:47:15Z</time>
      </trkpt>
      <trkpt lat="48.03586" lon="7.01259">
        <ele>1298.8000488281</ele>
        <time>2021-06-04T06:47:18Z</time>
      </trkpt>
      <trkpt lat="48.03587" lon="7.01269">
        <ele>1297.1999511719</ele>
        <time>2021-06-04T06:47:35Z</time>
      </trkpt>
      <trkpt lat="48.03582" lon="7.01267">
        <ele>1296.8000488281</ele>
        <time>2021-06-04T06:47:51Z</time>
      </trkpt>
      <trkpt lat="48.03577" lon="7.01264">
        <ele>1295.1999511719</ele>
        <time>2021-06-04T06:48:06Z</time>
      </trkpt>
      <trkpt lat="48.03576" lon="7.01264">
        <ele>1295</ele>
        <time>2021-06-04T06:48:32Z</time>
      </trkpt>
      <trkpt lat="48.03573" lon="7.0126">
        <ele>1295.4000244141</ele>
        <time>2021-06-04T06:48:56Z</time>
      </trkpt>
      <trkpt lat="48.03571" lon="7.01258">
        <ele>1295.1999511719</ele>
        <time>2021-06-04T06:48:58Z</time>
      </trkpt>
      <trkpt lat="48.0357" lon="7.01257">
        <ele>1295</ele>
        <time>2021-06-04T06:48:59Z</time>
      </trkpt>
      <trkpt lat="48.03569" lon="7.01257">
        <ele>1295</ele>
        <time>2021-06-04T06:49:00Z</time>
      </trkpt>
      <trkpt lat="48.03568" lon="7.01256">
        <ele>1294.8000488281</ele>
        <time>2021-06-04T06:49:01Z</time>
      </trkpt>
      <trkpt lat="48.03567" lon="7.01256">
        <ele>1294.8000488281</ele>
        <time>2021-06-04T06:49:02Z</time>
      </trkpt>
      <trkpt lat="48.03559" lon="7.01247">
        <ele>1292.8000488281</ele>
        <time>2021-06-04T06:49:11Z</time>
      </trkpt>
      <trkpt lat="48.03558" lon="7.01247">
        <ele>1292.8000488281</ele>
        <time>2021-06-04T06:49:12Z</time>
      </trkpt>
      <trkpt lat="48.03557" lon="7.01246">
        <ele>1292.5999755859</ele>
        <time>2021-06-04T06:49:13Z</time>
      </trkpt>
      <trkpt lat="48.03556" lon="7.01245">
        <ele>1292.4000244141</ele>
        <time>2021-06-04T06:49:14Z</time>
      </trkpt>
      <trkpt lat="48.03554" lon="7.0124">
        <ele>1291.4000244141</ele>
        <time>2021-06-04T06:49:18Z</time>
      </trkpt>
      <trkpt lat="48.03553" lon="7.01238">
        <ele>1291.1999511719</ele>
        <time>2021-06-04T06:49:19Z</time>
      </trkpt>
      <trkpt lat="48.03552" lon="7.01222">
        <ele>1290.5999755859</ele>
        <time>2021-06-04T06:49:31Z</time>
      </trkpt>
      <trkpt lat="48.03552" lon="7.01221">
        <ele>1290.5999755859</ele>
        <time>2021-06-04T06:49:32Z</time>
      </trkpt>
      <trkpt lat="48.03552" lon="7.01219">
        <ele>1290.5999755859</ele>
        <time>2021-06-04T06:49:33Z</time>
      </trkpt>
      <trkpt lat="48.03552" lon="7.01217">
        <ele>1290.5999755859</ele>
        <time>2021-06-04T06:49:34Z</time>
      </trkpt>
      <trkpt lat="48.03551" lon="7.01215">
        <ele>1290.4000244141</ele>
        <time>2021-06-04T06:49:35Z</time>
      </trkpt>
      <trkpt lat="48.03551" lon="7.012">
        <ele>1289.5999755859</ele>
        <time>2021-06-04T06:49:44Z</time>
      </trkpt>
      <trkpt lat="48.0355" lon="7.01197">
        <ele>1289.4000244141</ele>
        <time>2021-06-04T06:49:48Z</time>
      </trkpt>
      <trkpt lat="48.0355" lon="7.01194">
        <ele>1289.1999511719</ele>
        <time>2021-06-04T06:49:50Z</time>
      </trkpt>
      <trkpt lat="48.03551" lon="7.01187">
        <ele>1288.5999755859</ele>
        <time>2021-06-04T06:49:54Z</time>
      </trkpt>
      <trkpt lat="48.03554" lon="7.01163">
        <ele>1286.5999755859</ele>
        <time>2021-06-04T06:50:10Z</time>
      </trkpt>
      <trkpt lat="48.03554" lon="7.01161">
        <ele>1286.4000244141</ele>
        <time>2021-06-04T06:50:19Z</time>
      </trkpt>
      <trkpt lat="48.03561" lon="7.01132">
        <ele>1284</ele>
        <time>2021-06-04T06:50:37Z</time>
      </trkpt>
      <trkpt lat="48.03553" lon="7.01134">
        <ele>1282.4000244141</ele>
        <time>2021-06-04T06:50:56Z</time>
      </trkpt>
      <trkpt lat="48.03552" lon="7.01134">
        <ele>1282.4000244141</ele>
        <time>2021-06-04T06:50:58Z</time>
      </trkpt>
      <trkpt lat="48.03529" lon="7.01143">
        <ele>1280.5999755859</ele>
        <time>2021-06-04T06:51:16Z</time>
      </trkpt>
      <trkpt lat="48.03521" lon="7.01144">
        <ele>1278.8000488281</ele>
        <time>2021-06-04T06:51:31Z</time>
      </trkpt>
      <trkpt lat="48.03519" lon="7.01141">
        <ele>1278.4000244141</ele>
        <time>2021-06-04T06:51:41Z</time>
      </trkpt>
      <trkpt lat="48.03517" lon="7.01139">
        <ele>1278.4000244141</ele>
        <time>2021-06-04T06:51:43Z</time>
      </trkpt>
      <trkpt lat="48.035" lon="7.01128">
        <ele>1275.5999755859</ele>
        <time>2021-06-04T06:51:59Z</time>
      </trkpt>
      <trkpt lat="48.03493" lon="7.01125">
        <ele>1273.8000488281</ele>
        <time>2021-06-04T06:52:18Z</time>
      </trkpt>
      <trkpt lat="48.03492" lon="7.01127">
        <ele>1274</ele>
        <time>2021-06-04T06:52:35Z</time>
      </trkpt>
      <trkpt lat="48.03491" lon="7.01131">
        <ele>1273.5999755859</ele>
        <time>2021-06-04T06:52:38Z</time>
      </trkpt>
      <trkpt lat="48.03491" lon="7.01133">
        <ele>1273.1999511719</ele>
        <time>2021-06-04T06:52:54Z</time>
      </trkpt>
      <trkpt lat="48.03489" lon="7.01139">
        <ele>1272.4000244141</ele>
        <time>2021-06-04T06:53:12Z</time>
      </trkpt>
      <trkpt lat="48.03487" lon="7.01139">
        <ele>1271.1999511719</ele>
        <time>2021-06-04T06:53:25Z</time>
      </trkpt>
      <trkpt lat="48.03487" lon="7.01138">
        <ele>1271.5999755859</ele>
        <time>2021-06-04T06:54:05Z</time>
      </trkpt>
      <trkpt lat="48.0348" lon="7.01136">
        <ele>1268.5999755859</ele>
        <time>2021-06-04T06:54:15Z</time>
      </trkpt>
      <trkpt lat="48.03474" lon="7.01141">
        <ele>1265.4000244141</ele>
        <time>2021-06-04T06:54:27Z</time>
      </trkpt>
      <trkpt lat="48.03473" lon="7.01141">
        <ele>1264.5999755859</ele>
        <time>2021-06-04T06:54:29Z</time>
      </trkpt>
      <trkpt lat="48.03469" lon="7.01139">
        <ele>1262.8000488281</ele>
        <time>2021-06-04T06:54:41Z</time>
      </trkpt>
      <trkpt lat="48.03462" lon="7.01146">
        <ele>1260.4000244141</ele>
        <time>2021-06-04T06:54:57Z</time>
      </trkpt>
      <trkpt lat="48.03458" lon="7.01145">
        <ele>1259</ele>
        <time>2021-06-04T06:55:03Z</time>
      </trkpt>
      <trkpt lat="48.03454" lon="7.01144">
        <ele>1258.4000244141</ele>
        <time>2021-06-04T06:55:06Z</time>
      </trkpt>
      <trkpt lat="48.03448" lon="7.01141">
        <ele>1256.5999755859</ele>
        <time>2021-06-04T06:55:21Z</time>
      </trkpt>
      <trkpt lat="48.03443" lon="7.01141">
        <ele>1255.8000488281</ele>
        <time>2021-06-04T06:55:34Z</time>
      </trkpt>
      <trkpt lat="48.03439" lon="7.0114">
        <ele>1253.5999755859</ele>
        <time>2021-06-04T06:55:48Z</time>
      </trkpt>
      <trkpt lat="48.03439" lon="7.01139">
        <ele>1253.5999755859</ele>
        <time>2021-06-04T06:56:13Z</time>
      </trkpt>
      <trkpt lat="48.03439" lon="7.0114">
        <ele>1253.5999755859</ele>
        <time>2021-06-04T06:56:46Z</time>
      </trkpt>
      <trkpt lat="48.03443" lon="7.01147">
        <ele>1253.8000488281</ele>
        <time>2021-06-04T06:57:04Z</time>
      </trkpt>
      <trkpt lat="48.03449" lon="7.01153">
        <ele>1252</ele>
        <time>2021-06-04T06:57:19Z</time>
      </trkpt>
      <trkpt lat="48.03448" lon="7.01159">
        <ele>1248.8000488281</ele>
        <time>2021-06-04T06:57:29Z</time>
      </trkpt>
      <trkpt lat="48.03448" lon="7.01164">
        <ele>1245.8000488281</ele>
        <time>2021-06-04T06:57:40Z</time>
      </trkpt>
      <trkpt lat="48.03446" lon="7.01163">
        <ele>1245</ele>
        <time>2021-06-04T06:57:46Z</time>
      </trkpt>
      <trkpt lat="48.03444" lon="7.01163">
        <ele>1244.5999755859</ele>
        <time>2021-06-04T06:57:48Z</time>
      </trkpt>
      <trkpt lat="48.03438" lon="7.01161">
        <ele>1242.8000488281</ele>
        <time>2021-06-04T06:58:02Z</time>
      </trkpt>
      <trkpt lat="48.03441" lon="7.01169">
        <ele>1240.4000244141</ele>
        <time>2021-06-04T06:58:17Z</time>
      </trkpt>
      <trkpt lat="48.03442" lon="7.0117">
        <ele>1240.4000244141</ele>
        <time>2021-06-04T06:58:18Z</time>
      </trkpt>
      <trkpt lat="48.03443" lon="7.01171">
        <ele>1240.4000244141</ele>
        <time>2021-06-04T06:58:19Z</time>
      </trkpt>
      <trkpt lat="48.03448" lon="7.01186">
        <ele>1237.1999511719</ele>
        <time>2021-06-04T06:58:33Z</time>
      </trkpt>
      <trkpt lat="48.03449" lon="7.01191">
        <ele>1236.1999511719</ele>
        <time>2021-06-04T06:58:37Z</time>
      </trkpt>
      <trkpt lat="48.03452" lon="7.012">
        <ele>1233.4000244141</ele>
        <time>2021-06-04T06:58:47Z</time>
      </trkpt>
      <trkpt lat="48.03448" lon="7.01208">
        <ele>1230.1999511719</ele>
        <time>2021-06-04T06:59:00Z</time>
      </trkpt>
      <trkpt lat="48.0345" lon="7.01217">
        <ele>1227</ele>
        <time>2021-06-04T06:59:15Z</time>
      </trkpt>
      <trkpt lat="48.03447" lon="7.01223">
        <ele>1224.5999755859</ele>
        <time>2021-06-04T06:59:26Z</time>
      </trkpt>
      <trkpt lat="48.03447" lon="7.01229">
        <ele>1222</ele>
        <time>2021-06-04T06:59:40Z</time>
      </trkpt>
      <trkpt lat="48.03444" lon="7.01233">
        <ele>1220.4000244141</ele>
        <time>2021-06-04T06:59:55Z</time>
      </trkpt>
      <trkpt lat="48.0344" lon="7.01239">
        <ele>1217.4000244141</ele>
        <time>2021-06-04T07:00:09Z</time>
      </trkpt>
      <trkpt lat="48.03438" lon="7.01246">
        <ele>1214.4000244141</ele>
        <time>2021-06-04T07:00:21Z</time>
      </trkpt>
      <trkpt lat="48.03433" lon="7.01256">
        <ele>1211.1999511719</ele>
        <time>2021-06-04T07:00:33Z</time>
      </trkpt>
      <trkpt lat="48.0343" lon="7.01267">
        <ele>1208.4000244141</ele>
        <time>2021-06-04T07:00:45Z</time>
      </trkpt>
      <trkpt lat="48.03429" lon="7.01279">
        <ele>1205.5999755859</ele>
        <time>2021-06-04T07:01:02Z</time>
      </trkpt>
      <trkpt lat="48.03421" lon="7.0129">
        <ele>1202.5999755859</ele>
        <time>2021-06-04T07:01:20Z</time>
      </trkpt>
      <trkpt lat="48.03418" lon="7.01292">
        <ele>1201.4000244141</ele>
        <time>2021-06-04T07:01:24Z</time>
      </trkpt>
      <trkpt lat="48.03417" lon="7.01293">
        <ele>1201.1999511719</ele>
        <time>2021-06-04T07:01:25Z</time>
      </trkpt>
      <trkpt lat="48.03417" lon="7.01294">
        <ele>1201.1999511719</ele>
        <time>2021-06-04T07:01:26Z</time>
      </trkpt>
      <trkpt lat="48.03414" lon="7.01296">
        <ele>1200.8000488281</ele>
        <time>2021-06-04T07:01:29Z</time>
      </trkpt>
      <trkpt lat="48.03413" lon="7.01303">
        <ele>1200.1999511719</ele>
        <time>2021-06-04T07:01:35Z</time>
      </trkpt>
      <trkpt lat="48.03415" lon="7.01317">
        <ele>1198</ele>
        <time>2021-06-04T07:01:51Z</time>
      </trkpt>
      <trkpt lat="48.03417" lon="7.01322">
        <ele>1196.5999755859</ele>
        <time>2021-06-04T07:02:08Z</time>
      </trkpt>
      <trkpt lat="48.03413" lon="7.01334">
        <ele>1194.1999511719</ele>
        <time>2021-06-04T07:02:28Z</time>
      </trkpt>
      <trkpt lat="48.03407" lon="7.01329">
        <ele>1192.1999511719</ele>
        <time>2021-06-04T07:02:44Z</time>
      </trkpt>
      <trkpt lat="48.03402" lon="7.01327">
        <ele>1189.1999511719</ele>
        <time>2021-06-04T07:02:58Z</time>
      </trkpt>
      <trkpt lat="48.034" lon="7.01332">
        <ele>1186</ele>
        <time>2021-06-04T07:03:15Z</time>
      </trkpt>
      <trkpt lat="48.03404" lon="7.01339">
        <ele>1184.1999511719</ele>
        <time>2021-06-04T07:03:34Z</time>
      </trkpt>
      <trkpt lat="48.03409" lon="7.01352">
        <ele>1181.4000244141</ele>
        <time>2021-06-04T07:03:53Z</time>
      </trkpt>
      <trkpt lat="48.0341" lon="7.01359">
        <ele>1178.1999511719</ele>
        <time>2021-06-04T07:04:08Z</time>
      </trkpt>
      <trkpt lat="48.03417" lon="7.01376">
        <ele>1175</ele>
        <time>2021-06-04T07:04:30Z</time>
      </trkpt>
      <trkpt lat="48.03417" lon="7.01389">
        <ele>1172</ele>
        <time>2021-06-04T07:04:47Z</time>
      </trkpt>
      <trkpt lat="48.03414" lon="7.01391">
        <ele>1169</ele>
        <time>2021-06-04T07:05:04Z</time>
      </trkpt>
      <trkpt lat="48.03402" lon="7.01391">
        <ele>1165.5999755859</ele>
        <time>2021-06-04T07:05:25Z</time>
      </trkpt>
      <trkpt lat="48.03398" lon="7.01391">
        <ele>1164.5999755859</ele>
        <time>2021-06-04T07:05:48Z</time>
      </trkpt>
      <trkpt lat="48.03391" lon="7.01387">
        <ele>1162.4000244141</ele>
        <time>2021-06-04T07:06:07Z</time>
      </trkpt>
      <trkpt lat="48.03389" lon="7.01391">
        <ele>1162.1999511719</ele>
        <time>2021-06-04T07:06:20Z</time>
      </trkpt>
      <trkpt lat="48.03395" lon="7.01407">
        <ele>1159.1999511719</ele>
        <time>2021-06-04T07:06:41Z</time>
      </trkpt>
      <trkpt lat="48.03388" lon="7.01427">
        <ele>1157.8000488281</ele>
        <time>2021-06-04T07:07:00Z</time>
      </trkpt>
      <trkpt lat="48.0338" lon="7.01442">
        <ele>1154.8000488281</ele>
        <time>2021-06-04T07:07:17Z</time>
      </trkpt>
      <trkpt lat="48.03377" lon="7.01455">
        <ele>1153</ele>
        <time>2021-06-04T07:07:39Z</time>
      </trkpt>
      <trkpt lat="48.03376" lon="7.01467">
        <ele>1152.1999511719</ele>
        <time>2021-06-04T07:07:56Z</time>
      </trkpt>
      <trkpt lat="48.03376" lon="7.01474">
        <ele>1150.4000244141</ele>
        <time>2021-06-04T07:08:19Z</time>
      </trkpt>
      <trkpt lat="48.03377" lon="7.01482">
        <ele>1149.1999511719</ele>
        <time>2021-06-04T07:08:39Z</time>
      </trkpt>
      <trkpt lat="48.03376" lon="7.01488">
        <ele>1148.1999511719</ele>
        <time>2021-06-04T07:09:00Z</time>
      </trkpt>
      <trkpt lat="48.03376" lon="7.01506">
        <ele>1145.1999511719</ele>
        <time>2021-06-04T07:09:20Z</time>
      </trkpt>
      <trkpt lat="48.03382" lon="7.01523">
        <ele>1142</ele>
        <time>2021-06-04T07:09:41Z</time>
      </trkpt>
      <trkpt lat="48.03385" lon="7.01529">
        <ele>1138.8000488281</ele>
        <time>2021-06-04T07:09:53Z</time>
      </trkpt>
      <trkpt lat="48.03387" lon="7.01544">
        <ele>1135.5999755859</ele>
        <time>2021-06-04T07:10:07Z</time>
      </trkpt>
      <trkpt lat="48.03387" lon="7.01563">
        <ele>1132.5999755859</ele>
        <time>2021-06-04T07:10:23Z</time>
      </trkpt>
      <trkpt lat="48.03383" lon="7.01586">
        <ele>1130.5999755859</ele>
        <time>2021-06-04T07:10:41Z</time>
      </trkpt>
      <trkpt lat="48.03383" lon="7.01602">
        <ele>1130.1999511719</ele>
        <time>2021-06-04T07:10:59Z</time>
      </trkpt>
      <trkpt lat="48.03389" lon="7.016">
        <ele>1127.5999755859</ele>
        <time>2021-06-04T07:11:13Z</time>
      </trkpt>
      <trkpt lat="48.03394" lon="7.01607">
        <ele>1124.5999755859</ele>
        <time>2021-06-04T07:11:27Z</time>
      </trkpt>
      <trkpt lat="48.03392" lon="7.01621">
        <ele>1121.5999755859</ele>
        <time>2021-06-04T07:11:48Z</time>
      </trkpt>
      <trkpt lat="48.03392" lon="7.01628">
        <ele>1118.4000244141</ele>
        <time>2021-06-04T07:12:03Z</time>
      </trkpt>
      <trkpt lat="48.03381" lon="7.01636">
        <ele>1115.4000244141</ele>
        <time>2021-06-04T07:12:21Z</time>
      </trkpt>
      <trkpt lat="48.03377" lon="7.01638">
        <ele>1112.4000244141</ele>
        <time>2021-06-04T07:12:35Z</time>
      </trkpt>
      <trkpt lat="48.03371" lon="7.01648">
        <ele>1109.1999511719</ele>
        <time>2021-06-04T07:12:51Z</time>
      </trkpt>
      <trkpt lat="48.03365" lon="7.01658">
        <ele>1106</ele>
        <time>2021-06-04T07:13:11Z</time>
      </trkpt>
      <trkpt lat="48.03358" lon="7.01668">
        <ele>1102.8000488281</ele>
        <time>2021-06-04T07:13:23Z</time>
      </trkpt>
      <trkpt lat="48.0335" lon="7.01675">
        <ele>1099.5999755859</ele>
        <time>2021-06-04T07:13:32Z</time>
      </trkpt>
      <trkpt lat="48.03342" lon="7.01683">
        <ele>1096.4000244141</ele>
        <time>2021-06-04T07:13:43Z</time>
      </trkpt>
      <trkpt lat="48.03326" lon="7.01695">
        <ele>1093.1999511719</ele>
        <time>2021-06-04T07:13:53Z</time>
      </trkpt>
      <trkpt lat="48.03323" lon="7.01697">
        <ele>1091.8000488281</ele>
        <time>2021-06-04T07:13:56Z</time>
      </trkpt>
      <trkpt lat="48.03312" lon="7.01705">
        <ele>1088.5999755859</ele>
        <time>2021-06-04T07:14:06Z</time>
      </trkpt>
      <trkpt lat="48.03306" lon="7.01713">
        <ele>1085.5999755859</ele>
        <time>2021-06-04T07:14:19Z</time>
      </trkpt>
      <trkpt lat="48.033" lon="7.01725">
        <ele>1082.4000244141</ele>
        <time>2021-06-04T07:14:31Z</time>
      </trkpt>
      <trkpt lat="48.03291" lon="7.01737">
        <ele>1079.4000244141</ele>
        <time>2021-06-04T07:14:48Z</time>
      </trkpt>
      <trkpt lat="48.03278" lon="7.01753">
        <ele>1079.8000488281</ele>
        <time>2021-06-04T07:15:20Z</time>
      </trkpt>
      <trkpt lat="48.03278" lon="7.01753">
        <ele>1078.5999755859</ele>
        <time>2021-06-04T07:15:46Z</time>
      </trkpt>
      <trkpt lat="48.03279" lon="7.01753">
        <ele>1075.5999755859</ele>
        <time>2021-06-04T07:15:57Z</time>
      </trkpt>
      <trkpt lat="48.03275" lon="7.0177">
        <ele>1073.4000244141</ele>
        <time>2021-06-04T07:16:17Z</time>
      </trkpt>
      <trkpt lat="48.03267" lon="7.0178">
        <ele>1072</ele>
        <time>2021-06-04T07:16:41Z</time>
      </trkpt>
      <trkpt lat="48.03263" lon="7.01794">
        <ele>1069.5999755859</ele>
        <time>2021-06-04T07:17:01Z</time>
      </trkpt>
      <trkpt lat="48.03265" lon="7.01811">
        <ele>1067.4000244141</ele>
        <time>2021-06-04T07:17:21Z</time>
      </trkpt>
      <trkpt lat="48.03261" lon="7.01818">
        <ele>1064.4000244141</ele>
        <time>2021-06-04T07:17:35Z</time>
      </trkpt>
      <trkpt lat="48.03249" lon="7.01826">
        <ele>1061</ele>
        <time>2021-06-04T07:17:56Z</time>
      </trkpt>
      <trkpt lat="48.03237" lon="7.01827">
        <ele>1059</ele>
        <time>2021-06-04T07:18:14Z</time>
      </trkpt>
      <trkpt lat="48.03232" lon="7.01827">
        <ele>1055.8000488281</ele>
        <time>2021-06-04T07:18:32Z</time>
      </trkpt>
      <trkpt lat="48.03223" lon="7.01836">
        <ele>1055.8000488281</ele>
        <time>2021-06-04T07:18:57Z</time>
      </trkpt>
      <trkpt lat="48.03224" lon="7.01836">
        <ele>1055.8000488281</ele>
        <time>2021-06-04T07:19:20Z</time>
      </trkpt>
      <trkpt lat="48.03225" lon="7.01839">
        <ele>1052.8000488281</ele>
        <time>2021-06-04T07:19:38Z</time>
      </trkpt>
      <trkpt lat="48.03227" lon="7.01842">
        <ele>1049.5999755859</ele>
        <time>2021-06-04T07:19:57Z</time>
      </trkpt>
      <trkpt lat="48.03231" lon="7.01845">
        <ele>1046.5999755859</ele>
        <time>2021-06-04T07:20:12Z</time>
      </trkpt>
      <trkpt lat="48.03237" lon="7.01854">
        <ele>1044.5999755859</ele>
        <time>2021-06-04T07:20:32Z</time>
      </trkpt>
      <trkpt lat="48.03241" lon="7.01867">
        <ele>1041.4000244141</ele>
        <time>2021-06-04T07:21:00Z</time>
      </trkpt>
      <trkpt lat="48.03241" lon="7.01871">
        <ele>1038.1999511719</ele>
        <time>2021-06-04T07:21:12Z</time>
      </trkpt>
      <trkpt lat="48.03242" lon="7.01874">
        <ele>1037.5999755859</ele>
        <time>2021-06-04T07:21:14Z</time>
      </trkpt>
      <trkpt lat="48.03238" lon="7.01887">
        <ele>1038</ele>
        <time>2021-06-04T07:21:37Z</time>
      </trkpt>
      <trkpt lat="48.0323" lon="7.01904">
        <ele>1040</ele>
        <time>2021-06-04T07:21:57Z</time>
      </trkpt>
      <trkpt lat="48.03212" lon="7.01913">
        <ele>1037</ele>
        <time>2021-06-04T07:22:17Z</time>
      </trkpt>
      <trkpt lat="48.03207" lon="7.01918">
        <ele>1034.1999511719</ele>
        <time>2021-06-04T07:22:35Z</time>
      </trkpt>
      <trkpt lat="48.032" lon="7.0193">
        <ele>1033.1999511719</ele>
        <time>2021-06-04T07:22:55Z</time>
      </trkpt>
      <trkpt lat="48.03188" lon="7.01944">
        <ele>1030.5999755859</ele>
        <time>2021-06-04T07:23:17Z</time>
      </trkpt>
      <trkpt lat="48.03176" lon="7.01958">
        <ele>1029.5999755859</ele>
        <time>2021-06-04T07:23:35Z</time>
      </trkpt>
      <trkpt lat="48.03179" lon="7.01982">
        <ele>1029.1999511719</ele>
        <time>2021-06-04T07:23:57Z</time>
      </trkpt>
      <trkpt lat="48.03169" lon="7.02014">
        <ele>1032.1999511719</ele>
        <time>2021-06-04T07:24:18Z</time>
      </trkpt>
      <trkpt lat="48.03154" lon="7.0203">
        <ele>1034.8000488281</ele>
        <time>2021-06-04T07:24:36Z</time>
      </trkpt>
      <trkpt lat="48.0314" lon="7.02038">
        <ele>1034</ele>
        <time>2021-06-04T07:24:51Z</time>
      </trkpt>
      <trkpt lat="48.03119" lon="7.02053">
        <ele>1031.4000244141</ele>
        <time>2021-06-04T07:25:12Z</time>
      </trkpt>
      <trkpt lat="48.03102" lon="7.02067">
        <ele>1028.5999755859</ele>
        <time>2021-06-04T07:25:31Z</time>
      </trkpt>
      <trkpt lat="48.03084" lon="7.02073">
        <ele>1027</ele>
        <time>2021-06-04T07:25:47Z</time>
      </trkpt>
      <trkpt lat="48.0306" lon="7.02083">
        <ele>1024.8000488281</ele>
        <time>2021-06-04T07:26:09Z</time>
      </trkpt>
      <trkpt lat="48.03052" lon="7.02091">
        <ele>1022.4000244141</ele>
        <time>2021-06-04T07:26:28Z</time>
      </trkpt>
      <trkpt lat="48.03045" lon="7.02102">
        <ele>1019.4000244141</ele>
        <time>2021-06-04T07:26:45Z</time>
      </trkpt>
      <trkpt lat="48.03032" lon="7.02111">
        <ele>1017.200012207</ele>
        <time>2021-06-04T07:27:00Z</time>
      </trkpt>
      <trkpt lat="48.03029" lon="7.02114">
        <ele>1014</ele>
        <time>2021-06-04T07:27:16Z</time>
      </trkpt>
      <trkpt lat="48.03015" lon="7.02114">
        <ele>1012</ele>
        <time>2021-06-04T07:27:34Z</time>
      </trkpt>
      <trkpt lat="48.0302" lon="7.02112">
        <ele>1009.200012207</ele>
        <time>2021-06-04T07:27:57Z</time>
      </trkpt>
      <trkpt lat="48.03023" lon="7.02134">
        <ele>1006.4000244141</ele>
        <time>2021-06-04T07:28:13Z</time>
      </trkpt>
      <trkpt lat="48.03022" lon="7.02148">
        <ele>1003.4000244141</ele>
        <time>2021-06-04T07:28:32Z</time>
      </trkpt>
      <trkpt lat="48.03015" lon="7.02157">
        <ele>1000.200012207</ele>
        <time>2021-06-04T07:28:52Z</time>
      </trkpt>
      <trkpt lat="48.02993" lon="7.02185">
        <ele>997.40002441406</ele>
        <time>2021-06-04T07:29:11Z</time>
      </trkpt>
      <trkpt lat="48.02988" lon="7.02188">
        <ele>997.20001220703</ele>
        <time>2021-06-04T07:29:13Z</time>
      </trkpt>
      <trkpt lat="48.02978" lon="7.02189">
        <ele>994.40002441406</ele>
        <time>2021-06-04T07:29:31Z</time>
      </trkpt>
      <trkpt lat="48.0296" lon="7.02194">
        <ele>991.79998779297</ele>
        <time>2021-06-04T07:29:51Z</time>
      </trkpt>
      <trkpt lat="48.02957" lon="7.02192">
        <ele>988.79998779297</ele>
        <time>2021-06-04T07:30:09Z</time>
      </trkpt>
      <trkpt lat="48.02944" lon="7.02209">
        <ele>986.79998779297</ele>
        <time>2021-06-04T07:30:27Z</time>
      </trkpt>
      <trkpt lat="48.02944" lon="7.02211">
        <ele>986.40002441406</ele>
        <time>2021-06-04T07:30:28Z</time>
      </trkpt>
      <trkpt lat="48.02934" lon="7.02228">
        <ele>984.40002441406</ele>
        <time>2021-06-04T07:30:43Z</time>
      </trkpt>
      <trkpt lat="48.02921" lon="7.02236">
        <ele>981.59997558594</ele>
        <time>2021-06-04T07:30:57Z</time>
      </trkpt>
      <trkpt lat="48.02906" lon="7.02246">
        <ele>978.40002441406</ele>
        <time>2021-06-04T07:31:12Z</time>
      </trkpt>
      <trkpt lat="48.029" lon="7.02248">
        <ele>975.40002441406</ele>
        <time>2021-06-04T07:31:27Z</time>
      </trkpt>
      <trkpt lat="48.02878" lon="7.02257">
        <ele>972.20001220703</ele>
        <time>2021-06-04T07:31:41Z</time>
      </trkpt>
      <trkpt lat="48.02869" lon="7.02257">
        <ele>971.20001220703</ele>
        <time>2021-06-04T07:31:45Z</time>
      </trkpt>
      <trkpt lat="48.02869" lon="7.02259">
        <ele>971</ele>
        <time>2021-06-04T07:31:46Z</time>
      </trkpt>
      <trkpt lat="48.02863" lon="7.02262">
        <ele>969.40002441406</ele>
        <time>2021-06-04T07:32:02Z</time>
      </trkpt>
      <trkpt lat="48.02848" lon="7.02272">
        <ele>966.20001220703</ele>
        <time>2021-06-04T07:32:21Z</time>
      </trkpt>
      <trkpt lat="48.02835" lon="7.02268">
        <ele>964.20001220703</ele>
        <time>2021-06-04T07:32:39Z</time>
      </trkpt>
      <trkpt lat="48.02835" lon="7.02274">
        <ele>963</ele>
        <time>2021-06-04T07:32:49Z</time>
      </trkpt>
      <trkpt lat="48.02829" lon="7.02311">
        <ele>961.79998779297</ele>
        <time>2021-06-04T07:33:09Z</time>
      </trkpt>
      <trkpt lat="48.02821" lon="7.02325">
        <ele>959.59997558594</ele>
        <time>2021-06-04T07:33:23Z</time>
      </trkpt>
      <trkpt lat="48.02814" lon="7.02332">
        <ele>957.59997558594</ele>
        <time>2021-06-04T07:33:37Z</time>
      </trkpt>
      <trkpt lat="48.02806" lon="7.02342">
        <ele>955.79998779297</ele>
        <time>2021-06-04T07:33:47Z</time>
      </trkpt>
      <trkpt lat="48.02805" lon="7.02347">
        <ele>952.79998779297</ele>
        <time>2021-06-04T07:34:03Z</time>
      </trkpt>
      <trkpt lat="48.02798" lon="7.02349">
        <ele>949.79998779297</ele>
        <time>2021-06-04T07:34:21Z</time>
      </trkpt>
      <trkpt lat="48.02796" lon="7.02348">
        <ele>949.59997558594</ele>
        <time>2021-06-04T07:34:23Z</time>
      </trkpt>
      <trkpt lat="48.02781" lon="7.02363">
        <ele>946.79998779297</ele>
        <time>2021-06-04T07:34:43Z</time>
      </trkpt>
      <trkpt lat="48.0278" lon="7.02389">
        <ele>944.40002441406</ele>
        <time>2021-06-04T07:35:01Z</time>
      </trkpt>
      <trkpt lat="48.02797" lon="7.02411">
        <ele>942.79998779297</ele>
        <time>2021-06-04T07:35:19Z</time>
      </trkpt>
      <trkpt lat="48.02822" lon="7.02424">
        <ele>940.79998779297</ele>
        <time>2021-06-04T07:35:38Z</time>
      </trkpt>
      <trkpt lat="48.02837" lon="7.0243">
        <ele>940</ele>
        <time>2021-06-04T07:35:50Z</time>
      </trkpt>
      <trkpt lat="48.02854" lon="7.0245">
        <ele>939</ele>
        <time>2021-06-04T07:36:07Z</time>
      </trkpt>
      <trkpt lat="48.02865" lon="7.02467">
        <ele>937.59997558594</ele>
        <time>2021-06-04T07:36:27Z</time>
      </trkpt>
      <trkpt lat="48.02863" lon="7.02517">
        <ele>935</ele>
        <time>2021-06-04T07:36:50Z</time>
      </trkpt>
      <trkpt lat="48.02857" lon="7.02529">
        <ele>934.79998779297</ele>
        <time>2021-06-04T07:37:08Z</time>
      </trkpt>
      <trkpt lat="48.02858" lon="7.02533">
        <ele>934.79998779297</ele>
        <time>2021-06-04T07:37:30Z</time>
      </trkpt>
      <trkpt lat="48.02851" lon="7.02541">
        <ele>934.59997558594</ele>
        <time>2021-06-04T07:38:00Z</time>
      </trkpt>
      <trkpt lat="48.02862" lon="7.02542">
        <ele>934.59997558594</ele>
        <time>2021-06-04T07:38:32Z</time>
      </trkpt>
      <trkpt lat="48.0286" lon="7.02544">
        <ele>934.59997558594</ele>
        <time>2021-06-04T07:38:57Z</time>
      </trkpt>
      <trkpt lat="48.0286" lon="7.02547">
        <ele>934.20001220703</ele>
        <time>2021-06-04T07:39:10Z</time>
      </trkpt>
      <trkpt lat="48.02858" lon="7.02542">
        <ele>934.40002441406</ele>
        <time>2021-06-04T07:39:23Z</time>
      </trkpt>
      <trkpt lat="48.02855" lon="7.02532">
        <ele>934.40002441406</ele>
        <time>2021-06-04T07:39:40Z</time>
      </trkpt>
      <trkpt lat="48.02851" lon="7.02528">
        <ele>934.40002441406</ele>
        <time>2021-06-04T07:40:06Z</time>
      </trkpt>
      <trkpt lat="48.02844" lon="7.02525">
        <ele>934.40002441406</ele>
        <time>2021-06-04T07:40:26Z</time>
      </trkpt>
      <trkpt lat="48.02842" lon="7.02522">
        <ele>933.59997558594</ele>
        <time>2021-06-04T07:41:04Z</time>
      </trkpt>
      <trkpt lat="48.0284" lon="7.02526">
        <ele>933.79998779297</ele>
        <time>2021-06-04T07:41:14Z</time>
      </trkpt>
      <trkpt lat="48.02845" lon="7.02527">
        <ele>933.59997558594</ele>
        <time>2021-06-04T07:41:43Z</time>
      </trkpt>
      <trkpt lat="48.02838" lon="7.02533">
        <ele>933.79998779297</ele>
        <time>2021-06-04T07:42:06Z</time>
      </trkpt>
      <trkpt lat="48.02835" lon="7.02534">
        <ele>933.79998779297</ele>
        <time>2021-06-04T07:42:27Z</time>
      </trkpt>
      <trkpt lat="48.02843" lon="7.02528">
        <ele>933.40002441406</ele>
        <time>2021-06-04T07:42:59Z</time>
      </trkpt>
      <trkpt lat="48.02847" lon="7.0253">
        <ele>933.40002441406</ele>
        <time>2021-06-04T07:43:20Z</time>
      </trkpt>
      <trkpt lat="48.02849" lon="7.02532">
        <ele>933.40002441406</ele>
        <time>2021-06-04T07:43:42Z</time>
      </trkpt>
      <trkpt lat="48.02853" lon="7.02537">
        <ele>933.40002441406</ele>
        <time>2021-06-04T07:44:03Z</time>
      </trkpt>
      <trkpt lat="48.02845" lon="7.02543">
        <ele>933.40002441406</ele>
        <time>2021-06-04T07:44:19Z</time>
      </trkpt>
      <trkpt lat="48.02843" lon="7.02557">
        <ele>933.40002441406</ele>
        <time>2021-06-04T07:44:36Z</time>
      </trkpt>
      <trkpt lat="48.02841" lon="7.0256">
        <ele>931</ele>
        <time>2021-06-04T07:44:38Z</time>
      </trkpt>
      <trkpt lat="48.02835" lon="7.02587">
        <ele>928.59997558594</ele>
        <time>2021-06-04T07:44:59Z</time>
      </trkpt>
      <trkpt lat="48.02827" lon="7.0261">
        <ele>925.59997558594</ele>
        <time>2021-06-04T07:45:15Z</time>
      </trkpt>
      <trkpt lat="48.02817" lon="7.02623">
        <ele>923.79998779297</ele>
        <time>2021-06-04T07:45:29Z</time>
      </trkpt>
      <trkpt lat="48.0281" lon="7.02634">
        <ele>922.40002441406</ele>
        <time>2021-06-04T07:45:41Z</time>
      </trkpt>
      <trkpt lat="48.02813" lon="7.02631">
        <ele>920.79998779297</ele>
        <time>2021-06-04T07:45:57Z</time>
      </trkpt>
      <trkpt lat="48.02818" lon="7.02629">
        <ele>919.59997558594</ele>
        <time>2021-06-04T07:46:09Z</time>
      </trkpt>
      <trkpt lat="48.02824" lon="7.02632">
        <ele>916.40002441406</ele>
        <time>2021-06-04T07:46:24Z</time>
      </trkpt>
      <trkpt lat="48.02827" lon="7.02648">
        <ele>914.59997558594</ele>
        <time>2021-06-04T07:46:37Z</time>
      </trkpt>
      <trkpt lat="48.02823" lon="7.02658">
        <ele>913.20001220703</ele>
        <time>2021-06-04T07:46:49Z</time>
      </trkpt>
      <trkpt lat="48.02819" lon="7.02667">
        <ele>911.40002441406</ele>
        <time>2021-06-04T07:47:02Z</time>
      </trkpt>
      <trkpt lat="48.0281" lon="7.02672">
        <ele>909.59997558594</ele>
        <time>2021-06-04T07:47:14Z</time>
      </trkpt>
      <trkpt lat="48.02798" lon="7.02684">
        <ele>908.20001220703</ele>
        <time>2021-06-04T07:47:28Z</time>
      </trkpt>
      <trkpt lat="48.02783" lon="7.02698">
        <ele>906.79998779297</ele>
        <time>2021-06-04T07:47:43Z</time>
      </trkpt>
      <trkpt lat="48.02763" lon="7.02697">
        <ele>905</ele>
        <time>2021-06-04T07:47:58Z</time>
      </trkpt>
      <trkpt lat="48.02742" lon="7.027">
        <ele>902</ele>
        <time>2021-06-04T07:48:17Z</time>
      </trkpt>
      <trkpt lat="48.02729" lon="7.027">
        <ele>900.79998779297</ele>
        <time>2021-06-04T07:48:30Z</time>
      </trkpt>
      <trkpt lat="48.02712" lon="7.02695">
        <ele>897.79998779297</ele>
        <time>2021-06-04T07:48:48Z</time>
      </trkpt>
      <trkpt lat="48.02701" lon="7.02699">
        <ele>896.20001220703</ele>
        <time>2021-06-04T07:49:02Z</time>
      </trkpt>
      <trkpt lat="48.02676" lon="7.02693">
        <ele>894.40002441406</ele>
        <time>2021-06-04T07:49:15Z</time>
      </trkpt>
      <trkpt lat="48.0266" lon="7.02689">
        <ele>892.40002441406</ele>
        <time>2021-06-04T07:49:31Z</time>
      </trkpt>
      <trkpt lat="48.02656" lon="7.02687">
        <ele>890.59997558594</ele>
        <time>2021-06-04T07:49:45Z</time>
      </trkpt>
      <trkpt lat="48.02637" lon="7.02681">
        <ele>890</ele>
        <time>2021-06-04T07:49:52Z</time>
      </trkpt>
      <trkpt lat="48.02632" lon="7.0268">
        <ele>890</ele>
        <time>2021-06-04T07:49:55Z</time>
      </trkpt>
      <trkpt lat="48.0263" lon="7.0268">
        <ele>890</ele>
        <time>2021-06-04T07:49:56Z</time>
      </trkpt>
      <trkpt lat="48.02628" lon="7.02679">
        <ele>889.79998779297</ele>
        <time>2021-06-04T07:49:57Z</time>
      </trkpt>
      <trkpt lat="48.02625" lon="7.02679">
        <ele>889.79998779297</ele>
        <time>2021-06-04T07:49:58Z</time>
      </trkpt>
      <trkpt lat="48.02623" lon="7.02679">
        <ele>889.79998779297</ele>
        <time>2021-06-04T07:49:59Z</time>
      </trkpt>
      <trkpt lat="48.02617" lon="7.02671">
        <ele>889.79998779297</ele>
        <time>2021-06-04T07:50:12Z</time>
      </trkpt>
      <trkpt lat="48.02618" lon="7.02669">
        <ele>887.40002441406</ele>
        <time>2021-06-04T07:50:30Z</time>
      </trkpt>
      <trkpt lat="48.02613" lon="7.0267">
        <ele>886.59997558594</ele>
        <time>2021-06-04T07:50:38Z</time>
      </trkpt>
      <trkpt lat="48.02593" lon="7.02673">
        <ele>884.20001220703</ele>
        <time>2021-06-04T07:50:55Z</time>
      </trkpt>
      <trkpt lat="48.02578" lon="7.02674">
        <ele>882.20001220703</ele>
        <time>2021-06-04T07:51:08Z</time>
      </trkpt>
      <trkpt lat="48.02557" lon="7.02673">
        <ele>880.79998779297</ele>
        <time>2021-06-04T07:51:18Z</time>
      </trkpt>
      <trkpt lat="48.02546" lon="7.02671">
        <ele>879.40002441406</ele>
        <time>2021-06-04T07:51:24Z</time>
      </trkpt>
      <trkpt lat="48.02533" lon="7.02665">
        <ele>877</ele>
        <time>2021-06-04T07:51:38Z</time>
      </trkpt>
      <trkpt lat="48.02529" lon="7.02662">
        <ele>876.59997558594</ele>
        <time>2021-06-04T07:51:41Z</time>
      </trkpt>
      <trkpt lat="48.02524" lon="7.02658">
        <ele>876</ele>
        <time>2021-06-04T07:51:45Z</time>
      </trkpt>
      <trkpt lat="48.02521" lon="7.02656">
        <ele>875.59997558594</ele>
        <time>2021-06-04T07:51:48Z</time>
      </trkpt>
      <trkpt lat="48.02519" lon="7.02653">
        <ele>875</ele>
        <time>2021-06-04T07:51:50Z</time>
      </trkpt>
      <trkpt lat="48.02507" lon="7.02648">
        <ele>873.20001220703</ele>
        <time>2021-06-04T07:52:03Z</time>
      </trkpt>
      <trkpt lat="48.02495" lon="7.0264">
        <ele>872.20001220703</ele>
        <time>2021-06-04T07:52:17Z</time>
      </trkpt>
      <trkpt lat="48.02483" lon="7.02612">
        <ele>869.20001220703</ele>
        <time>2021-06-04T07:52:38Z</time>
      </trkpt>
      <trkpt lat="48.02482" lon="7.02594">
        <ele>866</ele>
        <time>2021-06-04T07:52:54Z</time>
      </trkpt>
      <trkpt lat="48.02485" lon="7.02596">
        <ele>865</ele>
        <time>2021-06-04T07:53:00Z</time>
      </trkpt>
      <trkpt lat="48.02486" lon="7.026">
        <ele>863.79998779297</ele>
        <time>2021-06-04T07:53:11Z</time>
      </trkpt>
      <trkpt lat="48.0248" lon="7.02597">
        <ele>861.79998779297</ele>
        <time>2021-06-04T07:53:26Z</time>
      </trkpt>
      <trkpt lat="48.02476" lon="7.0259">
        <ele>860.20001220703</ele>
        <time>2021-06-04T07:53:36Z</time>
      </trkpt>
      <trkpt lat="48.02476" lon="7.02571">
        <ele>858.20001220703</ele>
        <time>2021-06-04T07:53:54Z</time>
      </trkpt>
      <trkpt lat="48.02479" lon="7.02558">
        <ele>857.59997558594</ele>
        <time>2021-06-04T07:54:05Z</time>
      </trkpt>
      <trkpt lat="48.02481" lon="7.02557">
        <ele>854.79998779297</ele>
        <time>2021-06-04T07:54:25Z</time>
      </trkpt>
      <trkpt lat="48.02481" lon="7.02561">
        <ele>852.20001220703</ele>
        <time>2021-06-04T07:54:41Z</time>
      </trkpt>
      <trkpt lat="48.02471" lon="7.02581">
        <ele>849</ele>
        <time>2021-06-04T07:54:56Z</time>
      </trkpt>
      <trkpt lat="48.02471" lon="7.02589">
        <ele>846.20001220703</ele>
        <time>2021-06-04T07:55:14Z</time>
      </trkpt>
      <trkpt lat="48.02461" lon="7.02589">
        <ele>845</ele>
        <time>2021-06-04T07:55:36Z</time>
      </trkpt>
      <trkpt lat="48.02458" lon="7.02578">
        <ele>842</ele>
        <time>2021-06-04T07:55:54Z</time>
      </trkpt>
      <trkpt lat="48.02454" lon="7.02582">
        <ele>839</ele>
        <time>2021-06-04T07:56:09Z</time>
      </trkpt>
      <trkpt lat="48.02451" lon="7.02599">
        <ele>836.79998779297</ele>
        <time>2021-06-04T07:56:23Z</time>
      </trkpt>
      <trkpt lat="48.0245" lon="7.02609">
        <ele>833.59997558594</ele>
        <time>2021-06-04T07:56:40Z</time>
      </trkpt>
      <trkpt lat="48.02444" lon="7.02623">
        <ele>831.20001220703</ele>
        <time>2021-06-04T07:57:01Z</time>
      </trkpt>
      <trkpt lat="48.02438" lon="7.02624">
        <ele>828.79998779297</ele>
        <time>2021-06-04T07:57:19Z</time>
      </trkpt>
      <trkpt lat="48.02433" lon="7.02615">
        <ele>827.20001220703</ele>
        <time>2021-06-04T07:57:33Z</time>
      </trkpt>
      <trkpt lat="48.0243" lon="7.02609">
        <ele>827</ele>
        <time>2021-06-04T07:58:01Z</time>
      </trkpt>
      <trkpt lat="48.02434" lon="7.02609">
        <ele>827</ele>
        <time>2021-06-04T07:58:43Z</time>
      </trkpt>
      <trkpt lat="48.02435" lon="7.02602">
        <ele>826.79998779297</ele>
        <time>2021-06-04T07:59:05Z</time>
      </trkpt>
      <trkpt lat="48.0243" lon="7.02588">
        <ele>826.79998779297</ele>
        <time>2021-06-04T07:59:17Z</time>
      </trkpt>
      <trkpt lat="48.0243" lon="7.02564">
        <ele>826.40002441406</ele>
        <time>2021-06-04T07:59:33Z</time>
      </trkpt>
      <trkpt lat="48.02427" lon="7.02561">
        <ele>823.40002441406</ele>
        <time>2021-06-04T07:59:37Z</time>
      </trkpt>
      <trkpt lat="48.0242" lon="7.02552">
        <ele>821.20001220703</ele>
        <time>2021-06-04T07:59:51Z</time>
      </trkpt>
      <trkpt lat="48.02414" lon="7.02542">
        <ele>819.59997558594</ele>
        <time>2021-06-04T08:00:03Z</time>
      </trkpt>
      <trkpt lat="48.02413" lon="7.02541">
        <ele>816.40002441406</ele>
        <time>2021-06-04T08:00:21Z</time>
      </trkpt>
      <trkpt lat="48.02406" lon="7.02536">
        <ele>814</ele>
        <time>2021-06-04T08:00:33Z</time>
      </trkpt>
      <trkpt lat="48.02398" lon="7.02529">
        <ele>812.79998779297</ele>
        <time>2021-06-04T08:00:43Z</time>
      </trkpt>
      <trkpt lat="48.02392" lon="7.02522">
        <ele>812.20001220703</ele>
        <time>2021-06-04T08:00:54Z</time>
      </trkpt>
      <trkpt lat="48.0239" lon="7.02506">
        <ele>811.79998779297</ele>
        <time>2021-06-04T08:01:11Z</time>
      </trkpt>
      <trkpt lat="48.02385" lon="7.02487">
        <ele>809</ele>
        <time>2021-06-04T08:01:30Z</time>
      </trkpt>
      <trkpt lat="48.02376" lon="7.0247">
        <ele>807.59997558594</ele>
        <time>2021-06-04T08:01:43Z</time>
      </trkpt>
      <trkpt lat="48.02371" lon="7.02452">
        <ele>805</ele>
        <time>2021-06-04T08:02:00Z</time>
      </trkpt>
      <trkpt lat="48.02361" lon="7.02435">
        <ele>804.20001220703</ele>
        <time>2021-06-04T08:02:11Z</time>
      </trkpt>
      <trkpt lat="48.0236" lon="7.02433">
        <ele>804.20001220703</ele>
        <time>2021-06-04T08:02:12Z</time>
      </trkpt>
      <trkpt lat="48.02358" lon="7.0243">
        <ele>804.20001220703</ele>
        <time>2021-06-04T08:02:14Z</time>
      </trkpt>
      <trkpt lat="48.02351" lon="7.02413">
        <ele>803.59997558594</ele>
        <time>2021-06-04T08:02:25Z</time>
      </trkpt>
      <trkpt lat="48.02353" lon="7.02399">
        <ele>803</ele>
        <time>2021-06-04T08:02:42Z</time>
      </trkpt>
      <trkpt lat="48.02358" lon="7.02384">
        <ele>802.79998779297</ele>
        <time>2021-06-04T08:03:06Z</time>
      </trkpt>
      <trkpt lat="48.02356" lon="7.02384">
        <ele>802.79998779297</ele>
        <time>2021-06-04T08:03:36Z</time>
      </trkpt>
      <trkpt lat="48.02369" lon="7.02389">
        <ele>802.79998779297</ele>
        <time>2021-06-04T08:04:04Z</time>
      </trkpt>
      <trkpt lat="48.02371" lon="7.02383">
        <ele>802.79998779297</ele>
        <time>2021-06-04T08:04:28Z</time>
      </trkpt>
      <trkpt lat="48.02364" lon="7.02382">
        <ele>802.40002441406</ele>
        <time>2021-06-04T08:04:44Z</time>
      </trkpt>
      <trkpt lat="48.02362" lon="7.0239">
        <ele>802.59997558594</ele>
        <time>2021-06-04T08:05:01Z</time>
      </trkpt>
      <trkpt lat="48.02344" lon="7.0238">
        <ele>802.59997558594</ele>
        <time>2021-06-04T08:05:20Z</time>
      </trkpt>
      <trkpt lat="48.02337" lon="7.02377">
        <ele>802.59997558594</ele>
        <time>2021-06-04T08:05:39Z</time>
      </trkpt>
      <trkpt lat="48.02335" lon="7.02378">
        <ele>802.59997558594</ele>
        <time>2021-06-04T08:06:09Z</time>
      </trkpt>
      <trkpt lat="48.02333" lon="7.02374">
        <ele>802.59997558594</ele>
        <time>2021-06-04T08:06:30Z</time>
      </trkpt>
      <trkpt lat="48.02326" lon="7.02371">
        <ele>803.59997558594</ele>
        <time>2021-06-04T08:06:46Z</time>
      </trkpt>
      <trkpt lat="48.02316" lon="7.02358">
        <ele>802.40002441406</ele>
        <time>2021-06-04T08:07:02Z</time>
      </trkpt>
      <trkpt lat="48.02309" lon="7.02354">
        <ele>802.40002441406</ele>
        <time>2021-06-04T08:07:22Z</time>
      </trkpt>
      <trkpt lat="48.02308" lon="7.02359">
        <ele>802.20001220703</ele>
        <time>2021-06-04T08:07:48Z</time>
      </trkpt>
      <trkpt lat="48.02308" lon="7.02356">
        <ele>802</ele>
        <time>2021-06-04T08:08:13Z</time>
      </trkpt>
      <trkpt lat="48.02307" lon="7.02352">
        <ele>802.79998779297</ele>
        <time>2021-06-04T08:08:37Z</time>
      </trkpt>
      <trkpt lat="48.02303" lon="7.02352">
        <ele>802.59997558594</ele>
        <time>2021-06-04T08:08:49Z</time>
      </trkpt>
      <trkpt lat="48.02305" lon="7.02356">
        <ele>802.20001220703</ele>
        <time>2021-06-04T08:09:09Z</time>
      </trkpt>
      <trkpt lat="48.023" lon="7.0237">
        <ele>800.20001220703</ele>
        <time>2021-06-04T08:09:27Z</time>
      </trkpt>
      <trkpt lat="48.02293" lon="7.02387">
        <ele>797.59997558594</ele>
        <time>2021-06-04T08:09:48Z</time>
      </trkpt>
      <trkpt lat="48.02288" lon="7.02396">
        <ele>796</ele>
        <time>2021-06-04T08:10:04Z</time>
      </trkpt>
      <trkpt lat="48.0227" lon="7.02407">
        <ele>796.20001220703</ele>
        <time>2021-06-04T08:10:21Z</time>
      </trkpt>
      <trkpt lat="48.02265" lon="7.02417">
        <ele>796.79998779297</ele>
        <time>2021-06-04T08:10:42Z</time>
      </trkpt>
      <trkpt lat="48.02249" lon="7.02433">
        <ele>798</ele>
        <time>2021-06-04T08:11:03Z</time>
      </trkpt>
      <trkpt lat="48.02248" lon="7.02437">
        <ele>798.20001220703</ele>
        <time>2021-06-04T08:11:06Z</time>
      </trkpt>
      <trkpt lat="48.02246" lon="7.02439">
        <ele>798.40002441406</ele>
        <time>2021-06-04T08:11:07Z</time>
      </trkpt>
      <trkpt lat="48.02228" lon="7.02457">
        <ele>799.59997558594</ele>
        <time>2021-06-04T08:11:25Z</time>
      </trkpt>
      <trkpt lat="48.02215" lon="7.02459">
        <ele>800.20001220703</ele>
        <time>2021-06-04T08:11:35Z</time>
      </trkpt>
      <trkpt lat="48.02211" lon="7.02459">
        <ele>801</ele>
        <time>2021-06-04T08:11:49Z</time>
      </trkpt>
      <trkpt lat="48.02208" lon="7.02467">
        <ele>800.59997558594</ele>
        <time>2021-06-04T08:12:14Z</time>
      </trkpt>
      <trkpt lat="48.02198" lon="7.02467">
        <ele>801</ele>
        <time>2021-06-04T08:12:45Z</time>
      </trkpt>
      <trkpt lat="48.02187" lon="7.02472">
        <ele>800.79998779297</ele>
        <time>2021-06-04T08:13:29Z</time>
      </trkpt>
      <trkpt lat="48.02196" lon="7.02468">
        <ele>800.79998779297</ele>
        <time>2021-06-04T08:13:41Z</time>
      </trkpt>
      <trkpt lat="48.02208" lon="7.02482">
        <ele>800.79998779297</ele>
        <time>2021-06-04T08:14:03Z</time>
      </trkpt>
      <trkpt lat="48.02211" lon="7.02468">
        <ele>800.59997558594</ele>
        <time>2021-06-04T08:14:33Z</time>
      </trkpt>
      <trkpt lat="48.02207" lon="7.02475">
        <ele>800.59997558594</ele>
        <time>2021-06-04T08:14:59Z</time>
      </trkpt>
      <trkpt lat="48.02198" lon="7.02474">
        <ele>803</ele>
        <time>2021-06-04T08:15:23Z</time>
      </trkpt>
      <trkpt lat="48.02188" lon="7.02467">
        <ele>805</ele>
        <time>2021-06-04T08:15:34Z</time>
      </trkpt>
      <trkpt lat="48.02178" lon="7.02463">
        <ele>806.79998779297</ele>
        <time>2021-06-04T08:15:49Z</time>
      </trkpt>
      <trkpt lat="48.02171" lon="7.02464">
        <ele>809</ele>
        <time>2021-06-04T08:16:08Z</time>
      </trkpt>
      <trkpt lat="48.02156" lon="7.02465">
        <ele>810.79998779297</ele>
        <time>2021-06-04T08:16:22Z</time>
      </trkpt>
      <trkpt lat="48.02154" lon="7.02464">
        <ele>811</ele>
        <time>2021-06-04T08:16:24Z</time>
      </trkpt>
      <trkpt lat="48.02149" lon="7.02464">
        <ele>812.59997558594</ele>
        <time>2021-06-04T08:16:34Z</time>
      </trkpt>
      <trkpt lat="48.02149" lon="7.02468">
        <ele>814.59997558594</ele>
        <time>2021-06-04T08:16:53Z</time>
      </trkpt>
      <trkpt lat="48.0215" lon="7.02479">
        <ele>816.79998779297</ele>
        <time>2021-06-04T08:17:11Z</time>
      </trkpt>
      <trkpt lat="48.02143" lon="7.02491">
        <ele>818.79998779297</ele>
        <time>2021-06-04T08:17:29Z</time>
      </trkpt>
      <trkpt lat="48.02137" lon="7.02491">
        <ele>821.40002441406</ele>
        <time>2021-06-04T08:17:48Z</time>
      </trkpt>
      <trkpt lat="48.02127" lon="7.0247">
        <ele>823.79998779297</ele>
        <time>2021-06-04T08:18:10Z</time>
      </trkpt>
      <trkpt lat="48.02124" lon="7.02466">
        <ele>826.20001220703</ele>
        <time>2021-06-04T08:18:28Z</time>
      </trkpt>
      <trkpt lat="48.02124" lon="7.0246">
        <ele>828</ele>
        <time>2021-06-04T08:18:44Z</time>
      </trkpt>
      <trkpt lat="48.02127" lon="7.02448">
        <ele>830.40002441406</ele>
        <time>2021-06-04T08:19:00Z</time>
      </trkpt>
      <trkpt lat="48.02119" lon="7.0245">
        <ele>832.40002441406</ele>
        <time>2021-06-04T08:19:18Z</time>
      </trkpt>
      <trkpt lat="48.0212" lon="7.02446">
        <ele>834.59997558594</ele>
        <time>2021-06-04T08:19:37Z</time>
      </trkpt>
      <trkpt lat="48.02113" lon="7.02446">
        <ele>836.59997558594</ele>
        <time>2021-06-04T08:19:55Z</time>
      </trkpt>
      <trkpt lat="48.02095" lon="7.02451">
        <ele>837.40002441406</ele>
        <time>2021-06-04T08:20:10Z</time>
      </trkpt>
      <trkpt lat="48.02086" lon="7.02454">
        <ele>838.79998779297</ele>
        <time>2021-06-04T08:20:24Z</time>
      </trkpt>
      <trkpt lat="48.0207" lon="7.0246">
        <ele>840.40002441406</ele>
        <time>2021-06-04T08:20:40Z</time>
      </trkpt>
      <trkpt lat="48.02065" lon="7.02474">
        <ele>842.40002441406</ele>
        <time>2021-06-04T08:21:01Z</time>
      </trkpt>
      <trkpt lat="48.02065" lon="7.02471">
        <ele>844</ele>
        <time>2021-06-04T08:21:14Z</time>
      </trkpt>
      <trkpt lat="48.02057" lon="7.02467">
        <ele>846.59997558594</ele>
        <time>2021-06-04T08:21:34Z</time>
      </trkpt>
      <trkpt lat="48.02047" lon="7.02469">
        <ele>848.59997558594</ele>
        <time>2021-06-04T08:21:54Z</time>
      </trkpt>
      <trkpt lat="48.02033" lon="7.02476">
        <ele>850.20001220703</ele>
        <time>2021-06-04T08:22:08Z</time>
      </trkpt>
      <trkpt lat="48.0202" lon="7.02487">
        <ele>852.59997558594</ele>
        <time>2021-06-04T08:22:29Z</time>
      </trkpt>
      <trkpt lat="48.02017" lon="7.02495">
        <ele>855.79998779297</ele>
        <time>2021-06-04T08:22:48Z</time>
      </trkpt>
      <trkpt lat="48.01998" lon="7.02505">
        <ele>857.59997558594</ele>
        <time>2021-06-04T08:23:06Z</time>
      </trkpt>
      <trkpt lat="48.01997" lon="7.02505">
        <ele>859.40002441406</ele>
        <time>2021-06-04T08:23:19Z</time>
      </trkpt>
      <trkpt lat="48.01988" lon="7.02506">
        <ele>861.40002441406</ele>
        <time>2021-06-04T08:23:37Z</time>
      </trkpt>
      <trkpt lat="48.01973" lon="7.02506">
        <ele>864.59997558594</ele>
        <time>2021-06-04T08:23:58Z</time>
      </trkpt>
      <trkpt lat="48.01956" lon="7.02507">
        <ele>867.40002441406</ele>
        <time>2021-06-04T08:24:19Z</time>
      </trkpt>
      <trkpt lat="48.01957" lon="7.02501">
        <ele>870</ele>
        <time>2021-06-04T08:24:39Z</time>
      </trkpt>
      <trkpt lat="48.01961" lon="7.02488">
        <ele>872.59997558594</ele>
        <time>2021-06-04T08:25:00Z</time>
      </trkpt>
      <trkpt lat="48.01982" lon="7.02474">
        <ele>874.59997558594</ele>
        <time>2021-06-04T08:25:18Z</time>
      </trkpt>
      <trkpt lat="48.01981" lon="7.02465">
        <ele>876.59997558594</ele>
        <time>2021-06-04T08:25:33Z</time>
      </trkpt>
      <trkpt lat="48.01976" lon="7.02463">
        <ele>879.20001220703</ele>
        <time>2021-06-04T08:25:50Z</time>
      </trkpt>
      <trkpt lat="48.01965" lon="7.02473">
        <ele>881</ele>
        <time>2021-06-04T08:26:08Z</time>
      </trkpt>
      <trkpt lat="48.01963" lon="7.0246">
        <ele>883.40002441406</ele>
        <time>2021-06-04T08:26:24Z</time>
      </trkpt>
      <trkpt lat="48.01959" lon="7.0245">
        <ele>885.59997558594</ele>
        <time>2021-06-04T08:26:41Z</time>
      </trkpt>
      <trkpt lat="48.0196" lon="7.02445">
        <ele>888.59997558594</ele>
        <time>2021-06-04T08:26:59Z</time>
      </trkpt>
      <trkpt lat="48.01951" lon="7.02442">
        <ele>890.59997558594</ele>
        <time>2021-06-04T08:27:17Z</time>
      </trkpt>
      <trkpt lat="48.01942" lon="7.02447">
        <ele>892.59997558594</ele>
        <time>2021-06-04T08:27:32Z</time>
      </trkpt>
      <trkpt lat="48.01934" lon="7.02445">
        <ele>894.79998779297</ele>
        <time>2021-06-04T08:27:49Z</time>
      </trkpt>
      <trkpt lat="48.01931" lon="7.02446">
        <ele>896.79998779297</ele>
        <time>2021-06-04T08:28:04Z</time>
      </trkpt>
      <trkpt lat="48.01918" lon="7.02457">
        <ele>899.79998779297</ele>
        <time>2021-06-04T08:28:23Z</time>
      </trkpt>
      <trkpt lat="48.01915" lon="7.0245">
        <ele>902.79998779297</ele>
        <time>2021-06-04T08:28:45Z</time>
      </trkpt>
      <trkpt lat="48.01912" lon="7.02436">
        <ele>905.79998779297</ele>
        <time>2021-06-04T08:29:03Z</time>
      </trkpt>
      <trkpt lat="48.01916" lon="7.02428">
        <ele>908.40002441406</ele>
        <time>2021-06-04T08:29:23Z</time>
      </trkpt>
      <trkpt lat="48.01912" lon="7.02424">
        <ele>911.20001220703</ele>
        <time>2021-06-04T08:29:40Z</time>
      </trkpt>
      <trkpt lat="48.01901" lon="7.02422">
        <ele>913.20001220703</ele>
        <time>2021-06-04T08:29:56Z</time>
      </trkpt>
      <trkpt lat="48.01894" lon="7.02424">
        <ele>916.40002441406</ele>
        <time>2021-06-04T08:30:14Z</time>
      </trkpt>
      <trkpt lat="48.01886" lon="7.02415">
        <ele>919.20001220703</ele>
        <time>2021-06-04T08:30:34Z</time>
      </trkpt>
      <trkpt lat="48.01881" lon="7.02412">
        <ele>920</ele>
        <time>2021-06-04T08:30:39Z</time>
      </trkpt>
      <trkpt lat="48.01876" lon="7.02398">
        <ele>921.40002441406</ele>
        <time>2021-06-04T08:30:54Z</time>
      </trkpt>
      <trkpt lat="48.01884" lon="7.02384">
        <ele>923.20001220703</ele>
        <time>2021-06-04T08:31:08Z</time>
      </trkpt>
      <trkpt lat="48.01887" lon="7.02366">
        <ele>926.40002441406</ele>
        <time>2021-06-04T08:31:27Z</time>
      </trkpt>
      <trkpt lat="48.01889" lon="7.02361">
        <ele>929.40002441406</ele>
        <time>2021-06-04T08:31:45Z</time>
      </trkpt>
      <trkpt lat="48.01895" lon="7.02357">
        <ele>932.40002441406</ele>
        <time>2021-06-04T08:32:06Z</time>
      </trkpt>
      <trkpt lat="48.01896" lon="7.02349">
        <ele>935.40002441406</ele>
        <time>2021-06-04T08:32:23Z</time>
      </trkpt>
      <trkpt lat="48.01893" lon="7.0233">
        <ele>938.20001220703</ele>
        <time>2021-06-04T08:32:46Z</time>
      </trkpt>
      <trkpt lat="48.01889" lon="7.02317">
        <ele>941.20001220703</ele>
        <time>2021-06-04T08:33:06Z</time>
      </trkpt>
      <trkpt lat="48.0188" lon="7.023">
        <ele>944.20001220703</ele>
        <time>2021-06-04T08:33:23Z</time>
      </trkpt>
      <trkpt lat="48.01873" lon="7.02283">
        <ele>947.20001220703</ele>
        <time>2021-06-04T08:33:42Z</time>
      </trkpt>
      <trkpt lat="48.01864" lon="7.02272">
        <ele>949.40002441406</ele>
        <time>2021-06-04T08:33:59Z</time>
      </trkpt>
      <trkpt lat="48.01867" lon="7.02255">
        <ele>951.20001220703</ele>
        <time>2021-06-04T08:34:18Z</time>
      </trkpt>
      <trkpt lat="48.01872" lon="7.02235">
        <ele>953.20001220703</ele>
        <time>2021-06-04T08:34:37Z</time>
      </trkpt>
      <trkpt lat="48.01874" lon="7.0224">
        <ele>953.79998779297</ele>
        <time>2021-06-04T08:35:01Z</time>
      </trkpt>
      <trkpt lat="48.01871" lon="7.02214">
        <ele>955.79998779297</ele>
        <time>2021-06-04T08:35:21Z</time>
      </trkpt>
      <trkpt lat="48.01876" lon="7.02204">
        <ele>958.40002441406</ele>
        <time>2021-06-04T08:35:36Z</time>
      </trkpt>
      <trkpt lat="48.01869" lon="7.02191">
        <ele>961.40002441406</ele>
        <time>2021-06-04T08:35:56Z</time>
      </trkpt>
      <trkpt lat="48.01866" lon="7.02182">
        <ele>963.40002441406</ele>
        <time>2021-06-04T08:36:09Z</time>
      </trkpt>
      <trkpt lat="48.01854" lon="7.02173">
        <ele>965.20001220703</ele>
        <time>2021-06-04T08:36:21Z</time>
      </trkpt>
      <trkpt lat="48.01852" lon="7.02165">
        <ele>966.40002441406</ele>
        <time>2021-06-04T08:36:34Z</time>
      </trkpt>
      <trkpt lat="48.0185" lon="7.02163">
        <ele>967</ele>
        <time>2021-06-04T08:36:38Z</time>
      </trkpt>
      <trkpt lat="48.01843" lon="7.02163">
        <ele>969.40002441406</ele>
        <time>2021-06-04T08:36:54Z</time>
      </trkpt>
      <trkpt lat="48.01833" lon="7.02163">
        <ele>971.79998779297</ele>
        <time>2021-06-04T08:37:11Z</time>
      </trkpt>
      <trkpt lat="48.01825" lon="7.02161">
        <ele>974.20001220703</ele>
        <time>2021-06-04T08:37:24Z</time>
      </trkpt>
      <trkpt lat="48.01809" lon="7.02159">
        <ele>976.59997558594</ele>
        <time>2021-06-04T08:37:42Z</time>
      </trkpt>
      <trkpt lat="48.01797" lon="7.02156">
        <ele>979</ele>
        <time>2021-06-04T08:37:58Z</time>
      </trkpt>
      <trkpt lat="48.01786" lon="7.0215">
        <ele>982.20001220703</ele>
        <time>2021-06-04T08:38:19Z</time>
      </trkpt>
      <trkpt lat="48.01783" lon="7.02153">
        <ele>984.40002441406</ele>
        <time>2021-06-04T08:38:33Z</time>
      </trkpt>
      <trkpt lat="48.0178" lon="7.02152">
        <ele>987</ele>
        <time>2021-06-04T08:38:49Z</time>
      </trkpt>
      <trkpt lat="48.01765" lon="7.02149">
        <ele>987.40002441406</ele>
        <time>2021-06-04T08:39:03Z</time>
      </trkpt>
      <trkpt lat="48.01746" lon="7.02147">
        <ele>990.59997558594</ele>
        <time>2021-06-04T08:39:22Z</time>
      </trkpt>
      <trkpt lat="48.01746" lon="7.02147">
        <ele>991.20001220703</ele>
        <time>2021-06-04T08:39:25Z</time>
      </trkpt>
      <trkpt lat="48.01747" lon="7.02142">
        <ele>993.40002441406</ele>
        <time>2021-06-04T08:39:42Z</time>
      </trkpt>
      <trkpt lat="48.01758" lon="7.02132">
        <ele>995.59997558594</ele>
        <time>2021-06-04T08:39:57Z</time>
      </trkpt>
      <trkpt lat="48.01755" lon="7.02123">
        <ele>998</ele>
        <time>2021-06-04T08:40:13Z</time>
      </trkpt>
      <trkpt lat="48.01773" lon="7.02109">
        <ele>1000.799987793</ele>
        <time>2021-06-04T08:40:32Z</time>
      </trkpt>
      <trkpt lat="48.01786" lon="7.02103">
        <ele>1003.200012207</ele>
        <time>2021-06-04T08:40:46Z</time>
      </trkpt>
      <trkpt lat="48.0179" lon="7.02099">
        <ele>1005.200012207</ele>
        <time>2021-06-04T08:41:01Z</time>
      </trkpt>
      <trkpt lat="48.01803" lon="7.02089">
        <ele>1008</ele>
        <time>2021-06-04T08:41:22Z</time>
      </trkpt>
      <trkpt lat="48.01813" lon="7.02083">
        <ele>1010</ele>
        <time>2021-06-04T08:41:39Z</time>
      </trkpt>
      <trkpt lat="48.01819" lon="7.02073">
        <ele>1012</ele>
        <time>2021-06-04T08:41:54Z</time>
      </trkpt>
      <trkpt lat="48.01823" lon="7.02066">
        <ele>1013.799987793</ele>
        <time>2021-06-04T08:42:05Z</time>
      </trkpt>
      <trkpt lat="48.0185" lon="7.02059">
        <ele>1016.4000244141</ele>
        <time>2021-06-04T08:42:22Z</time>
      </trkpt>
      <trkpt lat="48.01854" lon="7.02058">
        <ele>1016.799987793</ele>
        <time>2021-06-04T08:42:24Z</time>
      </trkpt>
      <trkpt lat="48.01862" lon="7.02049">
        <ele>1018.200012207</ele>
        <time>2021-06-04T08:42:33Z</time>
      </trkpt>
      <trkpt lat="48.01865" lon="7.02047">
        <ele>1020.4000244141</ele>
        <time>2021-06-04T08:42:53Z</time>
      </trkpt>
      <trkpt lat="48.01873" lon="7.02041">
        <ele>1023.5999755859</ele>
        <time>2021-06-04T08:43:09Z</time>
      </trkpt>
      <trkpt lat="48.01879" lon="7.02038">
        <ele>1025.8000488281</ele>
        <time>2021-06-04T08:43:24Z</time>
      </trkpt>
      <trkpt lat="48.01887" lon="7.02039">
        <ele>1028.8000488281</ele>
        <time>2021-06-04T08:43:45Z</time>
      </trkpt>
      <trkpt lat="48.01898" lon="7.02034">
        <ele>1031.4000244141</ele>
        <time>2021-06-04T08:44:03Z</time>
      </trkpt>
      <trkpt lat="48.01917" lon="7.02027">
        <ele>1033.5999755859</ele>
        <time>2021-06-04T08:44:20Z</time>
      </trkpt>
      <trkpt lat="48.01927" lon="7.0202">
        <ele>1035.8000488281</ele>
        <time>2021-06-04T08:44:35Z</time>
      </trkpt>
      <trkpt lat="48.01938" lon="7.02009">
        <ele>1037.5999755859</ele>
        <time>2021-06-04T08:44:49Z</time>
      </trkpt>
      <trkpt lat="48.01951" lon="7.02">
        <ele>1040.1999511719</ele>
        <time>2021-06-04T08:45:09Z</time>
      </trkpt>
      <trkpt lat="48.01963" lon="7.01986">
        <ele>1042.1999511719</ele>
        <time>2021-06-04T08:45:28Z</time>
      </trkpt>
      <trkpt lat="48.0196" lon="7.01984">
        <ele>1042.5999755859</ele>
        <time>2021-06-04T08:45:31Z</time>
      </trkpt>
      <trkpt lat="48.01934" lon="7.01977">
        <ele>1044.4000244141</ele>
        <time>2021-06-04T08:45:53Z</time>
      </trkpt>
      <trkpt lat="48.01916" lon="7.01968">
        <ele>1045.1999511719</ele>
        <time>2021-06-04T08:46:14Z</time>
      </trkpt>
      <trkpt lat="48.01894" lon="7.01962">
        <ele>1047.5999755859</ele>
        <time>2021-06-04T08:46:36Z</time>
      </trkpt>
      <trkpt lat="48.01888" lon="7.01957">
        <ele>1048.8000488281</ele>
        <time>2021-06-04T08:46:52Z</time>
      </trkpt>
      <trkpt lat="48.01885" lon="7.01955">
        <ele>1049.4000244141</ele>
        <time>2021-06-04T08:47:02Z</time>
      </trkpt>
      <trkpt lat="48.01874" lon="7.01947">
        <ele>1052</ele>
        <time>2021-06-04T08:47:20Z</time>
      </trkpt>
      <trkpt lat="48.01871" lon="7.0194">
        <ele>1054.4000244141</ele>
        <time>2021-06-04T08:47:39Z</time>
      </trkpt>
      <trkpt lat="48.01864" lon="7.01928">
        <ele>1055.5999755859</ele>
        <time>2021-06-04T08:47:58Z</time>
      </trkpt>
      <trkpt lat="48.01853" lon="7.01931">
        <ele>1056.8000488281</ele>
        <time>2021-06-04T08:48:10Z</time>
      </trkpt>
      <trkpt lat="48.01852" lon="7.01931">
        <ele>1056.8000488281</ele>
        <time>2021-06-04T08:48:11Z</time>
      </trkpt>
      <trkpt lat="48.0184" lon="7.01927">
        <ele>1057.4000244141</ele>
        <time>2021-06-04T08:48:29Z</time>
      </trkpt>
      <trkpt lat="48.01837" lon="7.01927">
        <ele>1057.4000244141</ele>
        <time>2021-06-04T08:48:54Z</time>
      </trkpt>
      <trkpt lat="48.01823" lon="7.01927">
        <ele>1060.4000244141</ele>
        <time>2021-06-04T08:49:10Z</time>
      </trkpt>
      <trkpt lat="48.01817" lon="7.0191">
        <ele>1063.5999755859</ele>
        <time>2021-06-04T08:49:23Z</time>
      </trkpt>
      <trkpt lat="48.01813" lon="7.01889">
        <ele>1066.5999755859</ele>
        <time>2021-06-04T08:49:43Z</time>
      </trkpt>
      <trkpt lat="48.01813" lon="7.0188">
        <ele>1068</ele>
        <time>2021-06-04T08:50:01Z</time>
      </trkpt>
      <trkpt lat="48.01812" lon="7.01873">
        <ele>1069</ele>
        <time>2021-06-04T08:50:24Z</time>
      </trkpt>
      <trkpt lat="48.01811" lon="7.01867">
        <ele>1070.4000244141</ele>
        <time>2021-06-04T08:50:31Z</time>
      </trkpt>
      <trkpt lat="48.01812" lon="7.01864">
        <ele>1070.5999755859</ele>
        <time>2021-06-04T08:50:33Z</time>
      </trkpt>
      <trkpt lat="48.01806" lon="7.01855">
        <ele>1071.5999755859</ele>
        <time>2021-06-04T08:50:43Z</time>
      </trkpt>
      <trkpt lat="48.01797" lon="7.01836">
        <ele>1073</ele>
        <time>2021-06-04T08:51:03Z</time>
      </trkpt>
      <trkpt lat="48.01794" lon="7.01832">
        <ele>1074.5999755859</ele>
        <time>2021-06-04T08:51:26Z</time>
      </trkpt>
      <trkpt lat="48.01798" lon="7.01825">
        <ele>1074.4000244141</ele>
        <time>2021-06-04T08:51:50Z</time>
      </trkpt>
      <trkpt lat="48.01797" lon="7.01831">
        <ele>1074.4000244141</ele>
        <time>2021-06-04T08:52:21Z</time>
      </trkpt>
      <trkpt lat="48.01791" lon="7.01823">
        <ele>1074.4000244141</ele>
        <time>2021-06-04T08:52:45Z</time>
      </trkpt>
      <trkpt lat="48.01783" lon="7.01809">
        <ele>1074.4000244141</ele>
        <time>2021-06-04T08:53:07Z</time>
      </trkpt>
      <trkpt lat="48.0178" lon="7.01807">
        <ele>1082.4000244141</ele>
        <time>2021-06-04T08:53:13Z</time>
      </trkpt>
      <trkpt lat="48.0178" lon="7.01806">
        <ele>1082.5999755859</ele>
        <time>2021-06-04T08:53:14Z</time>
      </trkpt>
      <trkpt lat="48.01772" lon="7.01795">
        <ele>1085.5999755859</ele>
        <time>2021-06-04T08:53:36Z</time>
      </trkpt>
      <trkpt lat="48.0177" lon="7.01786">
        <ele>1088.8000488281</ele>
        <time>2021-06-04T08:53:52Z</time>
      </trkpt>
      <trkpt lat="48.01765" lon="7.01775">
        <ele>1091.8000488281</ele>
        <time>2021-06-04T08:54:11Z</time>
      </trkpt>
      <trkpt lat="48.01757" lon="7.01757">
        <ele>1095</ele>
        <time>2021-06-04T08:54:32Z</time>
      </trkpt>
      <trkpt lat="48.0176" lon="7.01746">
        <ele>1098</ele>
        <time>2021-06-04T08:54:48Z</time>
      </trkpt>
      <trkpt lat="48.01768" lon="7.01745">
        <ele>1100.8000488281</ele>
        <time>2021-06-04T08:55:04Z</time>
      </trkpt>
      <trkpt lat="48.01771" lon="7.01746">
        <ele>1103.8000488281</ele>
        <time>2021-06-04T08:55:21Z</time>
      </trkpt>
      <trkpt lat="48.0178" lon="7.01744">
        <ele>1106.8000488281</ele>
        <time>2021-06-04T08:55:41Z</time>
      </trkpt>
      <trkpt lat="48.01784" lon="7.01737">
        <ele>1109.4000244141</ele>
        <time>2021-06-04T08:56:02Z</time>
      </trkpt>
      <trkpt lat="48.01778" lon="7.01726">
        <ele>1112.4000244141</ele>
        <time>2021-06-04T08:56:21Z</time>
      </trkpt>
      <trkpt lat="48.01762" lon="7.01711">
        <ele>1113.8000488281</ele>
        <time>2021-06-04T08:56:43Z</time>
      </trkpt>
      <trkpt lat="48.01753" lon="7.01701">
        <ele>1116.8000488281</ele>
        <time>2021-06-04T08:56:58Z</time>
      </trkpt>
      <trkpt lat="48.01743" lon="7.01683">
        <ele>1119.8000488281</ele>
        <time>2021-06-04T08:57:16Z</time>
      </trkpt>
      <trkpt lat="48.01735" lon="7.01662">
        <ele>1122.1999511719</ele>
        <time>2021-06-04T08:57:33Z</time>
      </trkpt>
      <trkpt lat="48.01726" lon="7.01636">
        <ele>1125.1999511719</ele>
        <time>2021-06-04T08:57:55Z</time>
      </trkpt>
      <trkpt lat="48.01711" lon="7.01605">
        <ele>1126.1999511719</ele>
        <time>2021-06-04T08:58:16Z</time>
      </trkpt>
      <trkpt lat="48.01706" lon="7.01587">
        <ele>1126.5999755859</ele>
        <time>2021-06-04T08:58:30Z</time>
      </trkpt>
      <trkpt lat="48.01699" lon="7.01569">
        <ele>1127.4000244141</ele>
        <time>2021-06-04T08:58:48Z</time>
      </trkpt>
      <trkpt lat="48.01687" lon="7.01546">
        <ele>1130.1999511719</ele>
        <time>2021-06-04T08:59:05Z</time>
      </trkpt>
      <trkpt lat="48.01686" lon="7.01545">
        <ele>1130.1999511719</ele>
        <time>2021-06-04T08:59:06Z</time>
      </trkpt>
      <trkpt lat="48.01672" lon="7.01525">
        <ele>1132.1999511719</ele>
        <time>2021-06-04T08:59:23Z</time>
      </trkpt>
      <trkpt lat="48.01657" lon="7.0151">
        <ele>1135</ele>
        <time>2021-06-04T08:59:39Z</time>
      </trkpt>
      <trkpt lat="48.01645" lon="7.01495">
        <ele>1136.5999755859</ele>
        <time>2021-06-04T08:59:56Z</time>
      </trkpt>
      <trkpt lat="48.0164" lon="7.01486">
        <ele>1138.5999755859</ele>
        <time>2021-06-04T09:00:13Z</time>
      </trkpt>
      <trkpt lat="48.01634" lon="7.01478">
        <ele>1141</ele>
        <time>2021-06-04T09:00:31Z</time>
      </trkpt>
      <trkpt lat="48.01628" lon="7.01468">
        <ele>1141.8000488281</ele>
        <time>2021-06-04T09:00:53Z</time>
      </trkpt>
      <trkpt lat="48.01618" lon="7.01459">
        <ele>1142.4000244141</ele>
        <time>2021-06-04T09:01:05Z</time>
      </trkpt>
      <trkpt lat="48.01612" lon="7.01449">
        <ele>1145</ele>
        <time>2021-06-04T09:01:17Z</time>
      </trkpt>
      <trkpt lat="48.01611" lon="7.01448">
        <ele>1145.1999511719</ele>
        <time>2021-06-04T09:01:18Z</time>
      </trkpt>
      <trkpt lat="48.0161" lon="7.01447">
        <ele>1145.4000244141</ele>
        <time>2021-06-04T09:01:19Z</time>
      </trkpt>
      <trkpt lat="48.01593" lon="7.01423">
        <ele>1146.5999755859</ele>
        <time>2021-06-04T09:01:38Z</time>
      </trkpt>
      <trkpt lat="48.01588" lon="7.01404">
        <ele>1147.4000244141</ele>
        <time>2021-06-04T09:01:48Z</time>
      </trkpt>
      <trkpt lat="48.01587" lon="7.01403">
        <ele>1147.5999755859</ele>
        <time>2021-06-04T09:01:49Z</time>
      </trkpt>
      <trkpt lat="48.01586" lon="7.01402">
        <ele>1147.5999755859</ele>
        <time>2021-06-04T09:01:50Z</time>
      </trkpt>
      <trkpt lat="48.01563" lon="7.01377">
        <ele>1149.5999755859</ele>
        <time>2021-06-04T09:02:13Z</time>
      </trkpt>
      <trkpt lat="48.01541" lon="7.01355">
        <ele>1149.8000488281</ele>
        <time>2021-06-04T09:02:34Z</time>
      </trkpt>
      <trkpt lat="48.01517" lon="7.0134">
        <ele>1150.4000244141</ele>
        <time>2021-06-04T09:02:55Z</time>
      </trkpt>
      <trkpt lat="48.01513" lon="7.01328">
        <ele>1151.5999755859</ele>
        <time>2021-06-04T09:03:12Z</time>
      </trkpt>
      <trkpt lat="48.01513" lon="7.01328">
        <ele>1152</ele>
        <time>2021-06-04T09:03:45Z</time>
      </trkpt>
      <trkpt lat="48.0151" lon="7.01321">
        <ele>1153</ele>
        <time>2021-06-04T09:04:10Z</time>
      </trkpt>
      <trkpt lat="48.01504" lon="7.01314">
        <ele>1153.8000488281</ele>
        <time>2021-06-04T09:04:27Z</time>
      </trkpt>
      <trkpt lat="48.01494" lon="7.01301">
        <ele>1156.1999511719</ele>
        <time>2021-06-04T09:04:44Z</time>
      </trkpt>
      <trkpt lat="48.01494" lon="7.01291">
        <ele>1157.4000244141</ele>
        <time>2021-06-04T09:05:06Z</time>
      </trkpt>
      <trkpt lat="48.01494" lon="7.01267">
        <ele>1159</ele>
        <time>2021-06-04T09:05:23Z</time>
      </trkpt>
      <trkpt lat="48.01494" lon="7.01253">
        <ele>1160</ele>
        <time>2021-06-04T09:05:33Z</time>
      </trkpt>
      <trkpt lat="48.01491" lon="7.01242">
        <ele>1159.8000488281</ele>
        <time>2021-06-04T09:05:41Z</time>
      </trkpt>
      <trkpt lat="48.01491" lon="7.01241">
        <ele>1159.8000488281</ele>
        <time>2021-06-04T09:05:42Z</time>
      </trkpt>
      <trkpt lat="48.0149" lon="7.01234">
        <ele>1159.4000244141</ele>
        <time>2021-06-04T09:06:00Z</time>
      </trkpt>
      <trkpt lat="48.0149" lon="7.01234">
        <ele>1159.1999511719</ele>
        <time>2021-06-04T09:06:23Z</time>
      </trkpt>
      <trkpt lat="48.01489" lon="7.01234">
        <ele>1159</ele>
        <time>2021-06-04T09:06:46Z</time>
      </trkpt>
      <trkpt lat="48.01489" lon="7.01238">
        <ele>1158.8000488281</ele>
        <time>2021-06-04T09:07:11Z</time>
      </trkpt>
      <trkpt lat="48.01491" lon="7.01234">
        <ele>1158.8000488281</ele>
        <time>2021-06-04T09:07:33Z</time>
      </trkpt>
      <trkpt lat="48.01489" lon="7.01225">
        <ele>1159.1999511719</ele>
        <time>2021-06-04T09:07:48Z</time>
      </trkpt>
      <trkpt lat="48.01484" lon="7.01222">
        <ele>1158.4000244141</ele>
        <time>2021-06-04T09:08:02Z</time>
      </trkpt>
      <trkpt lat="48.01483" lon="7.0122">
        <ele>1158.4000244141</ele>
        <time>2021-06-04T09:08:30Z</time>
      </trkpt>
      <trkpt lat="48.01481" lon="7.01215">
        <ele>1158.4000244141</ele>
        <time>2021-06-04T09:08:34Z</time>
      </trkpt>
      <trkpt lat="48.01479" lon="7.01213">
        <ele>1158.4000244141</ele>
        <time>2021-06-04T09:08:36Z</time>
      </trkpt>
      <trkpt lat="48.01479" lon="7.01211">
        <ele>1158.5999755859</ele>
        <time>2021-06-04T09:08:37Z</time>
      </trkpt>
      <trkpt lat="48.01478" lon="7.0121">
        <ele>1158.8000488281</ele>
        <time>2021-06-04T09:08:38Z</time>
      </trkpt>
      <trkpt lat="48.01466" lon="7.01174">
        <ele>1158.8000488281</ele>
        <time>2021-06-04T09:09:00Z</time>
      </trkpt>
      <trkpt lat="48.0147" lon="7.01161">
        <ele>1158.4000244141</ele>
        <time>2021-06-04T09:09:12Z</time>
      </trkpt>
      <trkpt lat="48.01474" lon="7.01158">
        <ele>1157</ele>
        <time>2021-06-04T09:09:30Z</time>
      </trkpt>
      <trkpt lat="48.01476" lon="7.01154">
        <ele>1156.8000488281</ele>
        <time>2021-06-04T09:09:36Z</time>
      </trkpt>
      <trkpt lat="48.01477" lon="7.01152">
        <ele>1156.8000488281</ele>
        <time>2021-06-04T09:09:38Z</time>
      </trkpt>
      <trkpt lat="48.01478" lon="7.01151">
        <ele>1157</ele>
        <time>2021-06-04T09:09:39Z</time>
      </trkpt>
      <trkpt lat="48.01495" lon="7.01136">
        <ele>1158.1999511719</ele>
        <time>2021-06-04T09:09:57Z</time>
      </trkpt>
      <trkpt lat="48.015" lon="7.01126">
        <ele>1157.8000488281</ele>
        <time>2021-06-04T09:10:04Z</time>
      </trkpt>
      <trkpt lat="48.01501" lon="7.01125">
        <ele>1157.5999755859</ele>
        <time>2021-06-04T09:10:05Z</time>
      </trkpt>
      <trkpt lat="48.0152" lon="7.01104">
        <ele>1158.1999511719</ele>
        <time>2021-06-04T09:10:24Z</time>
      </trkpt>
      <trkpt lat="48.01523" lon="7.01094">
        <ele>1158</ele>
        <time>2021-06-04T09:10:33Z</time>
      </trkpt>
      <trkpt lat="48.01524" lon="7.01093">
        <ele>1158</ele>
        <time>2021-06-04T09:10:34Z</time>
      </trkpt>
      <trkpt lat="48.01524" lon="7.01091">
        <ele>1157.8000488281</ele>
        <time>2021-06-04T09:10:35Z</time>
      </trkpt>
      <trkpt lat="48.01525" lon="7.0109">
        <ele>1157.5999755859</ele>
        <time>2021-06-04T09:10:36Z</time>
      </trkpt>
      <trkpt lat="48.01526" lon="7.01089">
        <ele>1157.5999755859</ele>
        <time>2021-06-04T09:10:37Z</time>
      </trkpt>
      <trkpt lat="48.0153" lon="7.01082">
        <ele>1156</ele>
        <time>2021-06-04T09:10:51Z</time>
      </trkpt>
      <trkpt lat="48.01531" lon="7.0108">
        <ele>1155.8000488281</ele>
        <time>2021-06-04T09:10:52Z</time>
      </trkpt>
      <trkpt lat="48.01532" lon="7.01079">
        <ele>1155.8000488281</ele>
        <time>2021-06-04T09:10:53Z</time>
      </trkpt>
      <trkpt lat="48.01534" lon="7.01078">
        <ele>1155.8000488281</ele>
        <time>2021-06-04T09:10:54Z</time>
      </trkpt>
      <trkpt lat="48.01535" lon="7.01077">
        <ele>1155.5999755859</ele>
        <time>2021-06-04T09:10:55Z</time>
      </trkpt>
      <trkpt lat="48.01536" lon="7.01075">
        <ele>1155.5999755859</ele>
        <time>2021-06-04T09:10:56Z</time>
      </trkpt>
      <trkpt lat="48.01542" lon="7.01061">
        <ele>1155.4000244141</ele>
        <time>2021-06-04T09:11:05Z</time>
      </trkpt>
      <trkpt lat="48.01542" lon="7.0106">
        <ele>1155.4000244141</ele>
        <time>2021-06-04T09:11:06Z</time>
      </trkpt>
      <trkpt lat="48.01543" lon="7.01058">
        <ele>1155.4000244141</ele>
        <time>2021-06-04T09:11:07Z</time>
      </trkpt>
      <trkpt lat="48.01544" lon="7.01057">
        <ele>1155.4000244141</ele>
        <time>2021-06-04T09:11:08Z</time>
      </trkpt>
      <trkpt lat="48.01545" lon="7.01055">
        <ele>1155.1999511719</ele>
        <time>2021-06-04T09:11:09Z</time>
      </trkpt>
      <trkpt lat="48.01547" lon="7.01054">
        <ele>1155.1999511719</ele>
        <time>2021-06-04T09:11:10Z</time>
      </trkpt>
      <trkpt lat="48.0155" lon="7.01051">
        <ele>1155.1999511719</ele>
        <time>2021-06-04T09:11:17Z</time>
      </trkpt>
      <trkpt lat="48.01551" lon="7.01049">
        <ele>1155.1999511719</ele>
        <time>2021-06-04T09:11:18Z</time>
      </trkpt>
      <trkpt lat="48.01551" lon="7.01048">
        <ele>1155.1999511719</ele>
        <time>2021-06-04T09:11:19Z</time>
      </trkpt>
      <trkpt lat="48.01552" lon="7.01046">
        <ele>1155.1999511719</ele>
        <time>2021-06-04T09:11:20Z</time>
      </trkpt>
      <trkpt lat="48.01553" lon="7.01044">
        <ele>1155.1999511719</ele>
        <time>2021-06-04T09:11:21Z</time>
      </trkpt>
      <trkpt lat="48.01567" lon="7.01006">
        <ele>1153.5999755859</ele>
        <time>2021-06-04T09:11:41Z</time>
      </trkpt>
      <trkpt lat="48.01573" lon="7.00972">
        <ele>1153.4000244141</ele>
        <time>2021-06-04T09:12:00Z</time>
      </trkpt>
      <trkpt lat="48.01581" lon="7.00942">
        <ele>1153.8000488281</ele>
        <time>2021-06-04T09:12:18Z</time>
      </trkpt>
      <trkpt lat="48.01581" lon="7.00939">
        <ele>1153.8000488281</ele>
        <time>2021-06-04T09:12:20Z</time>
      </trkpt>
      <trkpt lat="48.01582" lon="7.00938">
        <ele>1153.8000488281</ele>
        <time>2021-06-04T09:12:21Z</time>
      </trkpt>
      <trkpt lat="48.01583" lon="7.00935">
        <ele>1154</ele>
        <time>2021-06-04T09:12:23Z</time>
      </trkpt>
      <trkpt lat="48.01584" lon="7.00933">
        <ele>1154</ele>
        <time>2021-06-04T09:12:24Z</time>
      </trkpt>
      <trkpt lat="48.01586" lon="7.00909">
        <ele>1153.8000488281</ele>
        <time>2021-06-04T09:12:36Z</time>
      </trkpt>
      <trkpt lat="48.01586" lon="7.0089">
        <ele>1154.1999511719</ele>
        <time>2021-06-04T09:12:46Z</time>
      </trkpt>
      <trkpt lat="48.01586" lon="7.00888">
        <ele>1154.4000244141</ele>
        <time>2021-06-04T09:12:47Z</time>
      </trkpt>
      <trkpt lat="48.01581" lon="7.00859">
        <ele>1155</ele>
        <time>2021-06-04T09:13:03Z</time>
      </trkpt>
      <trkpt lat="48.01576" lon="7.0083">
        <ele>1155.1999511719</ele>
        <time>2021-06-04T09:13:20Z</time>
      </trkpt>
      <trkpt lat="48.01565" lon="7.00793">
        <ele>1155.4000244141</ele>
        <time>2021-06-04T09:13:39Z</time>
      </trkpt>
      <trkpt lat="48.01565" lon="7.00792">
        <ele>1155.4000244141</ele>
        <time>2021-06-04T09:13:40Z</time>
      </trkpt>
      <trkpt lat="48.01564" lon="7.0079">
        <ele>1155.4000244141</ele>
        <time>2021-06-04T09:13:41Z</time>
      </trkpt>
      <trkpt lat="48.0156" lon="7.0078">
        <ele>1155.5999755859</ele>
        <time>2021-06-04T09:13:48Z</time>
      </trkpt>
      <trkpt lat="48.01559" lon="7.00774">
        <ele>1155.5999755859</ele>
        <time>2021-06-04T09:13:51Z</time>
      </trkpt>
      <trkpt lat="48.01557" lon="7.00757">
        <ele>1156</ele>
        <time>2021-06-04T09:14:00Z</time>
      </trkpt>
      <trkpt lat="48.01557" lon="7.00755">
        <ele>1156.1999511719</ele>
        <time>2021-06-04T09:14:01Z</time>
      </trkpt>
      <trkpt lat="48.01557" lon="7.00749">
        <ele>1156.4000244141</ele>
        <time>2021-06-04T09:14:04Z</time>
      </trkpt>
      <trkpt lat="48.01557" lon="7.00743">
        <ele>1156.5999755859</ele>
        <time>2021-06-04T09:14:07Z</time>
      </trkpt>
      <trkpt lat="48.01556" lon="7.00741">
        <ele>1156.5999755859</ele>
        <time>2021-06-04T09:14:08Z</time>
      </trkpt>
      <trkpt lat="48.01556" lon="7.00738">
        <ele>1156.5999755859</ele>
        <time>2021-06-04T09:14:09Z</time>
      </trkpt>
      <trkpt lat="48.01555" lon="7.00736">
        <ele>1156.5999755859</ele>
        <time>2021-06-04T09:14:10Z</time>
      </trkpt>
      <trkpt lat="48.01551" lon="7.0071">
        <ele>1156.5999755859</ele>
        <time>2021-06-04T09:14:27Z</time>
      </trkpt>
      <trkpt lat="48.01554" lon="7.00682">
        <ele>1156.8000488281</ele>
        <time>2021-06-04T09:14:46Z</time>
      </trkpt>
      <trkpt lat="48.0156" lon="7.00667">
        <ele>1157.8000488281</ele>
        <time>2021-06-04T09:15:03Z</time>
      </trkpt>
      <trkpt lat="48.01561" lon="7.00663">
        <ele>1157.5999755859</ele>
        <time>2021-06-04T09:15:05Z</time>
      </trkpt>
      <trkpt lat="48.01561" lon="7.00661">
        <ele>1157.1999511719</ele>
        <time>2021-06-04T09:15:06Z</time>
      </trkpt>
      <trkpt lat="48.01561" lon="7.00659">
        <ele>1157</ele>
        <time>2021-06-04T09:15:07Z</time>
      </trkpt>
      <trkpt lat="48.01567" lon="7.00637">
        <ele>1156.4000244141</ele>
        <time>2021-06-04T09:15:18Z</time>
      </trkpt>
      <trkpt lat="48.01569" lon="7.00624">
        <ele>1156</ele>
        <time>2021-06-04T09:15:24Z</time>
      </trkpt>
      <trkpt lat="48.0157" lon="7.00622">
        <ele>1155.8000488281</ele>
        <time>2021-06-04T09:15:25Z</time>
      </trkpt>
      <trkpt lat="48.0157" lon="7.0062">
        <ele>1155.8000488281</ele>
        <time>2021-06-04T09:15:26Z</time>
      </trkpt>
      <trkpt lat="48.01571" lon="7.00618">
        <ele>1155.5999755859</ele>
        <time>2021-06-04T09:15:27Z</time>
      </trkpt>
      <trkpt lat="48.01573" lon="7.00614">
        <ele>1155.4000244141</ele>
        <time>2021-06-04T09:15:29Z</time>
      </trkpt>
      <trkpt lat="48.01574" lon="7.00613">
        <ele>1155.4000244141</ele>
        <time>2021-06-04T09:15:30Z</time>
      </trkpt>
      <trkpt lat="48.01575" lon="7.00611">
        <ele>1155.4000244141</ele>
        <time>2021-06-04T09:15:31Z</time>
      </trkpt>
      <trkpt lat="48.01576" lon="7.00608">
        <ele>1155.4000244141</ele>
        <time>2021-06-04T09:15:33Z</time>
      </trkpt>
      <trkpt lat="48.01578" lon="7.00595">
        <ele>1155.5999755859</ele>
        <time>2021-06-04T09:15:47Z</time>
      </trkpt>
      <trkpt lat="48.01578" lon="7.00593">
        <ele>1155.5999755859</ele>
        <time>2021-06-04T09:15:48Z</time>
      </trkpt>
      <trkpt lat="48.01578" lon="7.00591">
        <ele>1155.5999755859</ele>
        <time>2021-06-04T09:15:49Z</time>
      </trkpt>
      <trkpt lat="48.01588" lon="7.00562">
        <ele>1155.5999755859</ele>
        <time>2021-06-04T09:16:07Z</time>
      </trkpt>
      <trkpt lat="48.01598" lon="7.00547">
        <ele>1155.8000488281</ele>
        <time>2021-06-04T09:16:18Z</time>
      </trkpt>
      <trkpt lat="48.01603" lon="7.00528">
        <ele>1155.5999755859</ele>
        <time>2021-06-04T09:16:29Z</time>
      </trkpt>
      <trkpt lat="48.01603" lon="7.00525">
        <ele>1155.5999755859</ele>
        <time>2021-06-04T09:16:30Z</time>
      </trkpt>
      <trkpt lat="48.01612" lon="7.005">
        <ele>1155.5999755859</ele>
        <time>2021-06-04T09:16:44Z</time>
      </trkpt>
      <trkpt lat="48.01624" lon="7.00479">
        <ele>1155.8000488281</ele>
        <time>2021-06-04T09:16:59Z</time>
      </trkpt>
      <trkpt lat="48.01625" lon="7.00477">
        <ele>1155.8000488281</ele>
        <time>2021-06-04T09:17:00Z</time>
      </trkpt>
      <trkpt lat="48.01625" lon="7.00474">
        <ele>1155.8000488281</ele>
        <time>2021-06-04T09:17:01Z</time>
      </trkpt>
      <trkpt lat="48.01625" lon="7.00437">
        <ele>1156</ele>
        <time>2021-06-04T09:17:20Z</time>
      </trkpt>
      <trkpt lat="48.01627" lon="7.00427">
        <ele>1156.1999511719</ele>
        <time>2021-06-04T09:17:25Z</time>
      </trkpt>
      <trkpt lat="48.01628" lon="7.00424">
        <ele>1156.1999511719</ele>
        <time>2021-06-04T09:17:27Z</time>
      </trkpt>
      <trkpt lat="48.01632" lon="7.00412">
        <ele>1156.1999511719</ele>
        <time>2021-06-04T09:17:34Z</time>
      </trkpt>
      <trkpt lat="48.01637" lon="7.00393">
        <ele>1156.1999511719</ele>
        <time>2021-06-04T09:17:45Z</time>
      </trkpt>
      <trkpt lat="48.0164" lon="7.00379">
        <ele>1156.1999511719</ele>
        <time>2021-06-04T09:17:54Z</time>
      </trkpt>
      <trkpt lat="48.01641" lon="7.00375">
        <ele>1156.1999511719</ele>
        <time>2021-06-04T09:17:56Z</time>
      </trkpt>
      <trkpt lat="48.01646" lon="7.0035">
        <ele>1156</ele>
        <time>2021-06-04T09:18:11Z</time>
      </trkpt>
      <trkpt lat="48.0165" lon="7.00327">
        <ele>1155.8000488281</ele>
        <time>2021-06-04T09:18:26Z</time>
      </trkpt>
      <trkpt lat="48.01649" lon="7.00294">
        <ele>1155.5999755859</ele>
        <time>2021-06-04T09:18:42Z</time>
      </trkpt>
      <trkpt lat="48.01648" lon="7.00283">
        <ele>1155.8000488281</ele>
        <time>2021-06-04T09:18:47Z</time>
      </trkpt>
      <trkpt lat="48.01647" lon="7.00275">
        <ele>1156</ele>
        <time>2021-06-04T09:18:51Z</time>
      </trkpt>
      <trkpt lat="48.01648" lon="7.00272">
        <ele>1156</ele>
        <time>2021-06-04T09:18:52Z</time>
      </trkpt>
      <trkpt lat="48.01642" lon="7.00246">
        <ele>1156</ele>
        <time>2021-06-04T09:19:06Z</time>
      </trkpt>
      <trkpt lat="48.01638" lon="7.00222">
        <ele>1156</ele>
        <time>2021-06-04T09:19:20Z</time>
      </trkpt>
      <trkpt lat="48.01637" lon="7.0022">
        <ele>1156</ele>
        <time>2021-06-04T09:19:21Z</time>
      </trkpt>
      <trkpt lat="48.01637" lon="7.00219">
        <ele>1156</ele>
        <time>2021-06-04T09:19:22Z</time>
      </trkpt>
      <trkpt lat="48.01636" lon="7.00217">
        <ele>1156</ele>
        <time>2021-06-04T09:19:23Z</time>
      </trkpt>
      <trkpt lat="48.01635" lon="7.00215">
        <ele>1156</ele>
        <time>2021-06-04T09:19:24Z</time>
      </trkpt>
      <trkpt lat="48.01625" lon="7.00195">
        <ele>1156.4000244141</ele>
        <time>2021-06-04T09:19:38Z</time>
      </trkpt>
      <trkpt lat="48.01624" lon="7.00192">
        <ele>1156.4000244141</ele>
        <time>2021-06-04T09:19:39Z</time>
      </trkpt>
      <trkpt lat="48.01624" lon="7.0019">
        <ele>1156.4000244141</ele>
        <time>2021-06-04T09:19:40Z</time>
      </trkpt>
      <trkpt lat="48.01622" lon="7.00189">
        <ele>1156.4000244141</ele>
        <time>2021-06-04T09:19:41Z</time>
      </trkpt>
      <trkpt lat="48.01621" lon="7.00187">
        <ele>1156.4000244141</ele>
        <time>2021-06-04T09:19:42Z</time>
      </trkpt>
      <trkpt lat="48.0161" lon="7.00167">
        <ele>1156.1999511719</ele>
        <time>2021-06-04T09:19:57Z</time>
      </trkpt>
      <trkpt lat="48.01607" lon="7.00161">
        <ele>1156.5999755859</ele>
        <time>2021-06-04T09:20:01Z</time>
      </trkpt>
      <trkpt lat="48.01606" lon="7.00159">
        <ele>1156.5999755859</ele>
        <time>2021-06-04T09:20:02Z</time>
      </trkpt>
      <trkpt lat="48.01604" lon="7.00157">
        <ele>1156.5999755859</ele>
        <time>2021-06-04T09:20:04Z</time>
      </trkpt>
      <trkpt lat="48.01591" lon="7.00137">
        <ele>1157.5999755859</ele>
        <time>2021-06-04T09:20:19Z</time>
      </trkpt>
      <trkpt lat="48.01589" lon="7.00136">
        <ele>1157.5999755859</ele>
        <time>2021-06-04T09:20:20Z</time>
      </trkpt>
      <trkpt lat="48.01588" lon="7.00134">
        <ele>1157.5999755859</ele>
        <time>2021-06-04T09:20:21Z</time>
      </trkpt>
      <trkpt lat="48.01587" lon="7.00133">
        <ele>1157.8000488281</ele>
        <time>2021-06-04T09:20:22Z</time>
      </trkpt>
      <trkpt lat="48.01573" lon="7.00105">
        <ele>1159</ele>
        <time>2021-06-04T09:20:39Z</time>
      </trkpt>
      <trkpt lat="48.01566" lon="7.00082">
        <ele>1159.4000244141</ele>
        <time>2021-06-04T09:20:53Z</time>
      </trkpt>
      <trkpt lat="48.01558" lon="7.00062">
        <ele>1159.5999755859</ele>
        <time>2021-06-04T09:21:05Z</time>
      </trkpt>
      <trkpt lat="48.01551" lon="7.0005">
        <ele>1160</ele>
        <time>2021-06-04T09:21:12Z</time>
      </trkpt>
      <trkpt lat="48.01541" lon="7.00028">
        <ele>1160</ele>
        <time>2021-06-04T09:21:27Z</time>
      </trkpt>
      <trkpt lat="48.01535" lon="7.00002">
        <ele>1159.5999755859</ele>
        <time>2021-06-04T09:21:40Z</time>
      </trkpt>
      <trkpt lat="48.01528" lon="6.99976">
        <ele>1160</ele>
        <time>2021-06-04T09:21:53Z</time>
      </trkpt>
      <trkpt lat="48.01521" lon="6.99943">
        <ele>1161.5999755859</ele>
        <time>2021-06-04T09:22:11Z</time>
      </trkpt>
      <trkpt lat="48.01514" lon="6.99919">
        <ele>1162</ele>
        <time>2021-06-04T09:22:27Z</time>
      </trkpt>
      <trkpt lat="48.01514" lon="6.99903">
        <ele>1161.8000488281</ele>
        <time>2021-06-04T09:22:36Z</time>
      </trkpt>
      <trkpt lat="48.01512" lon="6.99884">
        <ele>1161.8000488281</ele>
        <time>2021-06-04T09:22:47Z</time>
      </trkpt>
      <trkpt lat="48.01512" lon="6.99882">
        <ele>1161.8000488281</ele>
        <time>2021-06-04T09:22:48Z</time>
      </trkpt>
      <trkpt lat="48.01515" lon="6.99871">
        <ele>1162</ele>
        <time>2021-06-04T09:22:54Z</time>
      </trkpt>
      <trkpt lat="48.01527" lon="6.99851">
        <ele>1161.4000244141</ele>
        <time>2021-06-04T09:23:11Z</time>
      </trkpt>
      <trkpt lat="48.01542" lon="6.99815">
        <ele>1158.1999511719</ele>
        <time>2021-06-04T09:23:31Z</time>
      </trkpt>
      <trkpt lat="48.01555" lon="6.99791">
        <ele>1155.8000488281</ele>
        <time>2021-06-04T09:23:45Z</time>
      </trkpt>
      <trkpt lat="48.01563" lon="6.9977">
        <ele>1154.1999511719</ele>
        <time>2021-06-04T09:23:57Z</time>
      </trkpt>
      <trkpt lat="48.01563" lon="6.99768">
        <ele>1154</ele>
        <time>2021-06-04T09:23:58Z</time>
      </trkpt>
      <trkpt lat="48.01564" lon="6.99765">
        <ele>1153.5999755859</ele>
        <time>2021-06-04T09:23:59Z</time>
      </trkpt>
      <trkpt lat="48.01564" lon="6.99763">
        <ele>1153.4000244141</ele>
        <time>2021-06-04T09:24:00Z</time>
      </trkpt>
      <trkpt lat="48.01565" lon="6.99761">
        <ele>1153.1999511719</ele>
        <time>2021-06-04T09:24:01Z</time>
      </trkpt>
      <trkpt lat="48.0157" lon="6.99735">
        <ele>1150.1999511719</ele>
        <time>2021-06-04T09:24:15Z</time>
      </trkpt>
      <trkpt lat="48.01572" lon="6.9973">
        <ele>1149.8000488281</ele>
        <time>2021-06-04T09:24:18Z</time>
      </trkpt>
      <trkpt lat="48.01579" lon="6.99712">
        <ele>1147.4000244141</ele>
        <time>2021-06-04T09:24:30Z</time>
      </trkpt>
      <trkpt lat="48.01581" lon="6.99705">
        <ele>1147.1999511719</ele>
        <time>2021-06-04T09:24:33Z</time>
      </trkpt>
      <trkpt lat="48.01583" lon="6.99693">
        <ele>1145</ele>
        <time>2021-06-04T09:24:49Z</time>
      </trkpt>
      <trkpt lat="48.01596" lon="6.99689">
        <ele>1144.4000244141</ele>
        <time>2021-06-04T09:25:13Z</time>
      </trkpt>
      <trkpt lat="48.01595" lon="6.99666">
        <ele>1142.4000244141</ele>
        <time>2021-06-04T09:25:31Z</time>
      </trkpt>
      <trkpt lat="48.01602" lon="6.99647">
        <ele>1139.5999755859</ele>
        <time>2021-06-04T09:25:47Z</time>
      </trkpt>
      <trkpt lat="48.01605" lon="6.9964">
        <ele>1138.5999755859</ele>
        <time>2021-06-04T09:25:53Z</time>
      </trkpt>
      <trkpt lat="48.01612" lon="6.99623">
        <ele>1136</ele>
        <time>2021-06-04T09:26:07Z</time>
      </trkpt>
      <trkpt lat="48.0162" lon="6.99611">
        <ele>1133.4000244141</ele>
        <time>2021-06-04T09:26:20Z</time>
      </trkpt>
      <trkpt lat="48.01625" lon="6.99595">
        <ele>1131.8000488281</ele>
        <time>2021-06-04T09:26:32Z</time>
      </trkpt>
      <trkpt lat="48.01638" lon="6.99573">
        <ele>1129.1999511719</ele>
        <time>2021-06-04T09:26:46Z</time>
      </trkpt>
      <trkpt lat="48.01638" lon="6.99568">
        <ele>1126.5999755859</ele>
        <time>2021-06-04T09:27:00Z</time>
      </trkpt>
      <trkpt lat="48.01634" lon="6.99567">
        <ele>1125.8000488281</ele>
        <time>2021-06-04T09:27:07Z</time>
      </trkpt>
      <trkpt lat="48.01618" lon="6.99569">
        <ele>1123.1999511719</ele>
        <time>2021-06-04T09:27:19Z</time>
      </trkpt>
      <trkpt lat="48.01611" lon="6.99575">
        <ele>1120</ele>
        <time>2021-06-04T09:27:33Z</time>
      </trkpt>
      <trkpt lat="48.01599" lon="6.99586">
        <ele>1118.1999511719</ele>
        <time>2021-06-04T09:27:42Z</time>
      </trkpt>
      <trkpt lat="48.0159" lon="6.99594">
        <ele>1116.4000244141</ele>
        <time>2021-06-04T09:27:52Z</time>
      </trkpt>
      <trkpt lat="48.01588" lon="6.99597">
        <ele>1116</ele>
        <time>2021-06-04T09:27:55Z</time>
      </trkpt>
      <trkpt lat="48.01573" lon="6.99608">
        <ele>1113</ele>
        <time>2021-06-04T09:28:09Z</time>
      </trkpt>
      <trkpt lat="48.01553" lon="6.99612">
        <ele>1109.4000244141</ele>
        <time>2021-06-04T09:28:23Z</time>
      </trkpt>
      <trkpt lat="48.01551" lon="6.99611">
        <ele>1107.1999511719</ele>
        <time>2021-06-04T09:28:38Z</time>
      </trkpt>
      <trkpt lat="48.01557" lon="6.99607">
        <ele>1107</ele>
        <time>2021-06-04T09:28:59Z</time>
      </trkpt>
      <trkpt lat="48.01563" lon="6.99607">
        <ele>1107.4000244141</ele>
        <time>2021-06-04T09:29:31Z</time>
      </trkpt>
      <trkpt lat="48.01564" lon="6.99597">
        <ele>1106</ele>
        <time>2021-06-04T09:29:39Z</time>
      </trkpt>
      <trkpt lat="48.01564" lon="6.99594">
        <ele>1105.8000488281</ele>
        <time>2021-06-04T09:29:40Z</time>
      </trkpt>
      <trkpt lat="48.01564" lon="6.99591">
        <ele>1105.5999755859</ele>
        <time>2021-06-04T09:29:41Z</time>
      </trkpt>
      <trkpt lat="48.01569" lon="6.99571">
        <ele>1104</ele>
        <time>2021-06-04T09:29:48Z</time>
      </trkpt>
      <trkpt lat="48.0157" lon="6.99568">
        <ele>1103.8000488281</ele>
        <time>2021-06-04T09:29:49Z</time>
      </trkpt>
      <trkpt lat="48.01571" lon="6.99566">
        <ele>1103.4000244141</ele>
        <time>2021-06-04T09:29:50Z</time>
      </trkpt>
      <trkpt lat="48.01579" lon="6.99539">
        <ele>1100.4000244141</ele>
        <time>2021-06-04T09:30:00Z</time>
      </trkpt>
      <trkpt lat="48.0158" lon="6.99537">
        <ele>1100</ele>
        <time>2021-06-04T09:30:01Z</time>
      </trkpt>
      <trkpt lat="48.01588" lon="6.99525">
        <ele>1098.4000244141</ele>
        <time>2021-06-04T09:30:07Z</time>
      </trkpt>
      <trkpt lat="48.01589" lon="6.99523">
        <ele>1098.1999511719</ele>
        <time>2021-06-04T09:30:08Z</time>
      </trkpt>
      <trkpt lat="48.01591" lon="6.99521">
        <ele>1098</ele>
        <time>2021-06-04T09:30:09Z</time>
      </trkpt>
      <trkpt lat="48.01593" lon="6.99519">
        <ele>1097.8000488281</ele>
        <time>2021-06-04T09:30:10Z</time>
      </trkpt>
      <trkpt lat="48.01595" lon="6.99518">
        <ele>1097.5999755859</ele>
        <time>2021-06-04T09:30:11Z</time>
      </trkpt>
      <trkpt lat="48.01596" lon="6.99516">
        <ele>1097.4000244141</ele>
        <time>2021-06-04T09:30:12Z</time>
      </trkpt>
      <trkpt lat="48.01597" lon="6.99513">
        <ele>1097.4000244141</ele>
        <time>2021-06-04T09:30:13Z</time>
      </trkpt>
      <trkpt lat="48.01598" lon="6.99509">
        <ele>1097.1999511719</ele>
        <time>2021-06-04T09:30:14Z</time>
      </trkpt>
      <trkpt lat="48.01599" lon="6.99505">
        <ele>1097</ele>
        <time>2021-06-04T09:30:15Z</time>
      </trkpt>
      <trkpt lat="48.016" lon="6.99503">
        <ele>1096.8000488281</ele>
        <time>2021-06-04T09:30:16Z</time>
      </trkpt>
      <trkpt lat="48.01602" lon="6.995">
        <ele>1096.4000244141</ele>
        <time>2021-06-04T09:30:18Z</time>
      </trkpt>
      <trkpt lat="48.01603" lon="6.99496">
        <ele>1096.1999511719</ele>
        <time>2021-06-04T09:30:20Z</time>
      </trkpt>
      <trkpt lat="48.01613" lon="6.99481">
        <ele>1095</ele>
        <time>2021-06-04T09:30:30Z</time>
      </trkpt>
      <trkpt lat="48.01633" lon="6.99457">
        <ele>1092.8000488281</ele>
        <time>2021-06-04T09:30:47Z</time>
      </trkpt>
      <trkpt lat="48.0164" lon="6.99451">
        <ele>1092.5999755859</ele>
        <time>2021-06-04T09:30:52Z</time>
      </trkpt>
      <trkpt lat="48.01651" lon="6.9944">
        <ele>1091.1999511719</ele>
        <time>2021-06-04T09:31:00Z</time>
      </trkpt>
      <trkpt lat="48.01664" lon="6.99426">
        <ele>1089.1999511719</ele>
        <time>2021-06-04T09:31:16Z</time>
      </trkpt>
      <trkpt lat="48.01664" lon="6.99418">
        <ele>1086.4000244141</ele>
        <time>2021-06-04T09:31:32Z</time>
      </trkpt>
      <trkpt lat="48.01663" lon="6.99411">
        <ele>1084.4000244141</ele>
        <time>2021-06-04T09:31:50Z</time>
      </trkpt>
      <trkpt lat="48.01647" lon="6.99419">
        <ele>1082.1999511719</ele>
        <time>2021-06-04T09:32:05Z</time>
      </trkpt>
      <trkpt lat="48.0164" lon="6.9942">
        <ele>1080.8000488281</ele>
        <time>2021-06-04T09:32:14Z</time>
      </trkpt>
      <trkpt lat="48.01633" lon="6.99425">
        <ele>1080</ele>
        <time>2021-06-04T09:32:20Z</time>
      </trkpt>
      <trkpt lat="48.01628" lon="6.99435">
        <ele>1079.4000244141</ele>
        <time>2021-06-04T09:32:25Z</time>
      </trkpt>
      <trkpt lat="48.01619" lon="6.99439">
        <ele>1078.4000244141</ele>
        <time>2021-06-04T09:32:32Z</time>
      </trkpt>
      <trkpt lat="48.01617" lon="6.9944">
        <ele>1078</ele>
        <time>2021-06-04T09:32:34Z</time>
      </trkpt>
      <trkpt lat="48.01613" lon="6.99442">
        <ele>1077.5999755859</ele>
        <time>2021-06-04T09:32:36Z</time>
      </trkpt>
      <trkpt lat="48.01609" lon="6.99443">
        <ele>1077.4000244141</ele>
        <time>2021-06-04T09:32:38Z</time>
      </trkpt>
      <trkpt lat="48.01593" lon="6.99454">
        <ele>1076</ele>
        <time>2021-06-04T09:32:50Z</time>
      </trkpt>
      <trkpt lat="48.01577" lon="6.99462">
        <ele>1074.8000488281</ele>
        <time>2021-06-04T09:33:04Z</time>
      </trkpt>
      <trkpt lat="48.01576" lon="6.99463">
        <ele>1074.8000488281</ele>
        <time>2021-06-04T09:33:05Z</time>
      </trkpt>
      <trkpt lat="48.01575" lon="6.99464">
        <ele>1074.8000488281</ele>
        <time>2021-06-04T09:33:06Z</time>
      </trkpt>
      <trkpt lat="48.01551" lon="6.99488">
        <ele>1072.8000488281</ele>
        <time>2021-06-04T09:33:26Z</time>
      </trkpt>
      <trkpt lat="48.01533" lon="6.99505">
        <ele>1069.8000488281</ele>
        <time>2021-06-04T09:33:44Z</time>
      </trkpt>
      <trkpt lat="48.0153" lon="6.99498">
        <ele>1068.8000488281</ele>
        <time>2021-06-04T09:33:49Z</time>
      </trkpt>
      <trkpt lat="48.01522" lon="6.99489">
        <ele>1066</ele>
        <time>2021-06-04T09:34:06Z</time>
      </trkpt>
      <trkpt lat="48.01513" lon="6.99493">
        <ele>1063.5999755859</ele>
        <time>2021-06-04T09:34:22Z</time>
      </trkpt>
      <trkpt lat="48.01513" lon="6.99494">
        <ele>1064</ele>
        <time>2021-06-04T09:34:48Z</time>
      </trkpt>
      <trkpt lat="48.01511" lon="6.99505">
        <ele>1062.5999755859</ele>
        <time>2021-06-04T09:35:05Z</time>
      </trkpt>
      <trkpt lat="48.01512" lon="6.99509">
        <ele>1062.5999755859</ele>
        <time>2021-06-04T09:35:07Z</time>
      </trkpt>
      <trkpt lat="48.01512" lon="6.99533">
        <ele>1060.8000488281</ele>
        <time>2021-06-04T09:35:19Z</time>
      </trkpt>
      <trkpt lat="48.01514" lon="6.9954">
        <ele>1060.1999511719</ele>
        <time>2021-06-04T09:35:22Z</time>
      </trkpt>
      <trkpt lat="48.01508" lon="6.9956">
        <ele>1058</ele>
        <time>2021-06-04T09:35:35Z</time>
      </trkpt>
      <trkpt lat="48.01506" lon="6.9956">
        <ele>1058</ele>
        <time>2021-06-04T09:35:36Z</time>
      </trkpt>
      <trkpt lat="48.015" lon="6.9955">
        <ele>1055.8000488281</ele>
        <time>2021-06-04T09:35:47Z</time>
      </trkpt>
      <trkpt lat="48.01501" lon="6.99552">
        <ele>1054</ele>
        <time>2021-06-04T09:35:57Z</time>
      </trkpt>
      <trkpt lat="48.01501" lon="6.99555">
        <ele>1053.4000244141</ele>
        <time>2021-06-04T09:35:59Z</time>
      </trkpt>
      <trkpt lat="48.015" lon="6.99578">
        <ele>1050.5999755859</ele>
        <time>2021-06-04T09:36:16Z</time>
      </trkpt>
      <trkpt lat="48.01499" lon="6.99585">
        <ele>1050</ele>
        <time>2021-06-04T09:36:20Z</time>
      </trkpt>
      <trkpt lat="48.01497" lon="6.996">
        <ele>1048.5999755859</ele>
        <time>2021-06-04T09:36:30Z</time>
      </trkpt>
      <trkpt lat="48.01491" lon="6.99609">
        <ele>1047.5999755859</ele>
        <time>2021-06-04T09:36:37Z</time>
      </trkpt>
      <trkpt lat="48.01481" lon="6.99625">
        <ele>1045.8000488281</ele>
        <time>2021-06-04T09:36:51Z</time>
      </trkpt>
      <trkpt lat="48.01477" lon="6.99636">
        <ele>1044.4000244141</ele>
        <time>2021-06-04T09:37:02Z</time>
      </trkpt>
      <trkpt lat="48.0147" lon="6.99646">
        <ele>1042.8000488281</ele>
        <time>2021-06-04T09:37:12Z</time>
      </trkpt>
      <trkpt lat="48.01467" lon="6.99647">
        <ele>1042.4000244141</ele>
        <time>2021-06-04T09:37:15Z</time>
      </trkpt>
      <trkpt lat="48.01448" lon="6.9966">
        <ele>1040.4000244141</ele>
        <time>2021-06-04T09:37:29Z</time>
      </trkpt>
      <trkpt lat="48.0143" lon="6.99667">
        <ele>1038</ele>
        <time>2021-06-04T09:37:43Z</time>
      </trkpt>
      <trkpt lat="48.01419" lon="6.99672">
        <ele>1035</ele>
        <time>2021-06-04T09:37:55Z</time>
      </trkpt>
      <trkpt lat="48.01411" lon="6.99665">
        <ele>1033.1999511719</ele>
        <time>2021-06-04T09:38:05Z</time>
      </trkpt>
      <trkpt lat="48.0141" lon="6.99663">
        <ele>1033</ele>
        <time>2021-06-04T09:38:06Z</time>
      </trkpt>
      <trkpt lat="48.0141" lon="6.99661">
        <ele>1032.8000488281</ele>
        <time>2021-06-04T09:38:07Z</time>
      </trkpt>
      <trkpt lat="48.01416" lon="6.99645">
        <ele>1031.8000488281</ele>
        <time>2021-06-04T09:38:21Z</time>
      </trkpt>
      <trkpt lat="48.01417" lon="6.99643">
        <ele>1031.8000488281</ele>
        <time>2021-06-04T09:38:22Z</time>
      </trkpt>
      <trkpt lat="48.01423" lon="6.99634">
        <ele>1030.8000488281</ele>
        <time>2021-06-04T09:38:32Z</time>
      </trkpt>
      <trkpt lat="48.01417" lon="6.99638">
        <ele>1028.8000488281</ele>
        <time>2021-06-04T09:38:44Z</time>
      </trkpt>
      <trkpt lat="48.0141" lon="6.99647">
        <ele>1025.4000244141</ele>
        <time>2021-06-04T09:38:58Z</time>
      </trkpt>
      <trkpt lat="48.01396" lon="6.99656">
        <ele>1022.5999755859</ele>
        <time>2021-06-04T09:39:14Z</time>
      </trkpt>
      <trkpt lat="48.01388" lon="6.99673">
        <ele>1019.4000244141</ele>
        <time>2021-06-04T09:39:28Z</time>
      </trkpt>
      <trkpt lat="48.01368" lon="6.99686">
        <ele>1016.4000244141</ele>
        <time>2021-06-04T09:39:45Z</time>
      </trkpt>
      <trkpt lat="48.01357" lon="6.99693">
        <ele>1014.200012207</ele>
        <time>2021-06-04T09:39:58Z</time>
      </trkpt>
      <trkpt lat="48.01347" lon="6.997">
        <ele>1012.200012207</ele>
        <time>2021-06-04T09:40:15Z</time>
      </trkpt>
      <trkpt lat="48.01328" lon="6.99712">
        <ele>1009.799987793</ele>
        <time>2021-06-04T09:40:31Z</time>
      </trkpt>
      <trkpt lat="48.01314" lon="6.99724">
        <ele>1008.200012207</ele>
        <time>2021-06-04T09:40:45Z</time>
      </trkpt>
      <trkpt lat="48.01308" lon="6.99729">
        <ele>1007.4000244141</ele>
        <time>2021-06-04T09:40:50Z</time>
      </trkpt>
      <trkpt lat="48.01306" lon="6.9973">
        <ele>1007</ele>
        <time>2021-06-04T09:40:52Z</time>
      </trkpt>
      <trkpt lat="48.01305" lon="6.99731">
        <ele>1006.799987793</ele>
        <time>2021-06-04T09:40:53Z</time>
      </trkpt>
      <trkpt lat="48.01293" lon="6.99747">
        <ele>1004.5999755859</ele>
        <time>2021-06-04T09:41:09Z</time>
      </trkpt>
      <trkpt lat="48.0129" lon="6.99758">
        <ele>1002</ele>
        <time>2021-06-04T09:41:23Z</time>
      </trkpt>
      <trkpt lat="48.01289" lon="6.9976">
        <ele>1001.799987793</ele>
        <time>2021-06-04T09:41:24Z</time>
      </trkpt>
      <trkpt lat="48.01283" lon="6.99776">
        <ele>999.40002441406</ele>
        <time>2021-06-04T09:41:36Z</time>
      </trkpt>
      <trkpt lat="48.01273" lon="6.99791">
        <ele>997.79998779297</ele>
        <time>2021-06-04T09:41:47Z</time>
      </trkpt>
      <trkpt lat="48.0127" lon="6.99794">
        <ele>996.79998779297</ele>
        <time>2021-06-04T09:41:51Z</time>
      </trkpt>
      <trkpt lat="48.01257" lon="6.99808">
        <ele>994.40002441406</ele>
        <time>2021-06-04T09:42:03Z</time>
      </trkpt>
      <trkpt lat="48.01253" lon="6.99811">
        <ele>993.59997558594</ele>
        <time>2021-06-04T09:42:06Z</time>
      </trkpt>
      <trkpt lat="48.01241" lon="6.9983">
        <ele>991.79998779297</ele>
        <time>2021-06-04T09:42:17Z</time>
      </trkpt>
      <trkpt lat="48.01239" lon="6.99833">
        <ele>991.59997558594</ele>
        <time>2021-06-04T09:42:18Z</time>
      </trkpt>
      <trkpt lat="48.01227" lon="6.99843">
        <ele>990.40002441406</ele>
        <time>2021-06-04T09:42:25Z</time>
      </trkpt>
      <trkpt lat="48.01214" lon="6.9985">
        <ele>987.79998779297</ele>
        <time>2021-06-04T09:42:38Z</time>
      </trkpt>
      <trkpt lat="48.01208" lon="6.99858">
        <ele>986.59997558594</ele>
        <time>2021-06-04T09:42:46Z</time>
      </trkpt>
      <trkpt lat="48.01197" lon="6.99873">
        <ele>985.20001220703</ele>
        <time>2021-06-04T09:42:57Z</time>
      </trkpt>
      <trkpt lat="48.01195" lon="6.99875">
        <ele>985</ele>
        <time>2021-06-04T09:42:59Z</time>
      </trkpt>
      <trkpt lat="48.01182" lon="6.99885">
        <ele>983.40002441406</ele>
        <time>2021-06-04T09:43:11Z</time>
      </trkpt>
      <trkpt lat="48.01165" lon="6.99882">
        <ele>982</ele>
        <time>2021-06-04T09:43:22Z</time>
      </trkpt>
      <trkpt lat="48.01147" lon="6.99884">
        <ele>979.20001220703</ele>
        <time>2021-06-04T09:43:39Z</time>
      </trkpt>
      <trkpt lat="48.01135" lon="6.99889">
        <ele>976.40002441406</ele>
        <time>2021-06-04T09:43:56Z</time>
      </trkpt>
      <trkpt lat="48.01116" lon="6.99908">
        <ele>973.59997558594</ele>
        <time>2021-06-04T09:44:16Z</time>
      </trkpt>
      <trkpt lat="48.01109" lon="6.99922">
        <ele>970.59997558594</ele>
        <time>2021-06-04T09:44:30Z</time>
      </trkpt>
      <trkpt lat="48.01103" lon="6.99948">
        <ele>968.79998779297</ele>
        <time>2021-06-04T09:44:45Z</time>
      </trkpt>
      <trkpt lat="48.01091" lon="6.99976">
        <ele>966.40002441406</ele>
        <time>2021-06-04T09:45:02Z</time>
      </trkpt>
      <trkpt lat="48.01094" lon="6.99996">
        <ele>965.20001220703</ele>
        <time>2021-06-04T09:45:12Z</time>
      </trkpt>
      <trkpt lat="48.01095" lon="7.00027">
        <ele>963.40002441406</ele>
        <time>2021-06-04T09:45:26Z</time>
      </trkpt>
      <trkpt lat="48.01097" lon="7.00056">
        <ele>961.40002441406</ele>
        <time>2021-06-04T09:45:41Z</time>
      </trkpt>
      <trkpt lat="48.01098" lon="7.00065">
        <ele>960.40002441406</ele>
        <time>2021-06-04T09:45:45Z</time>
      </trkpt>
      <trkpt lat="48.01098" lon="7.00067">
        <ele>960.20001220703</ele>
        <time>2021-06-04T09:45:46Z</time>
      </trkpt>
      <trkpt lat="48.011" lon="7.00091">
        <ele>958</ele>
        <time>2021-06-04T09:46:00Z</time>
      </trkpt>
      <trkpt lat="48.01098" lon="7.00125">
        <ele>955</ele>
        <time>2021-06-04T09:46:18Z</time>
      </trkpt>
      <trkpt lat="48.01088" lon="7.00129">
        <ele>951.79998779297</ele>
        <time>2021-06-04T09:46:30Z</time>
      </trkpt>
      <trkpt lat="48.01084" lon="7.00118">
        <ele>950.59997558594</ele>
        <time>2021-06-04T09:46:39Z</time>
      </trkpt>
      <trkpt lat="48.0107" lon="7.00096">
        <ele>947.59997558594</ele>
        <time>2021-06-04T09:46:57Z</time>
      </trkpt>
      <trkpt lat="48.01056" lon="7.00072">
        <ele>945.40002441406</ele>
        <time>2021-06-04T09:47:14Z</time>
      </trkpt>
      <trkpt lat="48.01046" lon="7.00056">
        <ele>944.20001220703</ele>
        <time>2021-06-04T09:47:23Z</time>
      </trkpt>
      <trkpt lat="48.01044" lon="7.00047">
        <ele>943.79998779297</ele>
        <time>2021-06-04T09:47:26Z</time>
      </trkpt>
      <trkpt lat="48.01038" lon="7.00024">
        <ele>942</ele>
        <time>2021-06-04T09:47:37Z</time>
      </trkpt>
      <trkpt lat="48.01034" lon="7.00002">
        <ele>939.59997558594</ele>
        <time>2021-06-04T09:47:56Z</time>
      </trkpt>
      <trkpt lat="48.01034" lon="6.99979">
        <ele>937.79998779297</ele>
        <time>2021-06-04T09:48:11Z</time>
      </trkpt>
      <trkpt lat="48.01031" lon="6.99966">
        <ele>936.59997558594</ele>
        <time>2021-06-04T09:48:22Z</time>
      </trkpt>
      <trkpt lat="48.01027" lon="6.99947">
        <ele>936.40002441406</ele>
        <time>2021-06-04T09:48:45Z</time>
      </trkpt>
      <trkpt lat="48.01023" lon="6.99929">
        <ele>935.59997558594</ele>
        <time>2021-06-04T09:49:01Z</time>
      </trkpt>
      <trkpt lat="48.01022" lon="6.99924">
        <ele>935.20001220703</ele>
        <time>2021-06-04T09:49:05Z</time>
      </trkpt>
      <trkpt lat="48.01019" lon="6.99908">
        <ele>933</ele>
        <time>2021-06-04T09:49:19Z</time>
      </trkpt>
      <trkpt lat="48.01027" lon="6.99884">
        <ele>931.59997558594</ele>
        <time>2021-06-04T09:49:32Z</time>
      </trkpt>
      <trkpt lat="48.01031" lon="6.99861">
        <ele>930</ele>
        <time>2021-06-04T09:49:47Z</time>
      </trkpt>
      <trkpt lat="48.01036" lon="6.99842">
        <ele>928.40002441406</ele>
        <time>2021-06-04T09:49:58Z</time>
      </trkpt>
      <trkpt lat="48.01042" lon="6.9983">
        <ele>927.20001220703</ele>
        <time>2021-06-04T09:50:07Z</time>
      </trkpt>
      <trkpt lat="48.0105" lon="6.99809">
        <ele>925.79998779297</ele>
        <time>2021-06-04T09:50:23Z</time>
      </trkpt>
      <trkpt lat="48.01065" lon="6.99791">
        <ele>926.20001220703</ele>
        <time>2021-06-04T09:50:35Z</time>
      </trkpt>
      <trkpt lat="48.01078" lon="6.99788">
        <ele>926.40002441406</ele>
        <time>2021-06-04T09:50:57Z</time>
      </trkpt>
      <trkpt lat="48.01086" lon="6.99758">
        <ele>927</ele>
        <time>2021-06-04T09:51:14Z</time>
      </trkpt>
      <trkpt lat="48.01091" lon="6.99758">
        <ele>927</ele>
        <time>2021-06-04T09:51:42Z</time>
      </trkpt>
      <trkpt lat="48.01099" lon="6.99768">
        <ele>926.59997558594</ele>
        <time>2021-06-04T09:52:05Z</time>
      </trkpt>
      <trkpt lat="48.01094" lon="6.99761">
        <ele>926.20001220703</ele>
        <time>2021-06-04T09:52:26Z</time>
      </trkpt>
      <trkpt lat="48.01091" lon="6.99763">
        <ele>926.20001220703</ele>
        <time>2021-06-04T09:52:29Z</time>
      </trkpt>
      <trkpt lat="48.01086" lon="6.99764">
        <ele>926</ele>
        <time>2021-06-04T09:52:40Z</time>
      </trkpt>
      <trkpt lat="48.01081" lon="6.99757">
        <ele>926</ele>
        <time>2021-06-04T09:52:49Z</time>
      </trkpt>
      <trkpt lat="48.0108" lon="6.99756">
        <ele>926</ele>
        <time>2021-06-04T09:52:50Z</time>
      </trkpt>
      <trkpt lat="48.01079" lon="6.99756">
        <ele>926</ele>
        <time>2021-06-04T09:52:51Z</time>
      </trkpt>
      <trkpt lat="48.01078" lon="6.99755">
        <ele>926</ele>
        <time>2021-06-04T09:52:53Z</time>
      </trkpt>
      <trkpt lat="48.01077" lon="6.99753">
        <ele>926</ele>
        <time>2021-06-04T09:52:54Z</time>
      </trkpt>
      <trkpt lat="48.01075" lon="6.99749">
        <ele>926.20001220703</ele>
        <time>2021-06-04T09:52:58Z</time>
      </trkpt>
      <trkpt lat="48.01071" lon="6.99746">
        <ele>926.20001220703</ele>
        <time>2021-06-04T09:53:01Z</time>
      </trkpt>
      <trkpt lat="48.01069" lon="6.99744">
        <ele>926.40002441406</ele>
        <time>2021-06-04T09:53:03Z</time>
      </trkpt>
      <trkpt lat="48.01068" lon="6.99743">
        <ele>926.40002441406</ele>
        <time>2021-06-04T09:53:04Z</time>
      </trkpt>
      <trkpt lat="48.01067" lon="6.99743">
        <ele>926.40002441406</ele>
        <time>2021-06-04T09:53:05Z</time>
      </trkpt>
      <trkpt lat="48.01067" lon="6.99742">
        <ele>926.40002441406</ele>
        <time>2021-06-04T09:53:06Z</time>
      </trkpt>
      <trkpt lat="48.01066" lon="6.9974">
        <ele>926.59997558594</ele>
        <time>2021-06-04T09:53:07Z</time>
      </trkpt>
      <trkpt lat="48.01065" lon="6.99731">
        <ele>926.59997558594</ele>
        <time>2021-06-04T09:53:14Z</time>
      </trkpt>
      <trkpt lat="48.01065" lon="6.9973">
        <ele>926.79998779297</ele>
        <time>2021-06-04T09:53:15Z</time>
      </trkpt>
      <trkpt lat="48.01062" lon="6.99721">
        <ele>926.79998779297</ele>
        <time>2021-06-04T09:53:24Z</time>
      </trkpt>
      <trkpt lat="48.01061" lon="6.9971">
        <ele>926.59997558594</ele>
        <time>2021-06-04T09:53:31Z</time>
      </trkpt>
      <trkpt lat="48.01061" lon="6.99708">
        <ele>926.59997558594</ele>
        <time>2021-06-04T09:53:32Z</time>
      </trkpt>
      <trkpt lat="48.0106" lon="6.99706">
        <ele>926.79998779297</ele>
        <time>2021-06-04T09:53:33Z</time>
      </trkpt>
      <trkpt lat="48.01054" lon="6.99677">
        <ele>926.79998779297</ele>
        <time>2021-06-04T09:53:49Z</time>
      </trkpt>
      <trkpt lat="48.01048" lon="6.99664">
        <ele>926.59997558594</ele>
        <time>2021-06-04T09:54:06Z</time>
      </trkpt>
      <trkpt lat="48.01048" lon="6.99661">
        <ele>926.59997558594</ele>
        <time>2021-06-04T09:54:23Z</time>
      </trkpt>
      <trkpt lat="48.01052" lon="6.99657">
        <ele>926.59997558594</ele>
        <time>2021-06-04T09:54:43Z</time>
      </trkpt>
      <trkpt lat="48.01053" lon="6.99653">
        <ele>926.40002441406</ele>
        <time>2021-06-04T09:55:06Z</time>
      </trkpt>
      <trkpt lat="48.01052" lon="6.99652">
        <ele>926.40002441406</ele>
        <time>2021-06-04T09:55:32Z</time>
      </trkpt>
      <trkpt lat="48.01058" lon="6.99652">
        <ele>925.79998779297</ele>
        <time>2021-06-04T09:55:58Z</time>
      </trkpt>
      <trkpt lat="48.01057" lon="6.99653">
        <ele>925.59997558594</ele>
        <time>2021-06-04T09:56:01Z</time>
      </trkpt>
      <trkpt lat="48.01053" lon="6.9965">
        <ele>925.59997558594</ele>
        <time>2021-06-04T09:56:33Z</time>
      </trkpt>
      <trkpt lat="48.01057" lon="6.99648">
        <ele>926</ele>
        <time>2021-06-04T09:57:01Z</time>
      </trkpt>
      <trkpt lat="48.01054" lon="6.99645">
        <ele>926</ele>
        <time>2021-06-04T09:57:22Z</time>
      </trkpt>
      <trkpt lat="48.01055" lon="6.99645">
        <ele>926</ele>
        <time>2021-06-04T09:57:40Z</time>
      </trkpt>
      <trkpt lat="48.01051" lon="6.99649">
        <ele>926</ele>
        <time>2021-06-04T09:58:03Z</time>
      </trkpt>
      <trkpt lat="48.0105" lon="6.99649">
        <ele>926</ele>
        <time>2021-06-04T09:58:04Z</time>
      </trkpt>
      <trkpt lat="48.0106" lon="6.99651">
        <ele>926.20001220703</ele>
        <time>2021-06-04T09:58:33Z</time>
      </trkpt>
      <trkpt lat="48.01063" lon="6.99662">
        <ele>926.40002441406</ele>
        <time>2021-06-04T09:58:54Z</time>
      </trkpt>
      <trkpt lat="48.01067" lon="6.99663">
        <ele>926.40002441406</ele>
        <time>2021-06-04T09:59:19Z</time>
      </trkpt>
      <trkpt lat="48.01068" lon="6.99664">
        <ele>926.40002441406</ele>
        <time>2021-06-04T09:59:27Z</time>
      </trkpt>
      <trkpt lat="48.01059" lon="6.99653">
        <ele>927</ele>
        <time>2021-06-04T10:00:01Z</time>
      </trkpt>
      <trkpt lat="48.01059" lon="6.99649">
        <ele>926.79998779297</ele>
        <time>2021-06-04T10:00:36Z</time>
      </trkpt>
      <trkpt lat="48.01066" lon="6.9965">
        <ele>926.79998779297</ele>
        <time>2021-06-04T10:01:08Z</time>
      </trkpt>
      <trkpt lat="48.01069" lon="6.99654">
        <ele>926.79998779297</ele>
        <time>2021-06-04T10:01:39Z</time>
      </trkpt>
      <trkpt lat="48.01058" lon="6.99651">
        <ele>927</ele>
        <time>2021-06-04T10:02:11Z</time>
      </trkpt>
      <trkpt lat="48.01056" lon="6.9965">
        <ele>927</ele>
        <time>2021-06-04T10:02:42Z</time>
      </trkpt>
      <trkpt lat="48.0106" lon="6.99645">
        <ele>927</ele>
        <time>2021-06-04T10:03:11Z</time>
      </trkpt>
      <trkpt lat="48.01061" lon="6.99644">
        <ele>927</ele>
        <time>2021-06-04T10:03:38Z</time>
      </trkpt>
      <trkpt lat="48.01065" lon="6.99651">
        <ele>927</ele>
        <time>2021-06-04T10:04:06Z</time>
      </trkpt>
      <trkpt lat="48.01068" lon="6.99652">
        <ele>927</ele>
        <time>2021-06-04T10:04:39Z</time>
      </trkpt>
      <trkpt lat="48.01067" lon="6.99651">
        <ele>927</ele>
        <time>2021-06-04T10:04:40Z</time>
      </trkpt>
      <trkpt lat="48.01058" lon="6.99649">
        <ele>927.40002441406</ele>
        <time>2021-06-04T10:04:50Z</time>
      </trkpt>
      <trkpt lat="48.01055" lon="6.9965">
        <ele>927.40002441406</ele>
        <time>2021-06-04T10:05:20Z</time>
      </trkpt>
      <trkpt lat="48.01054" lon="6.99648">
        <ele>927.79998779297</ele>
        <time>2021-06-04T10:06:02Z</time>
      </trkpt>
      <trkpt lat="48.01065" lon="6.9965">
        <ele>927.79998779297</ele>
        <time>2021-06-04T10:06:42Z</time>
      </trkpt>
      <trkpt lat="48.01059" lon="6.99648">
        <ele>927.79998779297</ele>
        <time>2021-06-04T10:07:28Z</time>
      </trkpt>
      <trkpt lat="48.01061" lon="6.99648">
        <ele>927.79998779297</ele>
        <time>2021-06-04T10:08:02Z</time>
      </trkpt>
      <trkpt lat="48.01061" lon="6.99659">
        <ele>927.79998779297</ele>
        <time>2021-06-04T10:08:43Z</time>
      </trkpt>
      <trkpt lat="48.01057" lon="6.99652">
        <ele>927.79998779297</ele>
        <time>2021-06-04T10:09:27Z</time>
      </trkpt>
      <trkpt lat="48.01045" lon="6.99642">
        <ele>926.79998779297</ele>
        <time>2021-06-04T10:10:01Z</time>
      </trkpt>
      <trkpt lat="48.01037" lon="6.99644">
        <ele>926.79998779297</ele>
        <time>2021-06-04T10:10:24Z</time>
      </trkpt>
      <trkpt lat="48.01047" lon="6.99651">
        <ele>927</ele>
        <time>2021-06-04T10:10:58Z</time>
      </trkpt>
      <trkpt lat="48.01055" lon="6.99647">
        <ele>927.40002441406</ele>
        <time>2021-06-04T10:11:25Z</time>
      </trkpt>
      <trkpt lat="48.0106" lon="6.99649">
        <ele>927.40002441406</ele>
        <time>2021-06-04T10:11:58Z</time>
      </trkpt>
      <trkpt lat="48.01062" lon="6.9965">
        <ele>927.40002441406</ele>
        <time>2021-06-04T10:12:31Z</time>
      </trkpt>
      <trkpt lat="48.01071" lon="6.99657">
        <ele>927.40002441406</ele>
        <time>2021-06-04T10:13:06Z</time>
      </trkpt>
      <trkpt lat="48.01063" lon="6.99654">
        <ele>927.40002441406</ele>
        <time>2021-06-04T10:13:35Z</time>
      </trkpt>
      <trkpt lat="48.01052" lon="6.99653">
        <ele>927.79998779297</ele>
        <time>2021-06-04T10:13:51Z</time>
      </trkpt>
      <trkpt lat="48.01053" lon="6.99649">
        <ele>927.79998779297</ele>
        <time>2021-06-04T10:14:23Z</time>
      </trkpt>
      <trkpt lat="48.01058" lon="6.99651">
        <ele>927.79998779297</ele>
        <time>2021-06-04T10:14:58Z</time>
      </trkpt>
      <trkpt lat="48.01051" lon="6.99648">
        <ele>928</ele>
        <time>2021-06-04T10:15:30Z</time>
      </trkpt>
      <trkpt lat="48.01051" lon="6.99649">
        <ele>929</ele>
        <time>2021-06-04T10:15:56Z</time>
      </trkpt>
      <trkpt lat="48.01051" lon="6.99652">
        <ele>928.59997558594</ele>
        <time>2021-06-04T10:16:10Z</time>
      </trkpt>
      <trkpt lat="48.01055" lon="6.99652">
        <ele>928.79998779297</ele>
        <time>2021-06-04T10:16:22Z</time>
      </trkpt>
      <trkpt lat="48.01059" lon="6.99651">
        <ele>928.79998779297</ele>
        <time>2021-06-04T10:16:48Z</time>
      </trkpt>
      <trkpt lat="48.01054" lon="6.99649">
        <ele>929</ele>
        <time>2021-06-04T10:17:13Z</time>
      </trkpt>
      <trkpt lat="48.01054" lon="6.99642">
        <ele>929</ele>
        <time>2021-06-04T10:17:33Z</time>
      </trkpt>
      <trkpt lat="48.01057" lon="6.99632">
        <ele>929</ele>
        <time>2021-06-04T10:17:49Z</time>
      </trkpt>
      <trkpt lat="48.01053" lon="6.99623">
        <ele>929</ele>
        <time>2021-06-04T10:18:18Z</time>
      </trkpt>
      <trkpt lat="48.01056" lon="6.99611">
        <ele>929</ele>
        <time>2021-06-04T10:18:36Z</time>
      </trkpt>
      <trkpt lat="48.01056" lon="6.9959">
        <ele>929</ele>
        <time>2021-06-04T10:18:56Z</time>
      </trkpt>
      <trkpt lat="48.0106" lon="6.99561">
        <ele>929</ele>
        <time>2021-06-04T10:19:17Z</time>
      </trkpt>
      <trkpt lat="48.01059" lon="6.99554">
        <ele>932</ele>
        <time>2021-06-04T10:19:22Z</time>
      </trkpt>
      <trkpt lat="48.01059" lon="6.99551">
        <ele>935</ele>
        <time>2021-06-04T10:19:24Z</time>
      </trkpt>
      <trkpt lat="48.01062" lon="6.99534">
        <ele>937.20001220703</ele>
        <time>2021-06-04T10:19:37Z</time>
      </trkpt>
      <trkpt lat="48.01068" lon="6.99518">
        <ele>939.20001220703</ele>
        <time>2021-06-04T10:19:59Z</time>
      </trkpt>
      <trkpt lat="48.0107" lon="6.99506">
        <ele>940.20001220703</ele>
        <time>2021-06-04T10:20:13Z</time>
      </trkpt>
      <trkpt lat="48.01075" lon="6.99494">
        <ele>941.40002441406</ele>
        <time>2021-06-04T10:20:28Z</time>
      </trkpt>
      <trkpt lat="48.01078" lon="6.99483">
        <ele>942.59997558594</ele>
        <time>2021-06-04T10:20:52Z</time>
      </trkpt>
      <trkpt lat="48.01082" lon="6.99474">
        <ele>944.20001220703</ele>
        <time>2021-06-04T10:21:11Z</time>
      </trkpt>
      <trkpt lat="48.01083" lon="6.99459">
        <ele>945.59997558594</ele>
        <time>2021-06-04T10:21:29Z</time>
      </trkpt>
      <trkpt lat="48.01083" lon="6.99435">
        <ele>947</ele>
        <time>2021-06-04T10:21:48Z</time>
      </trkpt>
      <trkpt lat="48.01082" lon="6.99408">
        <ele>949.20001220703</ele>
        <time>2021-06-04T10:22:09Z</time>
      </trkpt>
      <trkpt lat="48.01069" lon="6.99385">
        <ele>951.59997558594</ele>
        <time>2021-06-04T10:22:30Z</time>
      </trkpt>
      <trkpt lat="48.01061" lon="6.9936">
        <ele>953</ele>
        <time>2021-06-04T10:22:52Z</time>
      </trkpt>
      <trkpt lat="48.01054" lon="6.9935">
        <ele>955.20001220703</ele>
        <time>2021-06-04T10:23:05Z</time>
      </trkpt>
      <trkpt lat="48.01045" lon="6.99336">
        <ele>956.40002441406</ele>
        <time>2021-06-04T10:23:19Z</time>
      </trkpt>
      <trkpt lat="48.01034" lon="6.99312">
        <ele>958.79998779297</ele>
        <time>2021-06-04T10:23:41Z</time>
      </trkpt>
      <trkpt lat="48.01021" lon="6.99292">
        <ele>960.20001220703</ele>
        <time>2021-06-04T10:24:00Z</time>
      </trkpt>
      <trkpt lat="48.01008" lon="6.99291">
        <ele>962</ele>
        <time>2021-06-04T10:24:15Z</time>
      </trkpt>
      <trkpt lat="48.01005" lon="6.99292">
        <ele>962.40002441406</ele>
        <time>2021-06-04T10:24:18Z</time>
      </trkpt>
      <trkpt lat="48.01004" lon="6.99293">
        <ele>962.40002441406</ele>
        <time>2021-06-04T10:24:19Z</time>
      </trkpt>
      <trkpt lat="48.00991" lon="6.99299">
        <ele>963.40002441406</ele>
        <time>2021-06-04T10:24:34Z</time>
      </trkpt>
      <trkpt lat="48.00981" lon="6.99305">
        <ele>965.20001220703</ele>
        <time>2021-06-04T10:24:51Z</time>
      </trkpt>
      <trkpt lat="48.00977" lon="6.99305">
        <ele>966</ele>
        <time>2021-06-04T10:24:56Z</time>
      </trkpt>
      <trkpt lat="48.00967" lon="6.99311">
        <ele>967</ele>
        <time>2021-06-04T10:25:06Z</time>
      </trkpt>
      <trkpt lat="48.0096" lon="6.99314">
        <ele>968</ele>
        <time>2021-06-04T10:25:17Z</time>
      </trkpt>
      <trkpt lat="48.0096" lon="6.99314">
        <ele>969.20001220703</ele>
        <time>2021-06-04T10:25:34Z</time>
      </trkpt>
      <trkpt lat="48.00975" lon="6.99301">
        <ele>970.79998779297</ele>
        <time>2021-06-04T10:25:55Z</time>
      </trkpt>
      <trkpt lat="48.00982" lon="6.99288">
        <ele>972.20001220703</ele>
        <time>2021-06-04T10:26:10Z</time>
      </trkpt>
      <trkpt lat="48.00998" lon="6.99277">
        <ele>973.79998779297</ele>
        <time>2021-06-04T10:26:33Z</time>
      </trkpt>
      <trkpt lat="48.01012" lon="6.99266">
        <ele>975.79998779297</ele>
        <time>2021-06-04T10:26:55Z</time>
      </trkpt>
      <trkpt lat="48.01024" lon="6.9924">
        <ele>977.20001220703</ele>
        <time>2021-06-04T10:27:17Z</time>
      </trkpt>
      <trkpt lat="48.01038" lon="6.99224">
        <ele>979</ele>
        <time>2021-06-04T10:27:39Z</time>
      </trkpt>
      <trkpt lat="48.0105" lon="6.99216">
        <ele>981.59997558594</ele>
        <time>2021-06-04T10:28:03Z</time>
      </trkpt>
      <trkpt lat="48.01069" lon="6.99194">
        <ele>984</ele>
        <time>2021-06-04T10:28:25Z</time>
      </trkpt>
      <trkpt lat="48.01077" lon="6.9918">
        <ele>985.59997558594</ele>
        <time>2021-06-04T10:28:37Z</time>
      </trkpt>
      <trkpt lat="48.0109" lon="6.99167">
        <ele>988.59997558594</ele>
        <time>2021-06-04T10:28:57Z</time>
      </trkpt>
      <trkpt lat="48.01111" lon="6.99148">
        <ele>991.59997558594</ele>
        <time>2021-06-04T10:29:23Z</time>
      </trkpt>
      <trkpt lat="48.01115" lon="6.99132">
        <ele>994.20001220703</ele>
        <time>2021-06-04T10:29:43Z</time>
      </trkpt>
      <trkpt lat="48.01116" lon="6.99112">
        <ele>995.59997558594</ele>
        <time>2021-06-04T10:29:59Z</time>
      </trkpt>
      <trkpt lat="48.01112" lon="6.99084">
        <ele>998.20001220703</ele>
        <time>2021-06-04T10:30:20Z</time>
      </trkpt>
      <trkpt lat="48.011" lon="6.99068">
        <ele>1000.200012207</ele>
        <time>2021-06-04T10:30:38Z</time>
      </trkpt>
      <trkpt lat="48.01098" lon="6.99074">
        <ele>1000.5999755859</ele>
        <time>2021-06-04T10:30:58Z</time>
      </trkpt>
      <trkpt lat="48.01096" lon="6.99078">
        <ele>1002.200012207</ele>
        <time>2021-06-04T10:31:15Z</time>
      </trkpt>
      <trkpt lat="48.01088" lon="6.99054">
        <ele>1005.4000244141</ele>
        <time>2021-06-04T10:31:37Z</time>
      </trkpt>
      <trkpt lat="48.01073" lon="6.99032">
        <ele>1007.5999755859</ele>
        <time>2021-06-04T10:31:58Z</time>
      </trkpt>
      <trkpt lat="48.01065" lon="6.99007">
        <ele>1009.799987793</ele>
        <time>2021-06-04T10:32:22Z</time>
      </trkpt>
      <trkpt lat="48.01058" lon="6.98986">
        <ele>1011.5999755859</ele>
        <time>2021-06-04T10:32:45Z</time>
      </trkpt>
      <trkpt lat="48.01054" lon="6.98973">
        <ele>1014.799987793</ele>
        <time>2021-06-04T10:33:04Z</time>
      </trkpt>
      <trkpt lat="48.01044" lon="6.98986">
        <ele>1016.799987793</ele>
        <time>2021-06-04T10:33:27Z</time>
      </trkpt>
      <trkpt lat="48.01042" lon="6.98999">
        <ele>1019</ele>
        <time>2021-06-04T10:33:43Z</time>
      </trkpt>
      <trkpt lat="48.01045" lon="6.98988">
        <ele>1021.4000244141</ele>
        <time>2021-06-04T10:34:03Z</time>
      </trkpt>
      <trkpt lat="48.01039" lon="6.9897">
        <ele>1024</ele>
        <time>2021-06-04T10:34:25Z</time>
      </trkpt>
      <trkpt lat="48.01034" lon="6.98976">
        <ele>1025.8000488281</ele>
        <time>2021-06-04T10:34:39Z</time>
      </trkpt>
      <trkpt lat="48.01028" lon="6.98987">
        <ele>1027.1999511719</ele>
        <time>2021-06-04T10:34:55Z</time>
      </trkpt>
      <trkpt lat="48.01031" lon="6.99007">
        <ele>1029</ele>
        <time>2021-06-04T10:35:16Z</time>
      </trkpt>
      <trkpt lat="48.01036" lon="6.99028">
        <ele>1031.1999511719</ele>
        <time>2021-06-04T10:35:33Z</time>
      </trkpt>
      <trkpt lat="48.01037" lon="6.99041">
        <ele>1034.1999511719</ele>
        <time>2021-06-04T10:35:51Z</time>
      </trkpt>
      <trkpt lat="48.01041" lon="6.99039">
        <ele>1036.8000488281</ele>
        <time>2021-06-04T10:36:09Z</time>
      </trkpt>
      <trkpt lat="48.01036" lon="6.9904">
        <ele>1040</ele>
        <time>2021-06-04T10:36:28Z</time>
      </trkpt>
      <trkpt lat="48.01035" lon="6.99031">
        <ele>1043</ele>
        <time>2021-06-04T10:36:49Z</time>
      </trkpt>
      <trkpt lat="48.01023" lon="6.99042">
        <ele>1045</ele>
        <time>2021-06-04T10:37:05Z</time>
      </trkpt>
      <trkpt lat="48.01023" lon="6.99055">
        <ele>1047.4000244141</ele>
        <time>2021-06-04T10:37:22Z</time>
      </trkpt>
      <trkpt lat="48.01022" lon="6.99081">
        <ele>1050</ele>
        <time>2021-06-04T10:37:44Z</time>
      </trkpt>
      <trkpt lat="48.01019" lon="6.99099">
        <ele>1052.1999511719</ele>
        <time>2021-06-04T10:38:05Z</time>
      </trkpt>
      <trkpt lat="48.01018" lon="6.99107">
        <ele>1052.5999755859</ele>
        <time>2021-06-04T10:38:28Z</time>
      </trkpt>
      <trkpt lat="48.01022" lon="6.99094">
        <ele>1053</ele>
        <time>2021-06-04T10:38:48Z</time>
      </trkpt>
      <trkpt lat="48.01012" lon="6.99086">
        <ele>1055.5999755859</ele>
        <time>2021-06-04T10:39:08Z</time>
      </trkpt>
      <trkpt lat="48.00996" lon="6.99095">
        <ele>1057.1999511719</ele>
        <time>2021-06-04T10:39:28Z</time>
      </trkpt>
      <trkpt lat="48.00995" lon="6.99092">
        <ele>1060.1999511719</ele>
        <time>2021-06-04T10:39:47Z</time>
      </trkpt>
      <trkpt lat="48.01" lon="6.99072">
        <ele>1062.5999755859</ele>
        <time>2021-06-04T10:40:08Z</time>
      </trkpt>
      <trkpt lat="48.01002" lon="6.99055">
        <ele>1064.5999755859</ele>
        <time>2021-06-04T10:40:26Z</time>
      </trkpt>
      <trkpt lat="48.00994" lon="6.99042">
        <ele>1067.1999511719</ele>
        <time>2021-06-04T10:40:46Z</time>
      </trkpt>
      <trkpt lat="48.00985" lon="6.99049">
        <ele>1068.5999755859</ele>
        <time>2021-06-04T10:41:00Z</time>
      </trkpt>
      <trkpt lat="48.00981" lon="6.99065">
        <ele>1070.4000244141</ele>
        <time>2021-06-04T10:41:16Z</time>
      </trkpt>
      <trkpt lat="48.00967" lon="6.99082">
        <ele>1073.1999511719</ele>
        <time>2021-06-04T10:41:40Z</time>
      </trkpt>
      <trkpt lat="48.00959" lon="6.99098">
        <ele>1076.1999511719</ele>
        <time>2021-06-04T10:41:59Z</time>
      </trkpt>
      <trkpt lat="48.0094" lon="6.99118">
        <ele>1079</ele>
        <time>2021-06-04T10:42:22Z</time>
      </trkpt>
      <trkpt lat="48.00932" lon="6.99115">
        <ele>1082</ele>
        <time>2021-06-04T10:42:42Z</time>
      </trkpt>
      <trkpt lat="48.00936" lon="6.991">
        <ele>1085.1999511719</ele>
        <time>2021-06-04T10:43:05Z</time>
      </trkpt>
      <trkpt lat="48.00941" lon="6.99086">
        <ele>1086.5999755859</ele>
        <time>2021-06-04T10:43:22Z</time>
      </trkpt>
      <trkpt lat="48.00945" lon="6.9907">
        <ele>1088.5999755859</ele>
        <time>2021-06-04T10:43:37Z</time>
      </trkpt>
      <trkpt lat="48.00952" lon="6.99054">
        <ele>1090.1999511719</ele>
        <time>2021-06-04T10:43:50Z</time>
      </trkpt>
      <trkpt lat="48.00955" lon="6.99031">
        <ele>1092.1999511719</ele>
        <time>2021-06-04T10:44:10Z</time>
      </trkpt>
      <trkpt lat="48.00956" lon="6.99029">
        <ele>1094</ele>
        <time>2021-06-04T10:44:25Z</time>
      </trkpt>
      <trkpt lat="48.00953" lon="6.99037">
        <ele>1095.8000488281</ele>
        <time>2021-06-04T10:44:39Z</time>
      </trkpt>
      <trkpt lat="48.00937" lon="6.9906">
        <ele>1098.4000244141</ele>
        <time>2021-06-04T10:45:03Z</time>
      </trkpt>
      <trkpt lat="48.00918" lon="6.99074">
        <ele>1100.4000244141</ele>
        <time>2021-06-04T10:45:24Z</time>
      </trkpt>
      <trkpt lat="48.00901" lon="6.99091">
        <ele>1103</ele>
        <time>2021-06-04T10:45:46Z</time>
      </trkpt>
      <trkpt lat="48.009" lon="6.99077">
        <ele>1104.8000488281</ele>
        <time>2021-06-04T10:46:03Z</time>
      </trkpt>
      <trkpt lat="48.00906" lon="6.99058">
        <ele>1108</ele>
        <time>2021-06-04T10:46:24Z</time>
      </trkpt>
      <trkpt lat="48.00915" lon="6.99039">
        <ele>1111</ele>
        <time>2021-06-04T10:46:45Z</time>
      </trkpt>
      <trkpt lat="48.00922" lon="6.99015">
        <ele>1114</ele>
        <time>2021-06-04T10:47:07Z</time>
      </trkpt>
      <trkpt lat="48.00921" lon="6.98988">
        <ele>1116.5999755859</ele>
        <time>2021-06-04T10:47:29Z</time>
      </trkpt>
      <trkpt lat="48.00916" lon="6.98972">
        <ele>1118.1999511719</ele>
        <time>2021-06-04T10:47:51Z</time>
      </trkpt>
      <trkpt lat="48.00915" lon="6.98928">
        <ele>1119.8000488281</ele>
        <time>2021-06-04T10:48:18Z</time>
      </trkpt>
      <trkpt lat="48.00916" lon="6.98912">
        <ele>1123</ele>
        <time>2021-06-04T10:48:36Z</time>
      </trkpt>
      <trkpt lat="48.00907" lon="6.98924">
        <ele>1125.8000488281</ele>
        <time>2021-06-04T10:48:56Z</time>
      </trkpt>
      <trkpt lat="48.00901" lon="6.98939">
        <ele>1127.4000244141</ele>
        <time>2021-06-04T10:49:11Z</time>
      </trkpt>
      <trkpt lat="48.00894" lon="6.98967">
        <ele>1130.4000244141</ele>
        <time>2021-06-04T10:49:35Z</time>
      </trkpt>
      <trkpt lat="48.00883" lon="6.98982">
        <ele>1133.4000244141</ele>
        <time>2021-06-04T10:49:57Z</time>
      </trkpt>
      <trkpt lat="48.00867" lon="6.98983">
        <ele>1135.8000488281</ele>
        <time>2021-06-04T10:50:17Z</time>
      </trkpt>
      <trkpt lat="48.00856" lon="6.9897">
        <ele>1138.8000488281</ele>
        <time>2021-06-04T10:50:35Z</time>
      </trkpt>
      <trkpt lat="48.00846" lon="6.98944">
        <ele>1141.5999755859</ele>
        <time>2021-06-04T10:50:57Z</time>
      </trkpt>
      <trkpt lat="48.00841" lon="6.98922">
        <ele>1144.4000244141</ele>
        <time>2021-06-04T10:51:19Z</time>
      </trkpt>
      <trkpt lat="48.0085" lon="6.98926">
        <ele>1147</ele>
        <time>2021-06-04T10:51:38Z</time>
      </trkpt>
      <trkpt lat="48.00865" lon="6.98928">
        <ele>1149.1999511719</ele>
        <time>2021-06-04T10:51:59Z</time>
      </trkpt>
      <trkpt lat="48.00872" lon="6.98916">
        <ele>1152</ele>
        <time>2021-06-04T10:52:17Z</time>
      </trkpt>
      <trkpt lat="48.00874" lon="6.98897">
        <ele>1155.1999511719</ele>
        <time>2021-06-04T10:52:37Z</time>
      </trkpt>
      <trkpt lat="48.00877" lon="6.98888">
        <ele>1158.1999511719</ele>
        <time>2021-06-04T10:52:53Z</time>
      </trkpt>
      <trkpt lat="48.00869" lon="6.98886">
        <ele>1161.4000244141</ele>
        <time>2021-06-04T10:53:11Z</time>
      </trkpt>
      <trkpt lat="48.0087" lon="6.98873">
        <ele>1162.4000244141</ele>
        <time>2021-06-04T10:53:33Z</time>
      </trkpt>
      <trkpt lat="48.00881" lon="6.98854">
        <ele>1159.4000244141</ele>
        <time>2021-06-04T10:53:51Z</time>
      </trkpt>
      <trkpt lat="48.00895" lon="6.98828">
        <ele>1161.4000244141</ele>
        <time>2021-06-04T10:54:16Z</time>
      </trkpt>
      <trkpt lat="48.00908" lon="6.98806">
        <ele>1159</ele>
        <time>2021-06-04T10:54:34Z</time>
      </trkpt>
      <trkpt lat="48.00917" lon="6.98776">
        <ele>1162</ele>
        <time>2021-06-04T10:54:57Z</time>
      </trkpt>
      <trkpt lat="48.00919" lon="6.98752">
        <ele>1165</ele>
        <time>2021-06-04T10:55:18Z</time>
      </trkpt>
      <trkpt lat="48.0092" lon="6.98738">
        <ele>1167.8000488281</ele>
        <time>2021-06-04T10:55:38Z</time>
      </trkpt>
      <trkpt lat="48.00924" lon="6.98722">
        <ele>1171</ele>
        <time>2021-06-04T10:55:59Z</time>
      </trkpt>
      <trkpt lat="48.00925" lon="6.98709">
        <ele>1173.4000244141</ele>
        <time>2021-06-04T10:56:20Z</time>
      </trkpt>
      <trkpt lat="48.0093" lon="6.987">
        <ele>1176.5999755859</ele>
        <time>2021-06-04T10:56:38Z</time>
      </trkpt>
      <trkpt lat="48.00934" lon="6.98689">
        <ele>1179.5999755859</ele>
        <time>2021-06-04T10:56:55Z</time>
      </trkpt>
      <trkpt lat="48.00933" lon="6.98682">
        <ele>1182.5999755859</ele>
        <time>2021-06-04T10:57:15Z</time>
      </trkpt>
      <trkpt lat="48.00937" lon="6.98671">
        <ele>1185.8000488281</ele>
        <time>2021-06-04T10:57:33Z</time>
      </trkpt>
      <trkpt lat="48.00951" lon="6.98659">
        <ele>1188.8000488281</ele>
        <time>2021-06-04T10:57:48Z</time>
      </trkpt>
      <trkpt lat="48.00968" lon="6.9865">
        <ele>1189.1999511719</ele>
        <time>2021-06-04T10:58:10Z</time>
      </trkpt>
      <trkpt lat="48.00981" lon="6.98633">
        <ele>1188.8000488281</ele>
        <time>2021-06-04T10:58:29Z</time>
      </trkpt>
      <trkpt lat="48.01004" lon="6.98615">
        <ele>1189.4000244141</ele>
        <time>2021-06-04T10:58:52Z</time>
      </trkpt>
      <trkpt lat="48.01025" lon="6.98609">
        <ele>1189.4000244141</ele>
        <time>2021-06-04T10:59:12Z</time>
      </trkpt>
      <trkpt lat="48.01037" lon="6.98601">
        <ele>1189</ele>
        <time>2021-06-04T10:59:21Z</time>
      </trkpt>
      <trkpt lat="48.01038" lon="6.986">
        <ele>1189</ele>
        <time>2021-06-04T10:59:22Z</time>
      </trkpt>
      <trkpt lat="48.01055" lon="6.98584">
        <ele>1187.4000244141</ele>
        <time>2021-06-04T10:59:39Z</time>
      </trkpt>
      <trkpt lat="48.01067" lon="6.98572">
        <ele>1184.8000488281</ele>
        <time>2021-06-04T10:59:58Z</time>
      </trkpt>
      <trkpt lat="48.01071" lon="6.98554">
        <ele>1182.1999511719</ele>
        <time>2021-06-04T11:00:16Z</time>
      </trkpt>
      <trkpt lat="48.01071" lon="6.98549">
        <ele>1181.5999755859</ele>
        <time>2021-06-04T11:00:39Z</time>
      </trkpt>
      <trkpt lat="48.01069" lon="6.98547">
        <ele>1181.4000244141</ele>
        <time>2021-06-04T11:01:05Z</time>
      </trkpt>
      <trkpt lat="48.01071" lon="6.9855">
        <ele>1181.4000244141</ele>
        <time>2021-06-04T11:01:33Z</time>
      </trkpt>
      <trkpt lat="48.01071" lon="6.9855">
        <ele>1181.4000244141</ele>
        <time>2021-06-04T11:02:04Z</time>
      </trkpt>
      <trkpt lat="48.01077" lon="6.98543">
        <ele>1181.4000244141</ele>
        <time>2021-06-04T11:02:32Z</time>
      </trkpt>
      <trkpt lat="48.01088" lon="6.98529">
        <ele>1180.8000488281</ele>
        <time>2021-06-04T11:02:51Z</time>
      </trkpt>
      <trkpt lat="48.01094" lon="6.98519">
        <ele>1180.1999511719</ele>
        <time>2021-06-04T11:03:08Z</time>
      </trkpt>
      <trkpt lat="48.01095" lon="6.98517">
        <ele>1180.1999511719</ele>
        <time>2021-06-04T11:03:09Z</time>
      </trkpt>
      <trkpt lat="48.01103" lon="6.9851">
        <ele>1179.8000488281</ele>
        <time>2021-06-04T11:03:17Z</time>
      </trkpt>
      <trkpt lat="48.01113" lon="6.98505">
        <ele>1180.1999511719</ele>
        <time>2021-06-04T11:03:32Z</time>
      </trkpt>
      <trkpt lat="48.01115" lon="6.98503">
        <ele>1180.1999511719</ele>
        <time>2021-06-04T11:03:35Z</time>
      </trkpt>
      <trkpt lat="48.01116" lon="6.98503">
        <ele>1180.1999511719</ele>
        <time>2021-06-04T11:03:36Z</time>
      </trkpt>
      <trkpt lat="48.01123" lon="6.98497">
        <ele>1180.1999511719</ele>
        <time>2021-06-04T11:03:51Z</time>
      </trkpt>
      <trkpt lat="48.01126" lon="6.98491">
        <ele>1180.1999511719</ele>
        <time>2021-06-04T11:03:56Z</time>
      </trkpt>
      <trkpt lat="48.01132" lon="6.98486">
        <ele>1180.8000488281</ele>
        <time>2021-06-04T11:04:06Z</time>
      </trkpt>
      <trkpt lat="48.01133" lon="6.98485">
        <ele>1180.8000488281</ele>
        <time>2021-06-04T11:04:07Z</time>
      </trkpt>
      <trkpt lat="48.01137" lon="6.98481">
        <ele>1181.1999511719</ele>
        <time>2021-06-04T11:04:13Z</time>
      </trkpt>
      <trkpt lat="48.01151" lon="6.98478">
        <ele>1182.4000244141</ele>
        <time>2021-06-04T11:04:31Z</time>
      </trkpt>
      <trkpt lat="48.01156" lon="6.9848">
        <ele>1182.4000244141</ele>
        <time>2021-06-04T11:04:37Z</time>
      </trkpt>
      <trkpt lat="48.01168" lon="6.98488">
        <ele>1181.8000488281</ele>
        <time>2021-06-04T11:04:48Z</time>
      </trkpt>
      <trkpt lat="48.01185" lon="6.98505">
        <ele>1180.5999755859</ele>
        <time>2021-06-04T11:05:06Z</time>
      </trkpt>
      <trkpt lat="48.01207" lon="6.98526">
        <ele>1179.5999755859</ele>
        <time>2021-06-04T11:05:25Z</time>
      </trkpt>
      <trkpt lat="48.01208" lon="6.98527">
        <ele>1179.5999755859</ele>
        <time>2021-06-04T11:05:26Z</time>
      </trkpt>
      <trkpt lat="48.01222" lon="6.98535">
        <ele>1179</ele>
        <time>2021-06-04T11:05:37Z</time>
      </trkpt>
      <trkpt lat="48.01238" lon="6.98547">
        <ele>1179.4000244141</ele>
        <time>2021-06-04T11:05:52Z</time>
      </trkpt>
      <trkpt lat="48.01263" lon="6.98564">
        <ele>1177.1999511719</ele>
        <time>2021-06-04T11:06:14Z</time>
      </trkpt>
      <trkpt lat="48.01292" lon="6.98587">
        <ele>1175.1999511719</ele>
        <time>2021-06-04T11:06:39Z</time>
      </trkpt>
      <trkpt lat="48.01304" lon="6.98599">
        <ele>1174.5999755859</ele>
        <time>2021-06-04T11:06:53Z</time>
      </trkpt>
      <trkpt lat="48.01329" lon="6.98617">
        <ele>1175.1999511719</ele>
        <time>2021-06-04T11:07:10Z</time>
      </trkpt>
      <trkpt lat="48.01348" lon="6.98625">
        <ele>1177.1999511719</ele>
        <time>2021-06-04T11:07:25Z</time>
      </trkpt>
      <trkpt lat="48.01375" lon="6.9863">
        <ele>1180.1999511719</ele>
        <time>2021-06-04T11:07:44Z</time>
      </trkpt>
      <trkpt lat="48.01398" lon="6.98623">
        <ele>1183.4000244141</ele>
        <time>2021-06-04T11:08:02Z</time>
      </trkpt>
      <trkpt lat="48.01408" lon="6.98618">
        <ele>1183.8000488281</ele>
        <time>2021-06-04T11:08:11Z</time>
      </trkpt>
      <trkpt lat="48.01426" lon="6.98606">
        <ele>1185</ele>
        <time>2021-06-04T11:08:25Z</time>
      </trkpt>
      <trkpt lat="48.01444" lon="6.98596">
        <ele>1185.5999755859</ele>
        <time>2021-06-04T11:08:38Z</time>
      </trkpt>
      <trkpt lat="48.01475" lon="6.98585">
        <ele>1186.1999511719</ele>
        <time>2021-06-04T11:08:56Z</time>
      </trkpt>
      <trkpt lat="48.01492" lon="6.98571">
        <ele>1186.4000244141</ele>
        <time>2021-06-04T11:09:15Z</time>
      </trkpt>
      <trkpt lat="48.01492" lon="6.98577">
        <ele>1186.4000244141</ele>
        <time>2021-06-04T11:09:33Z</time>
      </trkpt>
      <trkpt lat="48.01492" lon="6.98576">
        <ele>1186.5999755859</ele>
        <time>2021-06-04T11:10:10Z</time>
      </trkpt>
      <trkpt lat="48.01494" lon="6.98574">
        <ele>1186.5999755859</ele>
        <time>2021-06-04T11:10:13Z</time>
      </trkpt>
      <trkpt lat="48.01495" lon="6.98572">
        <ele>1186.8000488281</ele>
        <time>2021-06-04T11:10:14Z</time>
      </trkpt>
      <trkpt lat="48.01496" lon="6.98571">
        <ele>1186.8000488281</ele>
        <time>2021-06-04T11:10:15Z</time>
      </trkpt>
      <trkpt lat="48.01499" lon="6.98567">
        <ele>1186.8000488281</ele>
        <time>2021-06-04T11:10:32Z</time>
      </trkpt>
      <trkpt lat="48.01503" lon="6.98571">
        <ele>1186.8000488281</ele>
        <time>2021-06-04T11:10:50Z</time>
      </trkpt>
      <trkpt lat="48.01524" lon="6.98587">
        <ele>1188</ele>
        <time>2021-06-04T11:11:08Z</time>
      </trkpt>
      <trkpt lat="48.01547" lon="6.98604">
        <ele>1189.4000244141</ele>
        <time>2021-06-04T11:11:29Z</time>
      </trkpt>
      <trkpt lat="48.01554" lon="6.9861">
        <ele>1191.8000488281</ele>
        <time>2021-06-04T11:11:39Z</time>
      </trkpt>
      <trkpt lat="48.01555" lon="6.9861">
        <ele>1192</ele>
        <time>2021-06-04T11:11:40Z</time>
      </trkpt>
      <trkpt lat="48.01556" lon="6.98611">
        <ele>1192.1999511719</ele>
        <time>2021-06-04T11:11:41Z</time>
      </trkpt>
      <trkpt lat="48.01557" lon="6.98611">
        <ele>1192.1999511719</ele>
        <time>2021-06-04T11:11:42Z</time>
      </trkpt>
      <trkpt lat="48.01558" lon="6.98611">
        <ele>1192.4000244141</ele>
        <time>2021-06-04T11:11:43Z</time>
      </trkpt>
      <trkpt lat="48.01559" lon="6.98611">
        <ele>1192.4000244141</ele>
        <time>2021-06-04T11:11:44Z</time>
      </trkpt>
      <trkpt lat="48.01579" lon="6.98617">
        <ele>1194.5999755859</ele>
        <time>2021-06-04T11:12:02Z</time>
      </trkpt>
      <trkpt lat="48.01592" lon="6.98628">
        <ele>1195.4000244141</ele>
        <time>2021-06-04T11:12:15Z</time>
      </trkpt>
      <trkpt lat="48.01593" lon="6.98628">
        <ele>1195.4000244141</ele>
        <time>2021-06-04T11:12:16Z</time>
      </trkpt>
      <trkpt lat="48.01595" lon="6.98628">
        <ele>1195.5999755859</ele>
        <time>2021-06-04T11:12:17Z</time>
      </trkpt>
      <trkpt lat="48.01596" lon="6.98628">
        <ele>1195.5999755859</ele>
        <time>2021-06-04T11:12:18Z</time>
      </trkpt>
      <trkpt lat="48.01597" lon="6.98627">
        <ele>1195.5999755859</ele>
        <time>2021-06-04T11:12:19Z</time>
      </trkpt>
      <trkpt lat="48.01598" lon="6.98627">
        <ele>1195.8000488281</ele>
        <time>2021-06-04T11:12:20Z</time>
      </trkpt>
      <trkpt lat="48.016" lon="6.98627">
        <ele>1196</ele>
        <time>2021-06-04T11:12:22Z</time>
      </trkpt>
      <trkpt lat="48.01609" lon="6.98639">
        <ele>1197.4000244141</ele>
        <time>2021-06-04T11:12:40Z</time>
      </trkpt>
      <trkpt lat="48.0161" lon="6.98645">
        <ele>1198</ele>
        <time>2021-06-04T11:12:46Z</time>
      </trkpt>
      <trkpt lat="48.01611" lon="6.98647">
        <ele>1198</ele>
        <time>2021-06-04T11:12:47Z</time>
      </trkpt>
      <trkpt lat="48.01615" lon="6.98656">
        <ele>1198.1999511719</ele>
        <time>2021-06-04T11:13:03Z</time>
      </trkpt>
      <trkpt lat="48.01613" lon="6.98658">
        <ele>1199</ele>
        <time>2021-06-04T11:13:19Z</time>
      </trkpt>
      <trkpt lat="48.01614" lon="6.98661">
        <ele>1199.4000244141</ele>
        <time>2021-06-04T11:13:21Z</time>
      </trkpt>
      <trkpt lat="48.01617" lon="6.98666">
        <ele>1199.5999755859</ele>
        <time>2021-06-04T11:13:25Z</time>
      </trkpt>
      <trkpt lat="48.01617" lon="6.98668">
        <ele>1199.8000488281</ele>
        <time>2021-06-04T11:13:26Z</time>
      </trkpt>
      <trkpt lat="48.01618" lon="6.98669">
        <ele>1199.8000488281</ele>
        <time>2021-06-04T11:13:27Z</time>
      </trkpt>
      <trkpt lat="48.01632" lon="6.9869">
        <ele>1201.1999511719</ele>
        <time>2021-06-04T11:13:45Z</time>
      </trkpt>
      <trkpt lat="48.0165" lon="6.98721">
        <ele>1203</ele>
        <time>2021-06-04T11:14:08Z</time>
      </trkpt>
      <trkpt lat="48.01669" lon="6.98755">
        <ele>1205.1999511719</ele>
        <time>2021-06-04T11:14:32Z</time>
      </trkpt>
      <trkpt lat="48.01687" lon="6.98778">
        <ele>1207.8000488281</ele>
        <time>2021-06-04T11:14:51Z</time>
      </trkpt>
      <trkpt lat="48.01708" lon="6.98775">
        <ele>1209</ele>
        <time>2021-06-04T11:15:09Z</time>
      </trkpt>
      <trkpt lat="48.01731" lon="6.98767">
        <ele>1209.4000244141</ele>
        <time>2021-06-04T11:15:27Z</time>
      </trkpt>
      <trkpt lat="48.01748" lon="6.98761">
        <ele>1209.8000488281</ele>
        <time>2021-06-04T11:15:42Z</time>
      </trkpt>
      <trkpt lat="48.01749" lon="6.9876">
        <ele>1209.8000488281</ele>
        <time>2021-06-04T11:15:43Z</time>
      </trkpt>
      <trkpt lat="48.0175" lon="6.98758">
        <ele>1210</ele>
        <time>2021-06-04T11:15:44Z</time>
      </trkpt>
      <trkpt lat="48.0175" lon="6.98756">
        <ele>1209.8000488281</ele>
        <time>2021-06-04T11:15:45Z</time>
      </trkpt>
      <trkpt lat="48.01751" lon="6.98754">
        <ele>1209.8000488281</ele>
        <time>2021-06-04T11:15:46Z</time>
      </trkpt>
      <trkpt lat="48.01751" lon="6.98752">
        <ele>1209.8000488281</ele>
        <time>2021-06-04T11:15:47Z</time>
      </trkpt>
      <trkpt lat="48.01751" lon="6.98751">
        <ele>1209.8000488281</ele>
        <time>2021-06-04T11:15:48Z</time>
      </trkpt>
      <trkpt lat="48.01749" lon="6.98709">
        <ele>1208</ele>
        <time>2021-06-04T11:16:11Z</time>
      </trkpt>
      <trkpt lat="48.01744" lon="6.98697">
        <ele>1207</ele>
        <time>2021-06-04T11:16:22Z</time>
      </trkpt>
      <trkpt lat="48.01742" lon="6.98696">
        <ele>1207</ele>
        <time>2021-06-04T11:16:23Z</time>
      </trkpt>
      <trkpt lat="48.01741" lon="6.98696">
        <ele>1207</ele>
        <time>2021-06-04T11:16:24Z</time>
      </trkpt>
      <trkpt lat="48.0174" lon="6.98695">
        <ele>1206.8000488281</ele>
        <time>2021-06-04T11:16:25Z</time>
      </trkpt>
      <trkpt lat="48.01739" lon="6.98694">
        <ele>1206.8000488281</ele>
        <time>2021-06-04T11:16:26Z</time>
      </trkpt>
      <trkpt lat="48.01739" lon="6.98692">
        <ele>1206.8000488281</ele>
        <time>2021-06-04T11:16:27Z</time>
      </trkpt>
      <trkpt lat="48.01738" lon="6.9869">
        <ele>1206.8000488281</ele>
        <time>2021-06-04T11:16:28Z</time>
      </trkpt>
      <trkpt lat="48.01738" lon="6.98689">
        <ele>1206.5999755859</ele>
        <time>2021-06-04T11:16:29Z</time>
      </trkpt>
      <trkpt lat="48.01738" lon="6.98684">
        <ele>1206.1999511719</ele>
        <time>2021-06-04T11:16:32Z</time>
      </trkpt>
      <trkpt lat="48.01739" lon="6.98683">
        <ele>1206</ele>
        <time>2021-06-04T11:16:33Z</time>
      </trkpt>
      <trkpt lat="48.01748" lon="6.98682">
        <ele>1205.4000244141</ele>
        <time>2021-06-04T11:16:50Z</time>
      </trkpt>
      <trkpt lat="48.0175" lon="6.98677">
        <ele>1205</ele>
        <time>2021-06-04T11:17:09Z</time>
      </trkpt>
      <trkpt lat="48.0175" lon="6.98677">
        <ele>1204.4000244141</ele>
        <time>2021-06-04T11:17:34Z</time>
      </trkpt>
      <trkpt lat="48.0175" lon="6.98678">
        <ele>1204.8000488281</ele>
        <time>2021-06-04T11:18:25Z</time>
      </trkpt>
      <trkpt lat="48.0175" lon="6.98677">
        <ele>1204.5999755859</ele>
        <time>2021-06-04T11:18:54Z</time>
      </trkpt>
      <trkpt lat="48.01748" lon="6.98676">
        <ele>1204.8000488281</ele>
        <time>2021-06-04T11:19:32Z</time>
      </trkpt>
      <trkpt lat="48.01744" lon="6.98683">
        <ele>1204.8000488281</ele>
        <time>2021-06-04T11:19:52Z</time>
      </trkpt>
      <trkpt lat="48.01743" lon="6.98683">
        <ele>1204.8000488281</ele>
        <time>2021-06-04T11:19:53Z</time>
      </trkpt>
      <trkpt lat="48.01742" lon="6.98683">
        <ele>1205</ele>
        <time>2021-06-04T11:19:54Z</time>
      </trkpt>
      <trkpt lat="48.01741" lon="6.98684">
        <ele>1205.1999511719</ele>
        <time>2021-06-04T11:19:55Z</time>
      </trkpt>
      <trkpt lat="48.0174" lon="6.98684">
        <ele>1205.4000244141</ele>
        <time>2021-06-04T11:19:56Z</time>
      </trkpt>
      <trkpt lat="48.01739" lon="6.98685">
        <ele>1205.4000244141</ele>
        <time>2021-06-04T11:19:57Z</time>
      </trkpt>
      <trkpt lat="48.01739" lon="6.98686">
        <ele>1205.5999755859</ele>
        <time>2021-06-04T11:19:58Z</time>
      </trkpt>
      <trkpt lat="48.01738" lon="6.98688">
        <ele>1205.5999755859</ele>
        <time>2021-06-04T11:19:59Z</time>
      </trkpt>
      <trkpt lat="48.01737" lon="6.9869">
        <ele>1205.5999755859</ele>
        <time>2021-06-04T11:20:01Z</time>
      </trkpt>
      <trkpt lat="48.0174" lon="6.98698">
        <ele>1206</ele>
        <time>2021-06-04T11:20:08Z</time>
      </trkpt>
      <trkpt lat="48.0175" lon="6.98723">
        <ele>1207.8000488281</ele>
        <time>2021-06-04T11:20:29Z</time>
      </trkpt>
      <trkpt lat="48.01746" lon="6.98763">
        <ele>1210</ele>
        <time>2021-06-04T11:20:53Z</time>
      </trkpt>
      <trkpt lat="48.01744" lon="6.98763">
        <ele>1210.1999511719</ele>
        <time>2021-06-04T11:20:55Z</time>
      </trkpt>
      <trkpt lat="48.01724" lon="6.98771">
        <ele>1210.1999511719</ele>
        <time>2021-06-04T11:21:13Z</time>
      </trkpt>
      <trkpt lat="48.01697" lon="6.98778">
        <ele>1209.5999755859</ele>
        <time>2021-06-04T11:21:35Z</time>
      </trkpt>
      <trkpt lat="48.01677" lon="6.98765">
        <ele>1208</ele>
        <time>2021-06-04T11:21:54Z</time>
      </trkpt>
      <trkpt lat="48.01662" lon="6.98738">
        <ele>1206.4000244141</ele>
        <time>2021-06-04T11:22:13Z</time>
      </trkpt>
      <trkpt lat="48.01648" lon="6.98712">
        <ele>1204.1999511719</ele>
        <time>2021-06-04T11:22:31Z</time>
      </trkpt>
      <trkpt lat="48.01629" lon="6.98683">
        <ele>1202.8000488281</ele>
        <time>2021-06-04T11:22:53Z</time>
      </trkpt>
      <trkpt lat="48.01616" lon="6.98656">
        <ele>1201.4000244141</ele>
        <time>2021-06-04T11:23:12Z</time>
      </trkpt>
      <trkpt lat="48.01615" lon="6.98653">
        <ele>1201.1999511719</ele>
        <time>2021-06-04T11:23:14Z</time>
      </trkpt>
      <trkpt lat="48.01615" lon="6.98652">
        <ele>1201.1999511719</ele>
        <time>2021-06-04T11:23:15Z</time>
      </trkpt>
      <trkpt lat="48.01615" lon="6.9865">
        <ele>1201.1999511719</ele>
        <time>2021-06-04T11:23:16Z</time>
      </trkpt>
      <trkpt lat="48.01614" lon="6.98648">
        <ele>1201</ele>
        <time>2021-06-04T11:23:17Z</time>
      </trkpt>
      <trkpt lat="48.01614" lon="6.98646">
        <ele>1201</ele>
        <time>2021-06-04T11:23:18Z</time>
      </trkpt>
      <trkpt lat="48.01609" lon="6.98638">
        <ele>1200</ele>
        <time>2021-06-04T11:23:26Z</time>
      </trkpt>
      <trkpt lat="48.01608" lon="6.98636">
        <ele>1199.8000488281</ele>
        <time>2021-06-04T11:23:27Z</time>
      </trkpt>
      <trkpt lat="48.01608" lon="6.98635">
        <ele>1199.5999755859</ele>
        <time>2021-06-04T11:23:28Z</time>
      </trkpt>
      <trkpt lat="48.01607" lon="6.98634">
        <ele>1199.5999755859</ele>
        <time>2021-06-04T11:23:29Z</time>
      </trkpt>
      <trkpt lat="48.01606" lon="6.98633">
        <ele>1199.5999755859</ele>
        <time>2021-06-04T11:23:30Z</time>
      </trkpt>
      <trkpt lat="48.01601" lon="6.98626">
        <ele>1199</ele>
        <time>2021-06-04T11:23:37Z</time>
      </trkpt>
      <trkpt lat="48.01587" lon="6.98607">
        <ele>1195.8000488281</ele>
        <time>2021-06-04T11:23:53Z</time>
      </trkpt>
      <trkpt lat="48.01569" lon="6.98586">
        <ele>1192.5999755859</ele>
        <time>2021-06-04T11:24:12Z</time>
      </trkpt>
      <trkpt lat="48.01551" lon="6.98576">
        <ele>1189.5999755859</ele>
        <time>2021-06-04T11:24:27Z</time>
      </trkpt>
      <trkpt lat="48.01525" lon="6.98562">
        <ele>1187.8000488281</ele>
        <time>2021-06-04T11:24:48Z</time>
      </trkpt>
      <trkpt lat="48.01497" lon="6.98552">
        <ele>1187.8000488281</ele>
        <time>2021-06-04T11:25:10Z</time>
      </trkpt>
      <trkpt lat="48.01479" lon="6.98517">
        <ele>1186.4000244141</ele>
        <time>2021-06-04T11:25:32Z</time>
      </trkpt>
      <trkpt lat="48.01478" lon="6.98511">
        <ele>1186</ele>
        <time>2021-06-04T11:25:38Z</time>
      </trkpt>
      <trkpt lat="48.01462" lon="6.98482">
        <ele>1184</ele>
        <time>2021-06-04T11:25:58Z</time>
      </trkpt>
      <trkpt lat="48.01452" lon="6.98465">
        <ele>1184</ele>
        <time>2021-06-04T11:26:15Z</time>
      </trkpt>
      <trkpt lat="48.01455" lon="6.98461">
        <ele>1181</ele>
        <time>2021-06-04T11:26:30Z</time>
      </trkpt>
      <trkpt lat="48.01458" lon="6.98455">
        <ele>1177.8000488281</ele>
        <time>2021-06-04T11:26:42Z</time>
      </trkpt>
      <trkpt lat="48.0146" lon="6.98454">
        <ele>1176.8000488281</ele>
        <time>2021-06-04T11:26:45Z</time>
      </trkpt>
      <trkpt lat="48.01469" lon="6.98446">
        <ele>1173.5999755859</ele>
        <time>2021-06-04T11:26:58Z</time>
      </trkpt>
      <trkpt lat="48.01483" lon="6.98442">
        <ele>1170.5999755859</ele>
        <time>2021-06-04T11:27:15Z</time>
      </trkpt>
      <trkpt lat="48.01491" lon="6.98443">
        <ele>1169</ele>
        <time>2021-06-04T11:27:22Z</time>
      </trkpt>
      <trkpt lat="48.01511" lon="6.9845">
        <ele>1166.1999511719</ele>
        <time>2021-06-04T11:27:43Z</time>
      </trkpt>
      <trkpt lat="48.01518" lon="6.98449">
        <ele>1163</ele>
        <time>2021-06-04T11:28:04Z</time>
      </trkpt>
      <trkpt lat="48.01523" lon="6.98441">
        <ele>1160</ele>
        <time>2021-06-04T11:28:15Z</time>
      </trkpt>
      <trkpt lat="48.01523" lon="6.98429">
        <ele>1156.8000488281</ele>
        <time>2021-06-04T11:28:26Z</time>
      </trkpt>
      <trkpt lat="48.01516" lon="6.98402">
        <ele>1153.5999755859</ele>
        <time>2021-06-04T11:28:46Z</time>
      </trkpt>
      <trkpt lat="48.01512" lon="6.98383">
        <ele>1150.5999755859</ele>
        <time>2021-06-04T11:29:01Z</time>
      </trkpt>
      <trkpt lat="48.01506" lon="6.98361">
        <ele>1147.4000244141</ele>
        <time>2021-06-04T11:29:15Z</time>
      </trkpt>
      <trkpt lat="48.0149" lon="6.98341">
        <ele>1144.8000488281</ele>
        <time>2021-06-04T11:29:31Z</time>
      </trkpt>
      <trkpt lat="48.01481" lon="6.98324">
        <ele>1141.5999755859</ele>
        <time>2021-06-04T11:29:45Z</time>
      </trkpt>
      <trkpt lat="48.01473" lon="6.9831">
        <ele>1138.5999755859</ele>
        <time>2021-06-04T11:29:57Z</time>
      </trkpt>
      <trkpt lat="48.01469" lon="6.98299">
        <ele>1136.1999511719</ele>
        <time>2021-06-04T11:30:08Z</time>
      </trkpt>
      <trkpt lat="48.01465" lon="6.9828">
        <ele>1132.8000488281</ele>
        <time>2021-06-04T11:30:22Z</time>
      </trkpt>
      <trkpt lat="48.01462" lon="6.9827">
        <ele>1129.5999755859</ele>
        <time>2021-06-04T11:30:34Z</time>
      </trkpt>
      <trkpt lat="48.0146" lon="6.98266">
        <ele>1128</ele>
        <time>2021-06-04T11:30:41Z</time>
      </trkpt>
      <trkpt lat="48.0146" lon="6.9827">
        <ele>1124.8000488281</ele>
        <time>2021-06-04T11:30:56Z</time>
      </trkpt>
      <trkpt lat="48.01462" lon="6.98267">
        <ele>1121.5999755859</ele>
        <time>2021-06-04T11:31:04Z</time>
      </trkpt>
      <trkpt lat="48.01465" lon="6.9826">
        <ele>1118.5999755859</ele>
        <time>2021-06-04T11:31:11Z</time>
      </trkpt>
      <trkpt lat="48.01466" lon="6.98252">
        <ele>1115.5999755859</ele>
        <time>2021-06-04T11:31:20Z</time>
      </trkpt>
      <trkpt lat="48.01474" lon="6.98243">
        <ele>1112.4000244141</ele>
        <time>2021-06-04T11:31:31Z</time>
      </trkpt>
      <trkpt lat="48.01478" lon="6.98238">
        <ele>1111.4000244141</ele>
        <time>2021-06-04T11:31:35Z</time>
      </trkpt>
      <trkpt lat="48.01482" lon="6.98238">
        <ele>1108.1999511719</ele>
        <time>2021-06-04T11:31:45Z</time>
      </trkpt>
      <trkpt lat="48.01488" lon="6.98236">
        <ele>1104.8000488281</ele>
        <time>2021-06-04T11:31:57Z</time>
      </trkpt>
      <trkpt lat="48.0149" lon="6.98237">
        <ele>1103.4000244141</ele>
        <time>2021-06-04T11:32:03Z</time>
      </trkpt>
      <trkpt lat="48.015" lon="6.9823">
        <ele>1100.8000488281</ele>
        <time>2021-06-04T11:32:19Z</time>
      </trkpt>
      <trkpt lat="48.01497" lon="6.98223">
        <ele>1100</ele>
        <time>2021-06-04T11:32:25Z</time>
      </trkpt>
      <trkpt lat="48.01486" lon="6.98202">
        <ele>1097.4000244141</ele>
        <time>2021-06-04T11:32:43Z</time>
      </trkpt>
      <trkpt lat="48.01469" lon="6.98183">
        <ele>1096.5999755859</ele>
        <time>2021-06-04T11:33:00Z</time>
      </trkpt>
      <trkpt lat="48.01468" lon="6.98182">
        <ele>1096.5999755859</ele>
        <time>2021-06-04T11:33:01Z</time>
      </trkpt>
      <trkpt lat="48.01467" lon="6.98181">
        <ele>1096.5999755859</ele>
        <time>2021-06-04T11:33:02Z</time>
      </trkpt>
      <trkpt lat="48.01466" lon="6.9818">
        <ele>1096.5999755859</ele>
        <time>2021-06-04T11:33:03Z</time>
      </trkpt>
      <trkpt lat="48.01464" lon="6.98179">
        <ele>1096.5999755859</ele>
        <time>2021-06-04T11:33:04Z</time>
      </trkpt>
      <trkpt lat="48.01463" lon="6.98178">
        <ele>1096.5999755859</ele>
        <time>2021-06-04T11:33:05Z</time>
      </trkpt>
      <trkpt lat="48.01462" lon="6.98177">
        <ele>1096.5999755859</ele>
        <time>2021-06-04T11:33:06Z</time>
      </trkpt>
      <trkpt lat="48.01461" lon="6.98175">
        <ele>1096.5999755859</ele>
        <time>2021-06-04T11:33:07Z</time>
      </trkpt>
      <trkpt lat="48.01446" lon="6.98161">
        <ele>1095.4000244141</ele>
        <time>2021-06-04T11:33:20Z</time>
      </trkpt>
      <trkpt lat="48.01444" lon="6.9816">
        <ele>1095.1999511719</ele>
        <time>2021-06-04T11:33:21Z</time>
      </trkpt>
      <trkpt lat="48.01443" lon="6.98159">
        <ele>1095.1999511719</ele>
        <time>2021-06-04T11:33:22Z</time>
      </trkpt>
      <trkpt lat="48.01442" lon="6.98158">
        <ele>1095.1999511719</ele>
        <time>2021-06-04T11:33:23Z</time>
      </trkpt>
      <trkpt lat="48.01441" lon="6.98157">
        <ele>1095</ele>
        <time>2021-06-04T11:33:24Z</time>
      </trkpt>
      <trkpt lat="48.0144" lon="6.98155">
        <ele>1095</ele>
        <time>2021-06-04T11:33:25Z</time>
      </trkpt>
      <trkpt lat="48.01439" lon="6.98154">
        <ele>1095</ele>
        <time>2021-06-04T11:33:26Z</time>
      </trkpt>
      <trkpt lat="48.01437" lon="6.98153">
        <ele>1094.8000488281</ele>
        <time>2021-06-04T11:33:27Z</time>
      </trkpt>
      <trkpt lat="48.01436" lon="6.98153">
        <ele>1094.5999755859</ele>
        <time>2021-06-04T11:33:28Z</time>
      </trkpt>
      <trkpt lat="48.01435" lon="6.98152">
        <ele>1094.4000244141</ele>
        <time>2021-06-04T11:33:29Z</time>
      </trkpt>
      <trkpt lat="48.01433" lon="6.98151">
        <ele>1094.4000244141</ele>
        <time>2021-06-04T11:33:30Z</time>
      </trkpt>
      <trkpt lat="48.01416" lon="6.9813">
        <ele>1093</ele>
        <time>2021-06-04T11:33:46Z</time>
      </trkpt>
      <trkpt lat="48.01394" lon="6.98107">
        <ele>1091.4000244141</ele>
        <time>2021-06-04T11:34:02Z</time>
      </trkpt>
      <trkpt lat="48.01377" lon="6.98082">
        <ele>1090</ele>
        <time>2021-06-04T11:34:18Z</time>
      </trkpt>
      <trkpt lat="48.01371" lon="6.98075">
        <ele>1089.5999755859</ele>
        <time>2021-06-04T11:34:24Z</time>
      </trkpt>
      <trkpt lat="48.0137" lon="6.98073">
        <ele>1089.5999755859</ele>
        <time>2021-06-04T11:34:25Z</time>
      </trkpt>
      <trkpt lat="48.01361" lon="6.9806">
        <ele>1089</ele>
        <time>2021-06-04T11:34:35Z</time>
      </trkpt>
      <trkpt lat="48.01359" lon="6.98059">
        <ele>1089</ele>
        <time>2021-06-04T11:34:36Z</time>
      </trkpt>
      <trkpt lat="48.01358" lon="6.98057">
        <ele>1089</ele>
        <time>2021-06-04T11:34:37Z</time>
      </trkpt>
      <trkpt lat="48.01351" lon="6.98053">
        <ele>1088.8000488281</ele>
        <time>2021-06-04T11:34:42Z</time>
      </trkpt>
      <trkpt lat="48.01349" lon="6.98052">
        <ele>1088.5999755859</ele>
        <time>2021-06-04T11:34:43Z</time>
      </trkpt>
      <trkpt lat="48.01348" lon="6.98051">
        <ele>1088.5999755859</ele>
        <time>2021-06-04T11:34:44Z</time>
      </trkpt>
      <trkpt lat="48.01347" lon="6.9805">
        <ele>1088.1999511719</ele>
        <time>2021-06-04T11:34:45Z</time>
      </trkpt>
      <trkpt lat="48.01346" lon="6.98048">
        <ele>1088.1999511719</ele>
        <time>2021-06-04T11:34:46Z</time>
      </trkpt>
      <trkpt lat="48.01345" lon="6.98047">
        <ele>1088.1999511719</ele>
        <time>2021-06-04T11:34:47Z</time>
      </trkpt>
      <trkpt lat="48.01343" lon="6.98044">
        <ele>1088</ele>
        <time>2021-06-04T11:34:49Z</time>
      </trkpt>
      <trkpt lat="48.01343" lon="6.98042">
        <ele>1087.8000488281</ele>
        <time>2021-06-04T11:34:50Z</time>
      </trkpt>
      <trkpt lat="48.01342" lon="6.98041">
        <ele>1087.5999755859</ele>
        <time>2021-06-04T11:34:51Z</time>
      </trkpt>
      <trkpt lat="48.01341" lon="6.9804">
        <ele>1087.5999755859</ele>
        <time>2021-06-04T11:34:52Z</time>
      </trkpt>
      <trkpt lat="48.0134" lon="6.98038">
        <ele>1087.5999755859</ele>
        <time>2021-06-04T11:34:53Z</time>
      </trkpt>
      <trkpt lat="48.01339" lon="6.98036">
        <ele>1087.4000244141</ele>
        <time>2021-06-04T11:34:54Z</time>
      </trkpt>
      <trkpt lat="48.01339" lon="6.98034">
        <ele>1087.4000244141</ele>
        <time>2021-06-04T11:34:55Z</time>
      </trkpt>
      <trkpt lat="48.01339" lon="6.98032">
        <ele>1087.4000244141</ele>
        <time>2021-06-04T11:34:56Z</time>
      </trkpt>
      <trkpt lat="48.01338" lon="6.9803">
        <ele>1087.1999511719</ele>
        <time>2021-06-04T11:34:57Z</time>
      </trkpt>
      <trkpt lat="48.01337" lon="6.98029">
        <ele>1087.1999511719</ele>
        <time>2021-06-04T11:34:58Z</time>
      </trkpt>
      <trkpt lat="48.01331" lon="6.9802">
        <ele>1087</ele>
        <time>2021-06-04T11:35:04Z</time>
      </trkpt>
      <trkpt lat="48.0133" lon="6.98018">
        <ele>1087</ele>
        <time>2021-06-04T11:35:05Z</time>
      </trkpt>
      <trkpt lat="48.0133" lon="6.98016">
        <ele>1086.8000488281</ele>
        <time>2021-06-04T11:35:06Z</time>
      </trkpt>
      <trkpt lat="48.01329" lon="6.98013">
        <ele>1086.8000488281</ele>
        <time>2021-06-04T11:35:07Z</time>
      </trkpt>
      <trkpt lat="48.01329" lon="6.98011">
        <ele>1086.5999755859</ele>
        <time>2021-06-04T11:35:08Z</time>
      </trkpt>
      <trkpt lat="48.01328" lon="6.98009">
        <ele>1086.5999755859</ele>
        <time>2021-06-04T11:35:09Z</time>
      </trkpt>
      <trkpt lat="48.01328" lon="6.98006">
        <ele>1086.4000244141</ele>
        <time>2021-06-04T11:35:11Z</time>
      </trkpt>
      <trkpt lat="48.01327" lon="6.98005">
        <ele>1086.4000244141</ele>
        <time>2021-06-04T11:35:12Z</time>
      </trkpt>
      <trkpt lat="48.01326" lon="6.98004">
        <ele>1086.1999511719</ele>
        <time>2021-06-04T11:35:13Z</time>
      </trkpt>
      <trkpt lat="48.01325" lon="6.98003">
        <ele>1086</ele>
        <time>2021-06-04T11:35:14Z</time>
      </trkpt>
      <trkpt lat="48.01323" lon="6.97993">
        <ele>1085.4000244141</ele>
        <time>2021-06-04T11:35:20Z</time>
      </trkpt>
      <trkpt lat="48.01323" lon="6.9799">
        <ele>1085.1999511719</ele>
        <time>2021-06-04T11:35:21Z</time>
      </trkpt>
      <trkpt lat="48.01323" lon="6.97987">
        <ele>1085</ele>
        <time>2021-06-04T11:35:22Z</time>
      </trkpt>
      <trkpt lat="48.01323" lon="6.97985">
        <ele>1085</ele>
        <time>2021-06-04T11:35:23Z</time>
      </trkpt>
      <trkpt lat="48.01322" lon="6.97984">
        <ele>1084.8000488281</ele>
        <time>2021-06-04T11:35:24Z</time>
      </trkpt>
      <trkpt lat="48.01316" lon="6.97965">
        <ele>1083.5999755859</ele>
        <time>2021-06-04T11:35:36Z</time>
      </trkpt>
      <trkpt lat="48.01315" lon="6.97963">
        <ele>1083.4000244141</ele>
        <time>2021-06-04T11:35:37Z</time>
      </trkpt>
      <trkpt lat="48.01314" lon="6.97961">
        <ele>1083.4000244141</ele>
        <time>2021-06-04T11:35:38Z</time>
      </trkpt>
      <trkpt lat="48.01314" lon="6.9796">
        <ele>1083.1999511719</ele>
        <time>2021-06-04T11:35:39Z</time>
      </trkpt>
      <trkpt lat="48.01314" lon="6.97958">
        <ele>1083</ele>
        <time>2021-06-04T11:35:40Z</time>
      </trkpt>
      <trkpt lat="48.01313" lon="6.97956">
        <ele>1083</ele>
        <time>2021-06-04T11:35:41Z</time>
      </trkpt>
      <trkpt lat="48.01309" lon="6.9793">
        <ele>1081.1999511719</ele>
        <time>2021-06-04T11:35:56Z</time>
      </trkpt>
      <trkpt lat="48.01307" lon="6.97928">
        <ele>1081</ele>
        <time>2021-06-04T11:35:57Z</time>
      </trkpt>
      <trkpt lat="48.01306" lon="6.97926">
        <ele>1081</ele>
        <time>2021-06-04T11:35:58Z</time>
      </trkpt>
      <trkpt lat="48.01305" lon="6.97924">
        <ele>1080.5999755859</ele>
        <time>2021-06-04T11:35:59Z</time>
      </trkpt>
      <trkpt lat="48.01305" lon="6.97922">
        <ele>1080.4000244141</ele>
        <time>2021-06-04T11:36:00Z</time>
      </trkpt>
      <trkpt lat="48.01303" lon="6.97915">
        <ele>1079.8000488281</ele>
        <time>2021-06-04T11:36:04Z</time>
      </trkpt>
      <trkpt lat="48.01302" lon="6.97913">
        <ele>1079.5999755859</ele>
        <time>2021-06-04T11:36:05Z</time>
      </trkpt>
      <trkpt lat="48.01301" lon="6.97912">
        <ele>1079.4000244141</ele>
        <time>2021-06-04T11:36:06Z</time>
      </trkpt>
      <trkpt lat="48.013" lon="6.97911">
        <ele>1079.1999511719</ele>
        <time>2021-06-04T11:36:07Z</time>
      </trkpt>
      <trkpt lat="48.01299" lon="6.97909">
        <ele>1079</ele>
        <time>2021-06-04T11:36:08Z</time>
      </trkpt>
      <trkpt lat="48.01297" lon="6.97904">
        <ele>1078.4000244141</ele>
        <time>2021-06-04T11:36:11Z</time>
      </trkpt>
      <trkpt lat="48.01296" lon="6.97902">
        <ele>1078.1999511719</ele>
        <time>2021-06-04T11:36:12Z</time>
      </trkpt>
      <trkpt lat="48.01295" lon="6.979">
        <ele>1078.1999511719</ele>
        <time>2021-06-04T11:36:13Z</time>
      </trkpt>
      <trkpt lat="48.0129" lon="6.97879">
        <ele>1076.4000244141</ele>
        <time>2021-06-04T11:36:24Z</time>
      </trkpt>
      <trkpt lat="48.01289" lon="6.97876">
        <ele>1076</ele>
        <time>2021-06-04T11:36:26Z</time>
      </trkpt>
      <trkpt lat="48.01287" lon="6.97853">
        <ele>1073.4000244141</ele>
        <time>2021-06-04T11:36:37Z</time>
      </trkpt>
      <trkpt lat="48.01287" lon="6.97851">
        <ele>1073.1999511719</ele>
        <time>2021-06-04T11:36:38Z</time>
      </trkpt>
      <trkpt lat="48.01287" lon="6.97849">
        <ele>1073</ele>
        <time>2021-06-04T11:36:39Z</time>
      </trkpt>
      <trkpt lat="48.01274" lon="6.97819">
        <ele>1071.8000488281</ele>
        <time>2021-06-04T11:36:55Z</time>
      </trkpt>
      <trkpt lat="48.01267" lon="6.97789">
        <ele>1070.1999511719</ele>
        <time>2021-06-04T11:37:12Z</time>
      </trkpt>
      <trkpt lat="48.01267" lon="6.97787">
        <ele>1070.1999511719</ele>
        <time>2021-06-04T11:37:13Z</time>
      </trkpt>
      <trkpt lat="48.01265" lon="6.97782">
        <ele>1070.1999511719</ele>
        <time>2021-06-04T11:37:17Z</time>
      </trkpt>
      <trkpt lat="48.01267" lon="6.97754">
        <ele>1070.1999511719</ele>
        <time>2021-06-04T11:37:31Z</time>
      </trkpt>
      <trkpt lat="48.01268" lon="6.97726">
        <ele>1071</ele>
        <time>2021-06-04T11:37:45Z</time>
      </trkpt>
      <trkpt lat="48.01268" lon="6.97723">
        <ele>1071</ele>
        <time>2021-06-04T11:37:46Z</time>
      </trkpt>
      <trkpt lat="48.01268" lon="6.97721">
        <ele>1071</ele>
        <time>2021-06-04T11:37:47Z</time>
      </trkpt>
      <trkpt lat="48.01268" lon="6.97719">
        <ele>1071</ele>
        <time>2021-06-04T11:37:48Z</time>
      </trkpt>
      <trkpt lat="48.01268" lon="6.97717">
        <ele>1071</ele>
        <time>2021-06-04T11:37:49Z</time>
      </trkpt>
      <trkpt lat="48.01268" lon="6.97714">
        <ele>1071.1999511719</ele>
        <time>2021-06-04T11:37:50Z</time>
      </trkpt>
      <trkpt lat="48.01268" lon="6.97712">
        <ele>1071.1999511719</ele>
        <time>2021-06-04T11:37:51Z</time>
      </trkpt>
      <trkpt lat="48.01268" lon="6.9771">
        <ele>1071.1999511719</ele>
        <time>2021-06-04T11:37:52Z</time>
      </trkpt>
      <trkpt lat="48.01269" lon="6.97708">
        <ele>1071.1999511719</ele>
        <time>2021-06-04T11:37:53Z</time>
      </trkpt>
      <trkpt lat="48.01273" lon="6.97683">
        <ele>1071</ele>
        <time>2021-06-04T11:38:11Z</time>
      </trkpt>
      <trkpt lat="48.01279" lon="6.9768">
        <ele>1067.5999755859</ele>
        <time>2021-06-04T11:38:23Z</time>
      </trkpt>
      <trkpt lat="48.01293" lon="6.97691">
        <ele>1064.5999755859</ele>
        <time>2021-06-04T11:38:36Z</time>
      </trkpt>
      <trkpt lat="48.01302" lon="6.97704">
        <ele>1061.1999511719</ele>
        <time>2021-06-04T11:38:48Z</time>
      </trkpt>
      <trkpt lat="48.0131" lon="6.97712">
        <ele>1059.5999755859</ele>
        <time>2021-06-04T11:38:59Z</time>
      </trkpt>
      <trkpt lat="48.01321" lon="6.9773">
        <ele>1057.4000244141</ele>
        <time>2021-06-04T11:39:15Z</time>
      </trkpt>
      <trkpt lat="48.01327" lon="6.9776">
        <ele>1055</ele>
        <time>2021-06-04T11:39:33Z</time>
      </trkpt>
      <trkpt lat="48.01344" lon="6.97789">
        <ele>1053</ele>
        <time>2021-06-04T11:39:52Z</time>
      </trkpt>
      <trkpt lat="48.01361" lon="6.97811">
        <ele>1051.4000244141</ele>
        <time>2021-06-04T11:40:13Z</time>
      </trkpt>
      <trkpt lat="48.01375" lon="6.97834">
        <ele>1049.5999755859</ele>
        <time>2021-06-04T11:40:27Z</time>
      </trkpt>
      <trkpt lat="48.01383" lon="6.97854">
        <ele>1046.4000244141</ele>
        <time>2021-06-04T11:40:44Z</time>
      </trkpt>
      <trkpt lat="48.01392" lon="6.97873">
        <ele>1044.5999755859</ele>
        <time>2021-06-04T11:41:03Z</time>
      </trkpt>
      <trkpt lat="48.01407" lon="6.97891">
        <ele>1041.4000244141</ele>
        <time>2021-06-04T11:41:21Z</time>
      </trkpt>
      <trkpt lat="48.01424" lon="6.97898">
        <ele>1038.1999511719</ele>
        <time>2021-06-04T11:41:33Z</time>
      </trkpt>
      <trkpt lat="48.0143" lon="6.97903">
        <ele>1035.1999511719</ele>
        <time>2021-06-04T11:41:43Z</time>
      </trkpt>
      <trkpt lat="48.01442" lon="6.97919">
        <ele>1032</ele>
        <time>2021-06-04T11:41:58Z</time>
      </trkpt>
      <trkpt lat="48.0146" lon="6.97943">
        <ele>1030.8000488281</ele>
        <time>2021-06-04T11:42:19Z</time>
      </trkpt>
      <trkpt lat="48.01468" lon="6.97952">
        <ele>1027.8000488281</ele>
        <time>2021-06-04T11:42:35Z</time>
      </trkpt>
      <trkpt lat="48.01469" lon="6.97953">
        <ele>1027.5999755859</ele>
        <time>2021-06-04T11:42:36Z</time>
      </trkpt>
      <trkpt lat="48.01489" lon="6.97969">
        <ele>1024.1999511719</ele>
        <time>2021-06-04T11:42:50Z</time>
      </trkpt>
      <trkpt lat="48.01507" lon="6.97978">
        <ele>1021</ele>
        <time>2021-06-04T11:43:05Z</time>
      </trkpt>
      <trkpt lat="48.01521" lon="6.97979">
        <ele>1018</ele>
        <time>2021-06-04T11:43:16Z</time>
      </trkpt>
      <trkpt lat="48.01529" lon="6.97977">
        <ele>1015.4000244141</ele>
        <time>2021-06-04T11:43:34Z</time>
      </trkpt>
      <trkpt lat="48.01544" lon="6.97986">
        <ele>1012.200012207</ele>
        <time>2021-06-04T11:43:47Z</time>
      </trkpt>
      <trkpt lat="48.01559" lon="6.97992">
        <ele>1010.5999755859</ele>
        <time>2021-06-04T11:43:59Z</time>
      </trkpt>
      <trkpt lat="48.01572" lon="6.98001">
        <ele>1008</ele>
        <time>2021-06-04T11:44:14Z</time>
      </trkpt>
      <trkpt lat="48.01582" lon="6.98004">
        <ele>1007.4000244141</ele>
        <time>2021-06-04T11:44:18Z</time>
      </trkpt>
      <trkpt lat="48.01601" lon="6.98015">
        <ele>1006.5999755859</ele>
        <time>2021-06-04T11:44:32Z</time>
      </trkpt>
      <trkpt lat="48.01605" lon="6.98016">
        <ele>1007.5999755859</ele>
        <time>2021-06-04T11:44:44Z</time>
      </trkpt>
      <trkpt lat="48.01621" lon="6.98003">
        <ele>1006.200012207</ele>
        <time>2021-06-04T11:45:00Z</time>
      </trkpt>
      <trkpt lat="48.01633" lon="6.97996">
        <ele>1004.5999755859</ele>
        <time>2021-06-04T11:45:13Z</time>
      </trkpt>
      <trkpt lat="48.01641" lon="6.97983">
        <ele>1001.200012207</ele>
        <time>2021-06-04T11:45:27Z</time>
      </trkpt>
      <trkpt lat="48.01643" lon="6.97977">
        <ele>999.59997558594</ele>
        <time>2021-06-04T11:45:32Z</time>
      </trkpt>
      <trkpt lat="48.01645" lon="6.97962">
        <ele>996.20001220703</ele>
        <time>2021-06-04T11:45:43Z</time>
      </trkpt>
      <trkpt lat="48.01646" lon="6.97943">
        <ele>995.59997558594</ele>
        <time>2021-06-04T11:45:51Z</time>
      </trkpt>
      <trkpt lat="48.01646" lon="6.97941">
        <ele>995.59997558594</ele>
        <time>2021-06-04T11:45:52Z</time>
      </trkpt>
      <trkpt lat="48.01648" lon="6.97928">
        <ele>995.20001220703</ele>
        <time>2021-06-04T11:45:59Z</time>
      </trkpt>
      <trkpt lat="48.01643" lon="6.97903">
        <ele>994.20001220703</ele>
        <time>2021-06-04T11:46:17Z</time>
      </trkpt>
      <trkpt lat="48.01649" lon="6.97888">
        <ele>992.79998779297</ele>
        <time>2021-06-04T11:46:37Z</time>
      </trkpt>
      <trkpt lat="48.01648" lon="6.9788">
        <ele>992.40002441406</ele>
        <time>2021-06-04T11:46:41Z</time>
      </trkpt>
      <trkpt lat="48.01643" lon="6.97863">
        <ele>991.59997558594</ele>
        <time>2021-06-04T11:46:56Z</time>
      </trkpt>
      <trkpt lat="48.0164" lon="6.97853">
        <ele>991.40002441406</ele>
        <time>2021-06-04T11:47:16Z</time>
      </trkpt>
      <trkpt lat="48.01633" lon="6.97856">
        <ele>991.59997558594</ele>
        <time>2021-06-04T11:47:42Z</time>
      </trkpt>
      <trkpt lat="48.01633" lon="6.97855">
        <ele>991.20001220703</ele>
        <time>2021-06-04T11:48:05Z</time>
      </trkpt>
      <trkpt lat="48.01634" lon="6.97857">
        <ele>990.79998779297</ele>
        <time>2021-06-04T11:48:38Z</time>
      </trkpt>
      <trkpt lat="48.01632" lon="6.97853">
        <ele>991.20001220703</ele>
        <time>2021-06-04T11:49:10Z</time>
      </trkpt>
      <trkpt lat="48.0163" lon="6.97857">
        <ele>991</ele>
        <time>2021-06-04T11:49:45Z</time>
      </trkpt>
      <trkpt lat="48.01631" lon="6.97855">
        <ele>991</ele>
        <time>2021-06-04T11:50:32Z</time>
      </trkpt>
      <trkpt lat="48.01632" lon="6.97852">
        <ele>991</ele>
        <time>2021-06-04T11:51:04Z</time>
      </trkpt>
      <trkpt lat="48.01627" lon="6.97855">
        <ele>991</ele>
        <time>2021-06-04T11:51:37Z</time>
      </trkpt>
      <trkpt lat="48.01626" lon="6.97855">
        <ele>991</ele>
        <time>2021-06-04T11:52:03Z</time>
      </trkpt>
      <trkpt lat="48.0163" lon="6.97857">
        <ele>991</ele>
        <time>2021-06-04T11:52:27Z</time>
      </trkpt>
      <trkpt lat="48.0163" lon="6.97858">
        <ele>991.40002441406</ele>
        <time>2021-06-04T11:52:51Z</time>
      </trkpt>
      <trkpt lat="48.01633" lon="6.9786">
        <ele>991.40002441406</ele>
        <time>2021-06-04T11:53:18Z</time>
      </trkpt>
      <trkpt lat="48.01635" lon="6.97877">
        <ele>991.40002441406</ele>
        <time>2021-06-04T11:53:36Z</time>
      </trkpt>
      <trkpt lat="48.01633" lon="6.97881">
        <ele>993.79998779297</ele>
        <time>2021-06-04T11:53:41Z</time>
      </trkpt>
      <trkpt lat="48.01641" lon="6.97903">
        <ele>995.20001220703</ele>
        <time>2021-06-04T11:54:01Z</time>
      </trkpt>
      <trkpt lat="48.01641" lon="6.97904">
        <ele>995.20001220703</ele>
        <time>2021-06-04T11:54:02Z</time>
      </trkpt>
      <trkpt lat="48.01649" lon="6.97923">
        <ele>995.59997558594</ele>
        <time>2021-06-04T11:54:16Z</time>
      </trkpt>
      <trkpt lat="48.01643" lon="6.97921">
        <ele>995.79998779297</ele>
        <time>2021-06-04T11:54:35Z</time>
      </trkpt>
      <trkpt lat="48.0165" lon="6.97922">
        <ele>995.20001220703</ele>
        <time>2021-06-04T11:55:02Z</time>
      </trkpt>
      <trkpt lat="48.0167" lon="6.97934">
        <ele>994.79998779297</ele>
        <time>2021-06-04T11:55:13Z</time>
      </trkpt>
      <trkpt lat="48.01686" lon="6.97947">
        <ele>994.20001220703</ele>
        <time>2021-06-04T11:55:22Z</time>
      </trkpt>
      <trkpt lat="48.0169" lon="6.97949">
        <ele>994</ele>
        <time>2021-06-04T11:55:25Z</time>
      </trkpt>
      <trkpt lat="48.01698" lon="6.97949">
        <ele>993.79998779297</ele>
        <time>2021-06-04T11:55:32Z</time>
      </trkpt>
      <trkpt lat="48.01708" lon="6.97954">
        <ele>993.59997558594</ele>
        <time>2021-06-04T11:55:43Z</time>
      </trkpt>
      <trkpt lat="48.01713" lon="6.97955">
        <ele>993.40002441406</ele>
        <time>2021-06-04T11:55:46Z</time>
      </trkpt>
      <trkpt lat="48.01729" lon="6.97956">
        <ele>992.79998779297</ele>
        <time>2021-06-04T11:55:56Z</time>
      </trkpt>
      <trkpt lat="48.01735" lon="6.97956">
        <ele>992.79998779297</ele>
        <time>2021-06-04T11:55:59Z</time>
      </trkpt>
      <trkpt lat="48.01737" lon="6.97955">
        <ele>992.59997558594</ele>
        <time>2021-06-04T11:56:00Z</time>
      </trkpt>
      <trkpt lat="48.01738" lon="6.97955">
        <ele>992.59997558594</ele>
        <time>2021-06-04T11:56:01Z</time>
      </trkpt>
      <trkpt lat="48.01744" lon="6.97951">
        <ele>992.40002441406</ele>
        <time>2021-06-04T11:56:06Z</time>
      </trkpt>
      <trkpt lat="48.01752" lon="6.97947">
        <ele>992.20001220703</ele>
        <time>2021-06-04T11:56:15Z</time>
      </trkpt>
      <trkpt lat="48.01755" lon="6.97945">
        <ele>992.20001220703</ele>
        <time>2021-06-04T11:56:18Z</time>
      </trkpt>
      <trkpt lat="48.01768" lon="6.97927">
        <ele>992</ele>
        <time>2021-06-04T11:56:36Z</time>
      </trkpt>
      <trkpt lat="48.01774" lon="6.97917">
        <ele>991.79998779297</ele>
        <time>2021-06-04T11:56:45Z</time>
      </trkpt>
      <trkpt lat="48.01774" lon="6.97916">
        <ele>991.79998779297</ele>
        <time>2021-06-04T11:56:46Z</time>
      </trkpt>
      <trkpt lat="48.01781" lon="6.97901">
        <ele>991.59997558594</ele>
        <time>2021-06-04T11:56:57Z</time>
      </trkpt>
      <trkpt lat="48.01783" lon="6.97893">
        <ele>991.79998779297</ele>
        <time>2021-06-04T11:57:04Z</time>
      </trkpt>
      <trkpt lat="48.01791" lon="6.97877">
        <ele>991.79998779297</ele>
        <time>2021-06-04T11:57:18Z</time>
      </trkpt>
      <trkpt lat="48.0179" lon="6.97865">
        <ele>992.20001220703</ele>
        <time>2021-06-04T11:57:28Z</time>
      </trkpt>
      <trkpt lat="48.01794" lon="6.97851">
        <ele>992</ele>
        <time>2021-06-04T11:57:40Z</time>
      </trkpt>
      <trkpt lat="48.018" lon="6.9784">
        <ele>991.79998779297</ele>
        <time>2021-06-04T11:57:45Z</time>
      </trkpt>
      <trkpt lat="48.01806" lon="6.97834">
        <ele>992.20001220703</ele>
        <time>2021-06-04T11:58:08Z</time>
      </trkpt>
      <trkpt lat="48.01811" lon="6.97837">
        <ele>993</ele>
        <time>2021-06-04T11:58:25Z</time>
      </trkpt>
      <trkpt lat="48.01817" lon="6.97836">
        <ele>993.20001220703</ele>
        <time>2021-06-04T11:58:38Z</time>
      </trkpt>
      <trkpt lat="48.0182" lon="6.97829">
        <ele>994</ele>
        <time>2021-06-04T11:58:50Z</time>
      </trkpt>
      <trkpt lat="48.01832" lon="6.97837">
        <ele>995</ele>
        <time>2021-06-04T11:59:02Z</time>
      </trkpt>
      <trkpt lat="48.01843" lon="6.97844">
        <ele>995.79998779297</ele>
        <time>2021-06-04T11:59:13Z</time>
      </trkpt>
      <trkpt lat="48.01854" lon="6.97852">
        <ele>997</ele>
        <time>2021-06-04T11:59:25Z</time>
      </trkpt>
      <trkpt lat="48.01856" lon="6.97858">
        <ele>998.59997558594</ele>
        <time>2021-06-04T11:59:37Z</time>
      </trkpt>
      <trkpt lat="48.01862" lon="6.97876">
        <ele>1000.5999755859</ele>
        <time>2021-06-04T11:59:51Z</time>
      </trkpt>
      <trkpt lat="48.01872" lon="6.979">
        <ele>1002.5999755859</ele>
        <time>2021-06-04T12:00:12Z</time>
      </trkpt>
      <trkpt lat="48.0188" lon="6.97912">
        <ele>1003.799987793</ele>
        <time>2021-06-04T12:00:21Z</time>
      </trkpt>
      <trkpt lat="48.01886" lon="6.97929">
        <ele>1005.4000244141</ele>
        <time>2021-06-04T12:00:36Z</time>
      </trkpt>
      <trkpt lat="48.01895" lon="6.9795">
        <ele>1006</ele>
        <time>2021-06-04T12:00:48Z</time>
      </trkpt>
      <trkpt lat="48.01901" lon="6.97949">
        <ele>1008.4000244141</ele>
        <time>2021-06-04T12:01:01Z</time>
      </trkpt>
      <trkpt lat="48.0191" lon="6.97953">
        <ele>1009.799987793</ele>
        <time>2021-06-04T12:01:14Z</time>
      </trkpt>
      <trkpt lat="48.01926" lon="6.97948">
        <ele>1012</ele>
        <time>2021-06-04T12:01:29Z</time>
      </trkpt>
      <trkpt lat="48.0193" lon="6.97946">
        <ele>1014.799987793</ele>
        <time>2021-06-04T12:01:46Z</time>
      </trkpt>
      <trkpt lat="48.01935" lon="6.97951">
        <ele>1017.5999755859</ele>
        <time>2021-06-04T12:02:02Z</time>
      </trkpt>
      <trkpt lat="48.0195" lon="6.97969">
        <ele>1019.799987793</ele>
        <time>2021-06-04T12:02:13Z</time>
      </trkpt>
      <trkpt lat="48.01952" lon="6.97982">
        <ele>1021.799987793</ele>
        <time>2021-06-04T12:02:38Z</time>
      </trkpt>
      <trkpt lat="48.01964" lon="6.98002">
        <ele>1024.1999511719</ele>
        <time>2021-06-04T12:02:54Z</time>
      </trkpt>
      <trkpt lat="48.01971" lon="6.98011">
        <ele>1027.1999511719</ele>
        <time>2021-06-04T12:03:11Z</time>
      </trkpt>
      <trkpt lat="48.01978" lon="6.98028">
        <ele>1029.4000244141</ele>
        <time>2021-06-04T12:03:29Z</time>
      </trkpt>
      <trkpt lat="48.01986" lon="6.98042">
        <ele>1032.4000244141</ele>
        <time>2021-06-04T12:03:44Z</time>
      </trkpt>
      <trkpt lat="48.01993" lon="6.98044">
        <ele>1035.4000244141</ele>
        <time>2021-06-04T12:04:03Z</time>
      </trkpt>
      <trkpt lat="48.01996" lon="6.98026">
        <ele>1037.5999755859</ele>
        <time>2021-06-04T12:04:16Z</time>
      </trkpt>
      <trkpt lat="48.02" lon="6.98016">
        <ele>1038.5999755859</ele>
        <time>2021-06-04T12:04:37Z</time>
      </trkpt>
      <trkpt lat="48.02003" lon="6.98023">
        <ele>1039.5999755859</ele>
        <time>2021-06-04T12:04:54Z</time>
      </trkpt>
      <trkpt lat="48.02002" lon="6.98034">
        <ele>1040.8000488281</ele>
        <time>2021-06-04T12:05:08Z</time>
      </trkpt>
      <trkpt lat="48.02009" lon="6.98059">
        <ele>1041.4000244141</ele>
        <time>2021-06-04T12:05:25Z</time>
      </trkpt>
      <trkpt lat="48.0202" lon="6.98077">
        <ele>1043</ele>
        <time>2021-06-04T12:05:38Z</time>
      </trkpt>
      <trkpt lat="48.02028" lon="6.98088">
        <ele>1044</ele>
        <time>2021-06-04T12:05:46Z</time>
      </trkpt>
      <trkpt lat="48.02034" lon="6.98094">
        <ele>1045.4000244141</ele>
        <time>2021-06-04T12:05:56Z</time>
      </trkpt>
      <trkpt lat="48.0204" lon="6.98096">
        <ele>1047.5999755859</ele>
        <time>2021-06-04T12:06:15Z</time>
      </trkpt>
      <trkpt lat="48.02047" lon="6.98106">
        <ele>1048.5999755859</ele>
        <time>2021-06-04T12:06:22Z</time>
      </trkpt>
      <trkpt lat="48.02057" lon="6.98124">
        <ele>1049.5999755859</ele>
        <time>2021-06-04T12:06:31Z</time>
      </trkpt>
      <trkpt lat="48.02064" lon="6.98135">
        <ele>1050.4000244141</ele>
        <time>2021-06-04T12:06:37Z</time>
      </trkpt>
      <trkpt lat="48.02066" lon="6.98137">
        <ele>1050.8000488281</ele>
        <time>2021-06-04T12:06:40Z</time>
      </trkpt>
      <trkpt lat="48.02069" lon="6.98143">
        <ele>1051.4000244141</ele>
        <time>2021-06-04T12:06:45Z</time>
      </trkpt>
      <trkpt lat="48.02074" lon="6.98156">
        <ele>1053.5999755859</ele>
        <time>2021-06-04T12:07:04Z</time>
      </trkpt>
      <trkpt lat="48.02092" lon="6.98173">
        <ele>1055.1999511719</ele>
        <time>2021-06-04T12:07:17Z</time>
      </trkpt>
      <trkpt lat="48.02104" lon="6.98186">
        <ele>1056.4000244141</ele>
        <time>2021-06-04T12:07:27Z</time>
      </trkpt>
      <trkpt lat="48.02109" lon="6.98195">
        <ele>1057.4000244141</ele>
        <time>2021-06-04T12:07:37Z</time>
      </trkpt>
      <trkpt lat="48.02133" lon="6.98222">
        <ele>1060.5999755859</ele>
        <time>2021-06-04T12:08:00Z</time>
      </trkpt>
      <trkpt lat="48.02144" lon="6.98233">
        <ele>1062</ele>
        <time>2021-06-04T12:08:11Z</time>
      </trkpt>
      <trkpt lat="48.02155" lon="6.98245">
        <ele>1063.4000244141</ele>
        <time>2021-06-04T12:08:22Z</time>
      </trkpt>
      <trkpt lat="48.02164" lon="6.9826">
        <ele>1064.8000488281</ele>
        <time>2021-06-04T12:08:37Z</time>
      </trkpt>
      <trkpt lat="48.0217" lon="6.98272">
        <ele>1067.1999511719</ele>
        <time>2021-06-04T12:08:54Z</time>
      </trkpt>
      <trkpt lat="48.02185" lon="6.98286">
        <ele>1068.8000488281</ele>
        <time>2021-06-04T12:09:05Z</time>
      </trkpt>
      <trkpt lat="48.02191" lon="6.98296">
        <ele>1069.5999755859</ele>
        <time>2021-06-04T12:09:11Z</time>
      </trkpt>
      <trkpt lat="48.022" lon="6.98304">
        <ele>1070.8000488281</ele>
        <time>2021-06-04T12:09:21Z</time>
      </trkpt>
      <trkpt lat="48.02208" lon="6.98309">
        <ele>1071.8000488281</ele>
        <time>2021-06-04T12:09:30Z</time>
      </trkpt>
      <trkpt lat="48.02223" lon="6.98323">
        <ele>1073</ele>
        <time>2021-06-04T12:09:41Z</time>
      </trkpt>
      <trkpt lat="48.02236" lon="6.98335">
        <ele>1075</ele>
        <time>2021-06-04T12:09:56Z</time>
      </trkpt>
      <trkpt lat="48.02255" lon="6.98354">
        <ele>1076.5999755859</ele>
        <time>2021-06-04T12:10:19Z</time>
      </trkpt>
      <trkpt lat="48.02262" lon="6.98361">
        <ele>1076.5999755859</ele>
        <time>2021-06-04T12:10:41Z</time>
      </trkpt>
      <trkpt lat="48.02271" lon="6.98364">
        <ele>1076.5999755859</ele>
        <time>2021-06-04T12:11:17Z</time>
      </trkpt>
      <trkpt lat="48.02268" lon="6.98363">
        <ele>1077.5999755859</ele>
        <time>2021-06-04T12:12:04Z</time>
      </trkpt>
      <trkpt lat="48.02275" lon="6.98375">
        <ele>1079.1999511719</ele>
        <time>2021-06-04T12:12:15Z</time>
      </trkpt>
      <trkpt lat="48.02289" lon="6.98402">
        <ele>1082.1999511719</ele>
        <time>2021-06-04T12:12:46Z</time>
      </trkpt>
      <trkpt lat="48.023" lon="6.98418">
        <ele>1084.1999511719</ele>
        <time>2021-06-04T12:13:02Z</time>
      </trkpt>
      <trkpt lat="48.02314" lon="6.98436">
        <ele>1086.8000488281</ele>
        <time>2021-06-04T12:13:20Z</time>
      </trkpt>
      <trkpt lat="48.02328" lon="6.98447">
        <ele>1089.8000488281</ele>
        <time>2021-06-04T12:13:44Z</time>
      </trkpt>
      <trkpt lat="48.02341" lon="6.9846">
        <ele>1091.1999511719</ele>
        <time>2021-06-04T12:13:54Z</time>
      </trkpt>
      <trkpt lat="48.02355" lon="6.98474">
        <ele>1093</ele>
        <time>2021-06-04T12:14:12Z</time>
      </trkpt>
      <trkpt lat="48.02369" lon="6.98486">
        <ele>1094.8000488281</ele>
        <time>2021-06-04T12:14:27Z</time>
      </trkpt>
      <trkpt lat="48.0238" lon="6.98493">
        <ele>1095.8000488281</ele>
        <time>2021-06-04T12:14:36Z</time>
      </trkpt>
      <trkpt lat="48.02395" lon="6.98504">
        <ele>1097.4000244141</ele>
        <time>2021-06-04T12:14:49Z</time>
      </trkpt>
      <trkpt lat="48.02405" lon="6.98508">
        <ele>1098</ele>
        <time>2021-06-04T12:14:58Z</time>
      </trkpt>
      <trkpt lat="48.02416" lon="6.98508">
        <ele>1098.8000488281</ele>
        <time>2021-06-04T12:15:06Z</time>
      </trkpt>
      <trkpt lat="48.02426" lon="6.98503">
        <ele>1100</ele>
        <time>2021-06-04T12:15:20Z</time>
      </trkpt>
      <trkpt lat="48.02434" lon="6.98489">
        <ele>1100.8000488281</ele>
        <time>2021-06-04T12:15:31Z</time>
      </trkpt>
      <trkpt lat="48.02441" lon="6.9848">
        <ele>1102</ele>
        <time>2021-06-04T12:15:39Z</time>
      </trkpt>
      <trkpt lat="48.02451" lon="6.98455">
        <ele>1102.8000488281</ele>
        <time>2021-06-04T12:15:51Z</time>
      </trkpt>
      <trkpt lat="48.02453" lon="6.98447">
        <ele>1103</ele>
        <time>2021-06-04T12:15:54Z</time>
      </trkpt>
      <trkpt lat="48.02458" lon="6.98434">
        <ele>1103.8000488281</ele>
        <time>2021-06-04T12:16:03Z</time>
      </trkpt>
      <trkpt lat="48.02459" lon="6.98428">
        <ele>1103.8000488281</ele>
        <time>2021-06-04T12:16:07Z</time>
      </trkpt>
      <trkpt lat="48.02467" lon="6.98405">
        <ele>1105</ele>
        <time>2021-06-04T12:16:20Z</time>
      </trkpt>
      <trkpt lat="48.02468" lon="6.98402">
        <ele>1105</ele>
        <time>2021-06-04T12:16:21Z</time>
      </trkpt>
      <trkpt lat="48.02482" lon="6.98385">
        <ele>1106.1999511719</ele>
        <time>2021-06-04T12:16:35Z</time>
      </trkpt>
      <trkpt lat="48.02491" lon="6.98376">
        <ele>1107</ele>
        <time>2021-06-04T12:16:47Z</time>
      </trkpt>
      <trkpt lat="48.02505" lon="6.98385">
        <ele>1107</ele>
        <time>2021-06-04T12:17:01Z</time>
      </trkpt>
      <trkpt lat="48.02526" lon="6.98409">
        <ele>1107.1999511719</ele>
        <time>2021-06-04T12:17:21Z</time>
      </trkpt>
      <trkpt lat="48.0254" lon="6.98424">
        <ele>1107.4000244141</ele>
        <time>2021-06-04T12:17:33Z</time>
      </trkpt>
      <trkpt lat="48.02556" lon="6.98446">
        <ele>1107.4000244141</ele>
        <time>2021-06-04T12:17:46Z</time>
      </trkpt>
      <trkpt lat="48.02568" lon="6.98462">
        <ele>1107.4000244141</ele>
        <time>2021-06-04T12:17:52Z</time>
      </trkpt>
      <trkpt lat="48.02592" lon="6.98489">
        <ele>1108</ele>
        <time>2021-06-04T12:18:12Z</time>
      </trkpt>
      <trkpt lat="48.02594" lon="6.98492">
        <ele>1108.1999511719</ele>
        <time>2021-06-04T12:18:15Z</time>
      </trkpt>
      <trkpt lat="48.02605" lon="6.98502">
        <ele>1108.8000488281</ele>
        <time>2021-06-04T12:18:23Z</time>
      </trkpt>
      <trkpt lat="48.02618" lon="6.98511">
        <ele>1108.8000488281</ele>
        <time>2021-06-04T12:18:31Z</time>
      </trkpt>
      <trkpt lat="48.02621" lon="6.98514">
        <ele>1108.8000488281</ele>
        <time>2021-06-04T12:18:32Z</time>
      </trkpt>
      <trkpt lat="48.02625" lon="6.98518">
        <ele>1109</ele>
        <time>2021-06-04T12:18:34Z</time>
      </trkpt>
      <trkpt lat="48.0263" lon="6.98525">
        <ele>1109.1999511719</ele>
        <time>2021-06-04T12:18:37Z</time>
      </trkpt>
      <trkpt lat="48.02632" lon="6.98527">
        <ele>1109.1999511719</ele>
        <time>2021-06-04T12:18:38Z</time>
      </trkpt>
      <trkpt lat="48.02636" lon="6.98533">
        <ele>1109.1999511719</ele>
        <time>2021-06-04T12:18:40Z</time>
      </trkpt>
      <trkpt lat="48.02642" lon="6.9854">
        <ele>1109.1999511719</ele>
        <time>2021-06-04T12:18:44Z</time>
      </trkpt>
      <trkpt lat="48.02651" lon="6.98555">
        <ele>1109.5999755859</ele>
        <time>2021-06-04T12:18:52Z</time>
      </trkpt>
      <trkpt lat="48.02667" lon="6.98565">
        <ele>1110.5999755859</ele>
        <time>2021-06-04T12:19:12Z</time>
      </trkpt>
      <trkpt lat="48.0268" lon="6.98574">
        <ele>1110.8000488281</ele>
        <time>2021-06-04T12:19:25Z</time>
      </trkpt>
      <trkpt lat="48.02703" lon="6.98585">
        <ele>1111.8000488281</ele>
        <time>2021-06-04T12:19:42Z</time>
      </trkpt>
      <trkpt lat="48.0272" lon="6.98599">
        <ele>1112</ele>
        <time>2021-06-04T12:19:55Z</time>
      </trkpt>
      <trkpt lat="48.02743" lon="6.98617">
        <ele>1112.4000244141</ele>
        <time>2021-06-04T12:20:08Z</time>
      </trkpt>
      <trkpt lat="48.02762" lon="6.98623">
        <ele>1112.4000244141</ele>
        <time>2021-06-04T12:20:19Z</time>
      </trkpt>
      <trkpt lat="48.02795" lon="6.98631">
        <ele>1112.8000488281</ele>
        <time>2021-06-04T12:20:36Z</time>
      </trkpt>
      <trkpt lat="48.02796" lon="6.98631">
        <ele>1112.8000488281</ele>
        <time>2021-06-04T12:20:37Z</time>
      </trkpt>
      <trkpt lat="48.02805" lon="6.9863">
        <ele>1112.8000488281</ele>
        <time>2021-06-04T12:20:45Z</time>
      </trkpt>
      <trkpt lat="48.02813" lon="6.98629">
        <ele>1113.1999511719</ele>
        <time>2021-06-04T12:20:53Z</time>
      </trkpt>
      <trkpt lat="48.02818" lon="6.98621">
        <ele>1113.4000244141</ele>
        <time>2021-06-04T12:21:03Z</time>
      </trkpt>
      <trkpt lat="48.02823" lon="6.98615">
        <ele>1113.8000488281</ele>
        <time>2021-06-04T12:21:07Z</time>
      </trkpt>
      <trkpt lat="48.02837" lon="6.98601">
        <ele>1114.8000488281</ele>
        <time>2021-06-04T12:21:23Z</time>
      </trkpt>
      <trkpt lat="48.02848" lon="6.98597">
        <ele>1114.8000488281</ele>
        <time>2021-06-04T12:21:46Z</time>
      </trkpt>
      <trkpt lat="48.02849" lon="6.98601">
        <ele>1114.8000488281</ele>
        <time>2021-06-04T12:21:48Z</time>
      </trkpt>
      <trkpt lat="48.0285" lon="6.98603">
        <ele>1114.8000488281</ele>
        <time>2021-06-04T12:21:49Z</time>
      </trkpt>
      <trkpt lat="48.0285" lon="6.98605">
        <ele>1114.8000488281</ele>
        <time>2021-06-04T12:21:50Z</time>
      </trkpt>
      <trkpt lat="48.02851" lon="6.98607">
        <ele>1114.5999755859</ele>
        <time>2021-06-04T12:21:51Z</time>
      </trkpt>
      <trkpt lat="48.02851" lon="6.98609">
        <ele>1114.4000244141</ele>
        <time>2021-06-04T12:21:52Z</time>
      </trkpt>
      <trkpt lat="48.02852" lon="6.98611">
        <ele>1114.1999511719</ele>
        <time>2021-06-04T12:21:53Z</time>
      </trkpt>
      <trkpt lat="48.02853" lon="6.98614">
        <ele>1114.1999511719</ele>
        <time>2021-06-04T12:21:54Z</time>
      </trkpt>
      <trkpt lat="48.02854" lon="6.98616">
        <ele>1114</ele>
        <time>2021-06-04T12:21:55Z</time>
      </trkpt>
      <trkpt lat="48.02855" lon="6.98619">
        <ele>1113.8000488281</ele>
        <time>2021-06-04T12:21:56Z</time>
      </trkpt>
      <trkpt lat="48.02856" lon="6.98622">
        <ele>1113.4000244141</ele>
        <time>2021-06-04T12:21:57Z</time>
      </trkpt>
      <trkpt lat="48.02857" lon="6.98625">
        <ele>1113</ele>
        <time>2021-06-04T12:21:58Z</time>
      </trkpt>
      <trkpt lat="48.02859" lon="6.98634">
        <ele>1111.4000244141</ele>
        <time>2021-06-04T12:22:01Z</time>
      </trkpt>
      <trkpt lat="48.02862" lon="6.98641">
        <ele>1110.1999511719</ele>
        <time>2021-06-04T12:22:05Z</time>
      </trkpt>
      <trkpt lat="48.02863" lon="6.98648">
        <ele>1109</ele>
        <time>2021-06-04T12:22:09Z</time>
      </trkpt>
      <trkpt lat="48.02866" lon="6.98652">
        <ele>1108.1999511719</ele>
        <time>2021-06-04T12:22:11Z</time>
      </trkpt>
      <trkpt lat="48.02868" lon="6.98654">
        <ele>1107.8000488281</ele>
        <time>2021-06-04T12:22:12Z</time>
      </trkpt>
      <trkpt lat="48.02886" lon="6.98681">
        <ele>1104.1999511719</ele>
        <time>2021-06-04T12:22:24Z</time>
      </trkpt>
      <trkpt lat="48.02898" lon="6.98714">
        <ele>1100.8000488281</ele>
        <time>2021-06-04T12:22:34Z</time>
      </trkpt>
      <trkpt lat="48.02903" lon="6.98737">
        <ele>1097.4000244141</ele>
        <time>2021-06-04T12:22:42Z</time>
      </trkpt>
      <trkpt lat="48.02913" lon="6.98743">
        <ele>1094.4000244141</ele>
        <time>2021-06-04T12:22:50Z</time>
      </trkpt>
      <trkpt lat="48.02932" lon="6.98738">
        <ele>1091</ele>
        <time>2021-06-04T12:23:01Z</time>
      </trkpt>
      <trkpt lat="48.02948" lon="6.98726">
        <ele>1087.5999755859</ele>
        <time>2021-06-04T12:23:11Z</time>
      </trkpt>
      <trkpt lat="48.02957" lon="6.98712">
        <ele>1084.4000244141</ele>
        <time>2021-06-04T12:23:19Z</time>
      </trkpt>
      <trkpt lat="48.02965" lon="6.987">
        <ele>1081.4000244141</ele>
        <time>2021-06-04T12:23:26Z</time>
      </trkpt>
      <trkpt lat="48.02975" lon="6.98687">
        <ele>1078.1999511719</ele>
        <time>2021-06-04T12:23:33Z</time>
      </trkpt>
      <trkpt lat="48.02985" lon="6.98671">
        <ele>1075.1999511719</ele>
        <time>2021-06-04T12:23:41Z</time>
      </trkpt>
      <trkpt lat="48.03001" lon="6.98649">
        <ele>1074</ele>
        <time>2021-06-04T12:23:56Z</time>
      </trkpt>
      <trkpt lat="48.03021" lon="6.98614">
        <ele>1072.4000244141</ele>
        <time>2021-06-04T12:24:19Z</time>
      </trkpt>
      <trkpt lat="48.03036" lon="6.98601">
        <ele>1070</ele>
        <time>2021-06-04T12:24:33Z</time>
      </trkpt>
      <trkpt lat="48.03054" lon="6.98586">
        <ele>1068.4000244141</ele>
        <time>2021-06-04T12:24:50Z</time>
      </trkpt>
      <trkpt lat="48.03061" lon="6.98594">
        <ele>1067.4000244141</ele>
        <time>2021-06-04T12:24:57Z</time>
      </trkpt>
      <trkpt lat="48.03062" lon="6.98595">
        <ele>1067.4000244141</ele>
        <time>2021-06-04T12:24:58Z</time>
      </trkpt>
      <trkpt lat="48.03072" lon="6.98618">
        <ele>1066.1999511719</ele>
        <time>2021-06-04T12:25:11Z</time>
      </trkpt>
      <trkpt lat="48.03072" lon="6.9862">
        <ele>1066</ele>
        <time>2021-06-04T12:25:12Z</time>
      </trkpt>
      <trkpt lat="48.03072" lon="6.98622">
        <ele>1065.8000488281</ele>
        <time>2021-06-04T12:25:13Z</time>
      </trkpt>
      <trkpt lat="48.03072" lon="6.98624">
        <ele>1065.8000488281</ele>
        <time>2021-06-04T12:25:14Z</time>
      </trkpt>
      <trkpt lat="48.03072" lon="6.98626">
        <ele>1065.8000488281</ele>
        <time>2021-06-04T12:25:15Z</time>
      </trkpt>
      <trkpt lat="48.03073" lon="6.98627">
        <ele>1065.5999755859</ele>
        <time>2021-06-04T12:25:16Z</time>
      </trkpt>
      <trkpt lat="48.03075" lon="6.9866">
        <ele>1065.4000244141</ele>
        <time>2021-06-04T12:25:33Z</time>
      </trkpt>
      <trkpt lat="48.03076" lon="6.98689">
        <ele>1066</ele>
        <time>2021-06-04T12:25:49Z</time>
      </trkpt>
      <trkpt lat="48.03083" lon="6.98691">
        <ele>1066.1999511719</ele>
        <time>2021-06-04T12:25:56Z</time>
      </trkpt>
      <trkpt lat="48.03084" lon="6.9869">
        <ele>1066.1999511719</ele>
        <time>2021-06-04T12:25:57Z</time>
      </trkpt>
      <trkpt lat="48.03085" lon="6.98689">
        <ele>1066.1999511719</ele>
        <time>2021-06-04T12:25:58Z</time>
      </trkpt>
      <trkpt lat="48.03099" lon="6.98671">
        <ele>1067.5999755859</ele>
        <time>2021-06-04T12:26:16Z</time>
      </trkpt>
      <trkpt lat="48.03113" lon="6.98661">
        <ele>1070.8000488281</ele>
        <time>2021-06-04T12:26:33Z</time>
      </trkpt>
      <trkpt lat="48.03131" lon="6.98643">
        <ele>1073</ele>
        <time>2021-06-04T12:26:50Z</time>
      </trkpt>
      <trkpt lat="48.03136" lon="6.98641">
        <ele>1073.1999511719</ele>
        <time>2021-06-04T12:27:07Z</time>
      </trkpt>
      <trkpt lat="48.03142" lon="6.98629">
        <ele>1072.5999755859</ele>
        <time>2021-06-04T12:27:25Z</time>
      </trkpt>
      <trkpt lat="48.03159" lon="6.98599">
        <ele>1070.8000488281</ele>
        <time>2021-06-04T12:27:42Z</time>
      </trkpt>
      <trkpt lat="48.03161" lon="6.98585">
        <ele>1069.5999755859</ele>
        <time>2021-06-04T12:27:49Z</time>
      </trkpt>
      <trkpt lat="48.03162" lon="6.98583">
        <ele>1069.4000244141</ele>
        <time>2021-06-04T12:27:50Z</time>
      </trkpt>
      <trkpt lat="48.03174" lon="6.98559">
        <ele>1066.4000244141</ele>
        <time>2021-06-04T12:28:07Z</time>
      </trkpt>
      <trkpt lat="48.0318" lon="6.98539">
        <ele>1065</ele>
        <time>2021-06-04T12:28:16Z</time>
      </trkpt>
      <trkpt lat="48.03188" lon="6.98517">
        <ele>1063</ele>
        <time>2021-06-04T12:28:29Z</time>
      </trkpt>
      <trkpt lat="48.03188" lon="6.98515">
        <ele>1062.8000488281</ele>
        <time>2021-06-04T12:28:30Z</time>
      </trkpt>
      <trkpt lat="48.03195" lon="6.98496">
        <ele>1061.8000488281</ele>
        <time>2021-06-04T12:28:41Z</time>
      </trkpt>
      <trkpt lat="48.03195" lon="6.98494">
        <ele>1061.8000488281</ele>
        <time>2021-06-04T12:28:42Z</time>
      </trkpt>
      <trkpt lat="48.03196" lon="6.98492">
        <ele>1061.5999755859</ele>
        <time>2021-06-04T12:28:43Z</time>
      </trkpt>
      <trkpt lat="48.03195" lon="6.9849">
        <ele>1061.4000244141</ele>
        <time>2021-06-04T12:28:44Z</time>
      </trkpt>
      <trkpt lat="48.03199" lon="6.98464">
        <ele>1059.8000488281</ele>
        <time>2021-06-04T12:28:58Z</time>
      </trkpt>
      <trkpt lat="48.032" lon="6.98459">
        <ele>1059.5999755859</ele>
        <time>2021-06-04T12:29:01Z</time>
      </trkpt>
      <trkpt lat="48.032" lon="6.98457">
        <ele>1059.5999755859</ele>
        <time>2021-06-04T12:29:02Z</time>
      </trkpt>
      <trkpt lat="48.032" lon="6.98455">
        <ele>1059.5999755859</ele>
        <time>2021-06-04T12:29:03Z</time>
      </trkpt>
      <trkpt lat="48.03203" lon="6.98436">
        <ele>1058.5999755859</ele>
        <time>2021-06-04T12:29:13Z</time>
      </trkpt>
      <trkpt lat="48.03203" lon="6.98435">
        <ele>1058.5999755859</ele>
        <time>2021-06-04T12:29:14Z</time>
      </trkpt>
      <trkpt lat="48.03204" lon="6.98433">
        <ele>1058.4000244141</ele>
        <time>2021-06-04T12:29:15Z</time>
      </trkpt>
      <trkpt lat="48.03213" lon="6.98418">
        <ele>1058.4000244141</ele>
        <time>2021-06-04T12:29:28Z</time>
      </trkpt>
      <trkpt lat="48.03213" lon="6.98416">
        <ele>1058.4000244141</ele>
        <time>2021-06-04T12:29:29Z</time>
      </trkpt>
      <trkpt lat="48.03214" lon="6.98414">
        <ele>1058.5999755859</ele>
        <time>2021-06-04T12:29:30Z</time>
      </trkpt>
      <trkpt lat="48.03215" lon="6.98413">
        <ele>1058.5999755859</ele>
        <time>2021-06-04T12:29:31Z</time>
      </trkpt>
      <trkpt lat="48.03215" lon="6.98411">
        <ele>1058.8000488281</ele>
        <time>2021-06-04T12:29:32Z</time>
      </trkpt>
      <trkpt lat="48.0323" lon="6.98389">
        <ele>1058</ele>
        <time>2021-06-04T12:29:49Z</time>
      </trkpt>
      <trkpt lat="48.03231" lon="6.98387">
        <ele>1058</ele>
        <time>2021-06-04T12:29:50Z</time>
      </trkpt>
      <trkpt lat="48.03246" lon="6.98363">
        <ele>1057.8000488281</ele>
        <time>2021-06-04T12:30:06Z</time>
      </trkpt>
      <trkpt lat="48.03249" lon="6.98359">
        <ele>1057.8000488281</ele>
        <time>2021-06-04T12:30:09Z</time>
      </trkpt>
      <trkpt lat="48.0325" lon="6.98357">
        <ele>1057.5999755859</ele>
        <time>2021-06-04T12:30:10Z</time>
      </trkpt>
      <trkpt lat="48.03272" lon="6.98341">
        <ele>1057.4000244141</ele>
        <time>2021-06-04T12:30:28Z</time>
      </trkpt>
      <trkpt lat="48.03286" lon="6.98308">
        <ele>1057.4000244141</ele>
        <time>2021-06-04T12:30:48Z</time>
      </trkpt>
      <trkpt lat="48.03291" lon="6.98294">
        <ele>1057.4000244141</ele>
        <time>2021-06-04T12:31:02Z</time>
      </trkpt>
      <trkpt lat="48.03293" lon="6.98291">
        <ele>1057.4000244141</ele>
        <time>2021-06-04T12:31:04Z</time>
      </trkpt>
      <trkpt lat="48.03296" lon="6.98278">
        <ele>1057.5999755859</ele>
        <time>2021-06-04T12:31:11Z</time>
      </trkpt>
      <trkpt lat="48.03306" lon="6.98263">
        <ele>1057.4000244141</ele>
        <time>2021-06-04T12:31:26Z</time>
      </trkpt>
      <trkpt lat="48.03319" lon="6.98237">
        <ele>1058</ele>
        <time>2021-06-04T12:31:41Z</time>
      </trkpt>
      <trkpt lat="48.03329" lon="6.98223">
        <ele>1057.4000244141</ele>
        <time>2021-06-04T12:31:53Z</time>
      </trkpt>
      <trkpt lat="48.03336" lon="6.98203">
        <ele>1057.8000488281</ele>
        <time>2021-06-04T12:32:08Z</time>
      </trkpt>
      <trkpt lat="48.03343" lon="6.98171">
        <ele>1057.4000244141</ele>
        <time>2021-06-04T12:32:24Z</time>
      </trkpt>
      <trkpt lat="48.03344" lon="6.98155">
        <ele>1057.1999511719</ele>
        <time>2021-06-04T12:32:34Z</time>
      </trkpt>
      <trkpt lat="48.03353" lon="6.98112">
        <ele>1057.5999755859</ele>
        <time>2021-06-04T12:32:57Z</time>
      </trkpt>
      <trkpt lat="48.03363" lon="6.98083">
        <ele>1057.1999511719</ele>
        <time>2021-06-04T12:33:13Z</time>
      </trkpt>
      <trkpt lat="48.03363" lon="6.98081">
        <ele>1057.1999511719</ele>
        <time>2021-06-04T12:33:14Z</time>
      </trkpt>
      <trkpt lat="48.03364" lon="6.98078">
        <ele>1057.4000244141</ele>
        <time>2021-06-04T12:33:16Z</time>
      </trkpt>
      <trkpt lat="48.03372" lon="6.98055">
        <ele>1057.5999755859</ele>
        <time>2021-06-04T12:33:29Z</time>
      </trkpt>
      <trkpt lat="48.03381" lon="6.9803">
        <ele>1059.1999511719</ele>
        <time>2021-06-04T12:33:43Z</time>
      </trkpt>
      <trkpt lat="48.03389" lon="6.98">
        <ele>1059</ele>
        <time>2021-06-04T12:33:59Z</time>
      </trkpt>
      <trkpt lat="48.03394" lon="6.9798">
        <ele>1059</ele>
        <time>2021-06-04T12:34:10Z</time>
      </trkpt>
      <trkpt lat="48.03394" lon="6.97978">
        <ele>1059</ele>
        <time>2021-06-04T12:34:11Z</time>
      </trkpt>
      <trkpt lat="48.03394" lon="6.97975">
        <ele>1059</ele>
        <time>2021-06-04T12:34:12Z</time>
      </trkpt>
      <trkpt lat="48.03394" lon="6.97973">
        <ele>1059.1999511719</ele>
        <time>2021-06-04T12:34:13Z</time>
      </trkpt>
      <trkpt lat="48.03395" lon="6.97971">
        <ele>1059.1999511719</ele>
        <time>2021-06-04T12:34:14Z</time>
      </trkpt>
      <trkpt lat="48.03395" lon="6.97968">
        <ele>1059.1999511719</ele>
        <time>2021-06-04T12:34:15Z</time>
      </trkpt>
      <trkpt lat="48.03401" lon="6.97937">
        <ele>1059</ele>
        <time>2021-06-04T12:34:31Z</time>
      </trkpt>
      <trkpt lat="48.03404" lon="6.9792">
        <ele>1059.1999511719</ele>
        <time>2021-06-04T12:34:40Z</time>
      </trkpt>
      <trkpt lat="48.03407" lon="6.97906">
        <ele>1059.4000244141</ele>
        <time>2021-06-04T12:34:47Z</time>
      </trkpt>
      <trkpt lat="48.03408" lon="6.97905">
        <ele>1059.4000244141</ele>
        <time>2021-06-04T12:34:48Z</time>
      </trkpt>
      <trkpt lat="48.03408" lon="6.97903">
        <ele>1059.4000244141</ele>
        <time>2021-06-04T12:34:49Z</time>
      </trkpt>
      <trkpt lat="48.03409" lon="6.97901">
        <ele>1059.4000244141</ele>
        <time>2021-06-04T12:34:50Z</time>
      </trkpt>
      <trkpt lat="48.03409" lon="6.979">
        <ele>1059.4000244141</ele>
        <time>2021-06-04T12:34:51Z</time>
      </trkpt>
      <trkpt lat="48.0341" lon="6.97898">
        <ele>1059.4000244141</ele>
        <time>2021-06-04T12:34:52Z</time>
      </trkpt>
      <trkpt lat="48.03424" lon="6.97876">
        <ele>1059.5999755859</ele>
        <time>2021-06-04T12:35:08Z</time>
      </trkpt>
      <trkpt lat="48.03432" lon="6.97848">
        <ele>1058.8000488281</ele>
        <time>2021-06-04T12:35:25Z</time>
      </trkpt>
      <trkpt lat="48.03442" lon="6.97821">
        <ele>1059</ele>
        <time>2021-06-04T12:35:42Z</time>
      </trkpt>
      <trkpt lat="48.03444" lon="6.97817">
        <ele>1059.5999755859</ele>
        <time>2021-06-04T12:35:45Z</time>
      </trkpt>
      <trkpt lat="48.0345" lon="6.97793">
        <ele>1059.8000488281</ele>
        <time>2021-06-04T12:35:59Z</time>
      </trkpt>
      <trkpt lat="48.03453" lon="6.97781">
        <ele>1060</ele>
        <time>2021-06-04T12:36:06Z</time>
      </trkpt>
      <trkpt lat="48.03454" lon="6.97779">
        <ele>1060</ele>
        <time>2021-06-04T12:36:07Z</time>
      </trkpt>
      <trkpt lat="48.03455" lon="6.97778">
        <ele>1060</ele>
        <time>2021-06-04T12:36:08Z</time>
      </trkpt>
      <trkpt lat="48.03456" lon="6.97777">
        <ele>1060</ele>
        <time>2021-06-04T12:36:09Z</time>
      </trkpt>
      <trkpt lat="48.03458" lon="6.97775">
        <ele>1060</ele>
        <time>2021-06-04T12:36:10Z</time>
      </trkpt>
      <trkpt lat="48.03472" lon="6.97748">
        <ele>1060.1999511719</ele>
        <time>2021-06-04T12:36:28Z</time>
      </trkpt>
      <trkpt lat="48.03483" lon="6.97733">
        <ele>1060.4000244141</ele>
        <time>2021-06-04T12:36:43Z</time>
      </trkpt>
      <trkpt lat="48.03481" lon="6.97733">
        <ele>1058.8000488281</ele>
        <time>2021-06-04T12:37:02Z</time>
      </trkpt>
      <trkpt lat="48.03487" lon="6.97718">
        <ele>1055.8000488281</ele>
        <time>2021-06-04T12:37:16Z</time>
      </trkpt>
      <trkpt lat="48.0349" lon="6.97709">
        <ele>1052.5999755859</ele>
        <time>2021-06-04T12:37:26Z</time>
      </trkpt>
      <trkpt lat="48.03483" lon="6.97705">
        <ele>1051</ele>
        <time>2021-06-04T12:37:36Z</time>
      </trkpt>
      <trkpt lat="48.03482" lon="6.97705">
        <ele>1050.8000488281</ele>
        <time>2021-06-04T12:37:37Z</time>
      </trkpt>
      <trkpt lat="48.0348" lon="6.97706">
        <ele>1050.5999755859</ele>
        <time>2021-06-04T12:37:38Z</time>
      </trkpt>
      <trkpt lat="48.03473" lon="6.97709">
        <ele>1049.5999755859</ele>
        <time>2021-06-04T12:37:43Z</time>
      </trkpt>
      <trkpt lat="48.0347" lon="6.97709">
        <ele>1049.4000244141</ele>
        <time>2021-06-04T12:37:45Z</time>
      </trkpt>
      <trkpt lat="48.03469" lon="6.97709">
        <ele>1049.1999511719</ele>
        <time>2021-06-04T12:37:46Z</time>
      </trkpt>
      <trkpt lat="48.03467" lon="6.9771">
        <ele>1049.1999511719</ele>
        <time>2021-06-04T12:37:47Z</time>
      </trkpt>
      <trkpt lat="48.03465" lon="6.9771">
        <ele>1049</ele>
        <time>2021-06-04T12:37:48Z</time>
      </trkpt>
      <trkpt lat="48.03454" lon="6.97718">
        <ele>1046</ele>
        <time>2021-06-04T12:38:01Z</time>
      </trkpt>
      <trkpt lat="48.03451" lon="6.97721">
        <ele>1045.1999511719</ele>
        <time>2021-06-04T12:38:04Z</time>
      </trkpt>
      <trkpt lat="48.03449" lon="6.97722">
        <ele>1045</ele>
        <time>2021-06-04T12:38:05Z</time>
      </trkpt>
      <trkpt lat="48.03444" lon="6.97725">
        <ele>1043.4000244141</ele>
        <time>2021-06-04T12:38:09Z</time>
      </trkpt>
      <trkpt lat="48.0343" lon="6.97728">
        <ele>1040.1999511719</ele>
        <time>2021-06-04T12:38:20Z</time>
      </trkpt>
      <trkpt lat="48.03431" lon="6.97727">
        <ele>1040</ele>
        <time>2021-06-04T12:38:21Z</time>
      </trkpt>
      <trkpt lat="48.03432" lon="6.97726">
        <ele>1040</ele>
        <time>2021-06-04T12:38:22Z</time>
      </trkpt>
      <trkpt lat="48.03433" lon="6.97725">
        <ele>1039.8000488281</ele>
        <time>2021-06-04T12:38:23Z</time>
      </trkpt>
      <trkpt lat="48.03434" lon="6.97725">
        <ele>1039.5999755859</ele>
        <time>2021-06-04T12:38:24Z</time>
      </trkpt>
      <trkpt lat="48.03435" lon="6.97724">
        <ele>1039.4000244141</ele>
        <time>2021-06-04T12:38:25Z</time>
      </trkpt>
      <trkpt lat="48.03437" lon="6.97723">
        <ele>1039.1999511719</ele>
        <time>2021-06-04T12:38:26Z</time>
      </trkpt>
      <trkpt lat="48.03438" lon="6.97721">
        <ele>1039</ele>
        <time>2021-06-04T12:38:27Z</time>
      </trkpt>
      <trkpt lat="48.03439" lon="6.9772">
        <ele>1039</ele>
        <time>2021-06-04T12:38:28Z</time>
      </trkpt>
      <trkpt lat="48.0344" lon="6.97719">
        <ele>1038.8000488281</ele>
        <time>2021-06-04T12:38:29Z</time>
      </trkpt>
      <trkpt lat="48.03441" lon="6.97717">
        <ele>1038.5999755859</ele>
        <time>2021-06-04T12:38:30Z</time>
      </trkpt>
      <trkpt lat="48.03447" lon="6.97708">
        <ele>1037.5999755859</ele>
        <time>2021-06-04T12:38:36Z</time>
      </trkpt>
      <trkpt lat="48.03448" lon="6.97706">
        <ele>1037.5999755859</ele>
        <time>2021-06-04T12:38:37Z</time>
      </trkpt>
      <trkpt lat="48.03449" lon="6.97705">
        <ele>1037.4000244141</ele>
        <time>2021-06-04T12:38:38Z</time>
      </trkpt>
      <trkpt lat="48.0345" lon="6.97704">
        <ele>1037.1999511719</ele>
        <time>2021-06-04T12:38:39Z</time>
      </trkpt>
      <trkpt lat="48.03451" lon="6.97702">
        <ele>1036.8000488281</ele>
        <time>2021-06-04T12:38:40Z</time>
      </trkpt>
      <trkpt lat="48.03451" lon="6.97701">
        <ele>1036.5999755859</ele>
        <time>2021-06-04T12:38:41Z</time>
      </trkpt>
      <trkpt lat="48.03452" lon="6.97699">
        <ele>1036.4000244141</ele>
        <time>2021-06-04T12:38:42Z</time>
      </trkpt>
      <trkpt lat="48.03454" lon="6.97698">
        <ele>1036.1999511719</ele>
        <time>2021-06-04T12:38:43Z</time>
      </trkpt>
      <trkpt lat="48.03454" lon="6.97696">
        <ele>1036</ele>
        <time>2021-06-04T12:38:44Z</time>
      </trkpt>
      <trkpt lat="48.03455" lon="6.97694">
        <ele>1035.8000488281</ele>
        <time>2021-06-04T12:38:45Z</time>
      </trkpt>
      <trkpt lat="48.03456" lon="6.97693">
        <ele>1035.5999755859</ele>
        <time>2021-06-04T12:38:46Z</time>
      </trkpt>
      <trkpt lat="48.03457" lon="6.97691">
        <ele>1035.4000244141</ele>
        <time>2021-06-04T12:38:47Z</time>
      </trkpt>
      <trkpt lat="48.03457" lon="6.9769">
        <ele>1035.1999511719</ele>
        <time>2021-06-04T12:38:48Z</time>
      </trkpt>
      <trkpt lat="48.03458" lon="6.97688">
        <ele>1034.8000488281</ele>
        <time>2021-06-04T12:38:49Z</time>
      </trkpt>
      <trkpt lat="48.03458" lon="6.97687">
        <ele>1034.5999755859</ele>
        <time>2021-06-04T12:38:50Z</time>
      </trkpt>
      <trkpt lat="48.03467" lon="6.97666">
        <ele>1031.4000244141</ele>
        <time>2021-06-04T12:39:00Z</time>
      </trkpt>
      <trkpt lat="48.03484" lon="6.97638">
        <ele>1028.4000244141</ele>
        <time>2021-06-04T12:39:16Z</time>
      </trkpt>
      <trkpt lat="48.03494" lon="6.97624">
        <ele>1025.1999511719</ele>
        <time>2021-06-04T12:39:25Z</time>
      </trkpt>
      <trkpt lat="48.03503" lon="6.97607">
        <ele>1022</ele>
        <time>2021-06-04T12:39:34Z</time>
      </trkpt>
      <trkpt lat="48.03514" lon="6.97589">
        <ele>1018.5999755859</ele>
        <time>2021-06-04T12:39:44Z</time>
      </trkpt>
      <trkpt lat="48.03527" lon="6.97575">
        <ele>1015.5999755859</ele>
        <time>2021-06-04T12:39:53Z</time>
      </trkpt>
      <trkpt lat="48.0354" lon="6.97563">
        <ele>1012.4000244141</ele>
        <time>2021-06-04T12:40:05Z</time>
      </trkpt>
      <trkpt lat="48.0355" lon="6.97563">
        <ele>1010.200012207</ele>
        <time>2021-06-04T12:40:11Z</time>
      </trkpt>
      <trkpt lat="48.03559" lon="6.97567">
        <ele>1009</ele>
        <time>2021-06-04T12:40:16Z</time>
      </trkpt>
      <trkpt lat="48.0356" lon="6.97567">
        <ele>1008.5999755859</ele>
        <time>2021-06-04T12:40:17Z</time>
      </trkpt>
      <trkpt lat="48.03572" lon="6.97557">
        <ele>1005.5999755859</ele>
        <time>2021-06-04T12:40:26Z</time>
      </trkpt>
      <trkpt lat="48.03578" lon="6.97561">
        <ele>1004.799987793</ele>
        <time>2021-06-04T12:40:34Z</time>
      </trkpt>
      <trkpt lat="48.03579" lon="6.97562">
        <ele>1004.5999755859</ele>
        <time>2021-06-04T12:40:35Z</time>
      </trkpt>
      <trkpt lat="48.03581" lon="6.97563">
        <ele>1004.4000244141</ele>
        <time>2021-06-04T12:40:36Z</time>
      </trkpt>
      <trkpt lat="48.03582" lon="6.97563">
        <ele>1004.4000244141</ele>
        <time>2021-06-04T12:40:37Z</time>
      </trkpt>
      <trkpt lat="48.03584" lon="6.97563">
        <ele>1004</ele>
        <time>2021-06-04T12:40:38Z</time>
      </trkpt>
      <trkpt lat="48.03603" lon="6.97569">
        <ele>1001</ele>
        <time>2021-06-04T12:40:52Z</time>
      </trkpt>
      <trkpt lat="48.03612" lon="6.97565">
        <ele>999</ele>
        <time>2021-06-04T12:41:01Z</time>
      </trkpt>
      <trkpt lat="48.03628" lon="6.97564">
        <ele>996.79998779297</ele>
        <time>2021-06-04T12:41:11Z</time>
      </trkpt>
      <trkpt lat="48.03629" lon="6.97564">
        <ele>996.59997558594</ele>
        <time>2021-06-04T12:41:12Z</time>
      </trkpt>
      <trkpt lat="48.03631" lon="6.97565">
        <ele>996.40002441406</ele>
        <time>2021-06-04T12:41:13Z</time>
      </trkpt>
      <trkpt lat="48.03634" lon="6.97564">
        <ele>995.59997558594</ele>
        <time>2021-06-04T12:41:16Z</time>
      </trkpt>
      <trkpt lat="48.03635" lon="6.97564">
        <ele>995.40002441406</ele>
        <time>2021-06-04T12:41:17Z</time>
      </trkpt>
      <trkpt lat="48.03655" lon="6.97569">
        <ele>992.20001220703</ele>
        <time>2021-06-04T12:41:28Z</time>
      </trkpt>
      <trkpt lat="48.03675" lon="6.97574">
        <ele>989.20001220703</ele>
        <time>2021-06-04T12:41:39Z</time>
      </trkpt>
      <trkpt lat="48.03698" lon="6.97581">
        <ele>986.20001220703</ele>
        <time>2021-06-04T12:41:53Z</time>
      </trkpt>
      <trkpt lat="48.03714" lon="6.97581">
        <ele>983</ele>
        <time>2021-06-04T12:42:04Z</time>
      </trkpt>
      <trkpt lat="48.03733" lon="6.97588">
        <ele>980</ele>
        <time>2021-06-04T12:42:17Z</time>
      </trkpt>
      <trkpt lat="48.03755" lon="6.97595">
        <ele>977.40002441406</ele>
        <time>2021-06-04T12:42:34Z</time>
      </trkpt>
      <trkpt lat="48.03782" lon="6.97594">
        <ele>975.20001220703</ele>
        <time>2021-06-04T12:42:55Z</time>
      </trkpt>
      <trkpt lat="48.038" lon="6.97593">
        <ele>972.20001220703</ele>
        <time>2021-06-04T12:43:09Z</time>
      </trkpt>
      <trkpt lat="48.03816" lon="6.976">
        <ele>969.20001220703</ele>
        <time>2021-06-04T12:43:26Z</time>
      </trkpt>
      <trkpt lat="48.0384" lon="6.97607">
        <ele>966</ele>
        <time>2021-06-04T12:43:42Z</time>
      </trkpt>
      <trkpt lat="48.0385" lon="6.97606">
        <ele>964.40002441406</ele>
        <time>2021-06-04T12:43:56Z</time>
      </trkpt>
      <trkpt lat="48.03861" lon="6.97595">
        <ele>962.20001220703</ele>
        <time>2021-06-04T12:44:13Z</time>
      </trkpt>
      <trkpt lat="48.03879" lon="6.97577">
        <ele>960</ele>
        <time>2021-06-04T12:44:32Z</time>
      </trkpt>
      <trkpt lat="48.0389" lon="6.97568">
        <ele>956.79998779297</ele>
        <time>2021-06-04T12:44:44Z</time>
      </trkpt>
      <trkpt lat="48.03904" lon="6.97562">
        <ele>953.79998779297</ele>
        <time>2021-06-04T12:44:58Z</time>
      </trkpt>
      <trkpt lat="48.03914" lon="6.97552">
        <ele>950.79998779297</ele>
        <time>2021-06-04T12:45:09Z</time>
      </trkpt>
      <trkpt lat="48.03921" lon="6.97546">
        <ele>949.20001220703</ele>
        <time>2021-06-04T12:45:15Z</time>
      </trkpt>
      <trkpt lat="48.03934" lon="6.97539">
        <ele>945.59997558594</ele>
        <time>2021-06-04T12:45:25Z</time>
      </trkpt>
      <trkpt lat="48.03946" lon="6.97522">
        <ele>942.40002441406</ele>
        <time>2021-06-04T12:45:38Z</time>
      </trkpt>
      <trkpt lat="48.03956" lon="6.9751">
        <ele>941</ele>
        <time>2021-06-04T12:45:59Z</time>
      </trkpt>
      <trkpt lat="48.03958" lon="6.97505">
        <ele>941</ele>
        <time>2021-06-04T12:46:01Z</time>
      </trkpt>
      <trkpt lat="48.03959" lon="6.97503">
        <ele>940.79998779297</ele>
        <time>2021-06-04T12:46:02Z</time>
      </trkpt>
      <trkpt lat="48.0396" lon="6.97501">
        <ele>940.79998779297</ele>
        <time>2021-06-04T12:46:03Z</time>
      </trkpt>
      <trkpt lat="48.03964" lon="6.9749">
        <ele>939.79998779297</ele>
        <time>2021-06-04T12:46:13Z</time>
      </trkpt>
      <trkpt lat="48.03965" lon="6.97489">
        <ele>939.59997558594</ele>
        <time>2021-06-04T12:46:14Z</time>
      </trkpt>
      <trkpt lat="48.03966" lon="6.97488">
        <ele>939.59997558594</ele>
        <time>2021-06-04T12:46:15Z</time>
      </trkpt>
      <trkpt lat="48.03966" lon="6.97487">
        <ele>939.40002441406</ele>
        <time>2021-06-04T12:46:16Z</time>
      </trkpt>
      <trkpt lat="48.0397" lon="6.97482">
        <ele>939</ele>
        <time>2021-06-04T12:46:21Z</time>
      </trkpt>
      <trkpt lat="48.03972" lon="6.97479">
        <ele>938.79998779297</ele>
        <time>2021-06-04T12:46:23Z</time>
      </trkpt>
      <trkpt lat="48.03988" lon="6.97443">
        <ele>937.20001220703</ele>
        <time>2021-06-04T12:46:43Z</time>
      </trkpt>
      <trkpt lat="48.03991" lon="6.97433">
        <ele>937.40002441406</ele>
        <time>2021-06-04T12:46:56Z</time>
      </trkpt>
      <trkpt lat="48.03991" lon="6.97432">
        <ele>937.40002441406</ele>
        <time>2021-06-04T12:46:57Z</time>
      </trkpt>
      <trkpt lat="48.03993" lon="6.97431">
        <ele>937.40002441406</ele>
        <time>2021-06-04T12:46:58Z</time>
      </trkpt>
      <trkpt lat="48.03994" lon="6.97431">
        <ele>937.40002441406</ele>
        <time>2021-06-04T12:46:59Z</time>
      </trkpt>
      <trkpt lat="48.03995" lon="6.9743">
        <ele>937.59997558594</ele>
        <time>2021-06-04T12:47:00Z</time>
      </trkpt>
      <trkpt lat="48.03996" lon="6.9743">
        <ele>937.59997558594</ele>
        <time>2021-06-04T12:47:01Z</time>
      </trkpt>
      <trkpt lat="48.03997" lon="6.9743">
        <ele>937.59997558594</ele>
        <time>2021-06-04T12:47:02Z</time>
      </trkpt>
      <trkpt lat="48.03998" lon="6.97429">
        <ele>937.59997558594</ele>
        <time>2021-06-04T12:47:03Z</time>
      </trkpt>
      <trkpt lat="48.03999" lon="6.97428">
        <ele>937.59997558594</ele>
        <time>2021-06-04T12:47:04Z</time>
      </trkpt>
      <trkpt lat="48.04" lon="6.97427">
        <ele>937.59997558594</ele>
        <time>2021-06-04T12:47:05Z</time>
      </trkpt>
      <trkpt lat="48.04002" lon="6.97426">
        <ele>937.40002441406</ele>
        <time>2021-06-04T12:47:07Z</time>
      </trkpt>
      <trkpt lat="48.04003" lon="6.97425">
        <ele>937.40002441406</ele>
        <time>2021-06-04T12:47:08Z</time>
      </trkpt>
      <trkpt lat="48.04003" lon="6.97424">
        <ele>937.40002441406</ele>
        <time>2021-06-04T12:47:09Z</time>
      </trkpt>
      <trkpt lat="48.04005" lon="6.97423">
        <ele>937.40002441406</ele>
        <time>2021-06-04T12:47:11Z</time>
      </trkpt>
      <trkpt lat="48.04009" lon="6.97419">
        <ele>936.79998779297</ele>
        <time>2021-06-04T12:47:20Z</time>
      </trkpt>
      <trkpt lat="48.04009" lon="6.97417">
        <ele>936.79998779297</ele>
        <time>2021-06-04T12:47:21Z</time>
      </trkpt>
      <trkpt lat="48.04009" lon="6.97416">
        <ele>936.79998779297</ele>
        <time>2021-06-04T12:47:22Z</time>
      </trkpt>
      <trkpt lat="48.04012" lon="6.97407">
        <ele>936.59997558594</ele>
        <time>2021-06-04T12:47:39Z</time>
      </trkpt>
      <trkpt lat="48.04015" lon="6.97407">
        <ele>936.59997558594</ele>
        <time>2021-06-04T12:47:52Z</time>
      </trkpt>
      <trkpt lat="48.04016" lon="6.97405">
        <ele>936.40002441406</ele>
        <time>2021-06-04T12:47:54Z</time>
      </trkpt>
      <trkpt lat="48.04016" lon="6.97404">
        <ele>936.40002441406</ele>
        <time>2021-06-04T12:47:55Z</time>
      </trkpt>
      <trkpt lat="48.04022" lon="6.97394">
        <ele>935.40002441406</ele>
        <time>2021-06-04T12:48:04Z</time>
      </trkpt>
      <trkpt lat="48.04035" lon="6.97377">
        <ele>933.79998779297</ele>
        <time>2021-06-04T12:48:23Z</time>
      </trkpt>
      <trkpt lat="48.04054" lon="6.9737">
        <ele>930.79998779297</ele>
        <time>2021-06-04T12:48:42Z</time>
      </trkpt>
      <trkpt lat="48.04061" lon="6.9737">
        <ele>930.20001220703</ele>
        <time>2021-06-04T12:48:52Z</time>
      </trkpt>
      <trkpt lat="48.04064" lon="6.9737">
        <ele>930</ele>
        <time>2021-06-04T12:48:54Z</time>
      </trkpt>
      <trkpt lat="48.04066" lon="6.97371">
        <ele>930</ele>
        <time>2021-06-04T12:48:55Z</time>
      </trkpt>
      <trkpt lat="48.04069" lon="6.97369">
        <ele>929.59997558594</ele>
        <time>2021-06-04T12:48:59Z</time>
      </trkpt>
      <trkpt lat="48.04079" lon="6.97373">
        <ele>929.20001220703</ele>
        <time>2021-06-04T12:49:13Z</time>
      </trkpt>
      <trkpt lat="48.04075" lon="6.97374">
        <ele>929.59997558594</ele>
        <time>2021-06-04T12:49:32Z</time>
      </trkpt>
      <trkpt lat="48.04077" lon="6.97384">
        <ele>930.79998779297</ele>
        <time>2021-06-04T12:49:41Z</time>
      </trkpt>
      <trkpt lat="48.04086" lon="6.97386">
        <ele>929.79998779297</ele>
        <time>2021-06-04T12:49:54Z</time>
      </trkpt>
      <trkpt lat="48.04093" lon="6.97381">
        <ele>929.79998779297</ele>
        <time>2021-06-04T12:50:06Z</time>
      </trkpt>
      <trkpt lat="48.04101" lon="6.97367">
        <ele>929.79998779297</ele>
        <time>2021-06-04T12:50:18Z</time>
      </trkpt>
      <trkpt lat="48.04106" lon="6.9735">
        <ele>930</ele>
        <time>2021-06-04T12:50:32Z</time>
      </trkpt>
      <trkpt lat="48.04106" lon="6.97342">
        <ele>930.20001220703</ele>
        <time>2021-06-04T12:50:49Z</time>
      </trkpt>
      <trkpt lat="48.04108" lon="6.97346">
        <ele>930.40002441406</ele>
        <time>2021-06-04T12:51:19Z</time>
      </trkpt>
      <trkpt lat="48.04107" lon="6.97338">
        <ele>931.40002441406</ele>
        <time>2021-06-04T12:51:37Z</time>
      </trkpt>
      <trkpt lat="48.04109" lon="6.97331">
        <ele>931.40002441406</ele>
        <time>2021-06-04T12:51:52Z</time>
      </trkpt>
      <trkpt lat="48.04109" lon="6.9733">
        <ele>931.40002441406</ele>
        <time>2021-06-04T12:51:53Z</time>
      </trkpt>
      <trkpt lat="48.04109" lon="6.97328">
        <ele>931.40002441406</ele>
        <time>2021-06-04T12:51:54Z</time>
      </trkpt>
      <trkpt lat="48.04109" lon="6.97326">
        <ele>931.40002441406</ele>
        <time>2021-06-04T12:51:55Z</time>
      </trkpt>
      <trkpt lat="48.04109" lon="6.97324">
        <ele>931.59997558594</ele>
        <time>2021-06-04T12:51:56Z</time>
      </trkpt>
      <trkpt lat="48.04108" lon="6.97322">
        <ele>931.79998779297</ele>
        <time>2021-06-04T12:51:57Z</time>
      </trkpt>
      <trkpt lat="48.04108" lon="6.97321">
        <ele>931.79998779297</ele>
        <time>2021-06-04T12:51:58Z</time>
      </trkpt>
      <trkpt lat="48.04108" lon="6.97319">
        <ele>932</ele>
        <time>2021-06-04T12:51:59Z</time>
      </trkpt>
      <trkpt lat="48.04111" lon="6.97299">
        <ele>935.20001220703</ele>
        <time>2021-06-04T12:52:14Z</time>
      </trkpt>
      <trkpt lat="48.04112" lon="6.97298">
        <ele>935.59997558594</ele>
        <time>2021-06-04T12:52:15Z</time>
      </trkpt>
      <trkpt lat="48.04115" lon="6.97286">
        <ele>937.79998779297</ele>
        <time>2021-06-04T12:52:30Z</time>
      </trkpt>
      <trkpt lat="48.0412" lon="6.97281">
        <ele>938.40002441406</ele>
        <time>2021-06-04T12:52:46Z</time>
      </trkpt>
      <trkpt lat="48.04121" lon="6.97281">
        <ele>938.59997558594</ele>
        <time>2021-06-04T12:52:47Z</time>
      </trkpt>
      <trkpt lat="48.04122" lon="6.97281">
        <ele>938.59997558594</ele>
        <time>2021-06-04T12:52:48Z</time>
      </trkpt>
      <trkpt lat="48.04143" lon="6.97286">
        <ele>938.79998779297</ele>
        <time>2021-06-04T12:53:05Z</time>
      </trkpt>
      <trkpt lat="48.04172" lon="6.97294">
        <ele>937.59997558594</ele>
        <time>2021-06-04T12:53:25Z</time>
      </trkpt>
      <trkpt lat="48.04182" lon="6.97295">
        <ele>937.20001220703</ele>
        <time>2021-06-04T12:53:33Z</time>
      </trkpt>
      <trkpt lat="48.04183" lon="6.97295">
        <ele>937.20001220703</ele>
        <time>2021-06-04T12:53:34Z</time>
      </trkpt>
      <trkpt lat="48.04192" lon="6.97292">
        <ele>936.79998779297</ele>
        <time>2021-06-04T12:53:40Z</time>
      </trkpt>
      <trkpt lat="48.04193" lon="6.97292">
        <ele>936.79998779297</ele>
        <time>2021-06-04T12:53:41Z</time>
      </trkpt>
      <trkpt lat="48.04198" lon="6.97291">
        <ele>936.59997558594</ele>
        <time>2021-06-04T12:53:46Z</time>
      </trkpt>
      <trkpt lat="48.04226" lon="6.97298">
        <ele>935.59997558594</ele>
        <time>2021-06-04T12:54:03Z</time>
      </trkpt>
      <trkpt lat="48.04247" lon="6.97305">
        <ele>935</ele>
        <time>2021-06-04T12:54:17Z</time>
      </trkpt>
      <trkpt lat="48.04249" lon="6.97305">
        <ele>934.79998779297</ele>
        <time>2021-06-04T12:54:18Z</time>
      </trkpt>
      <trkpt lat="48.04251" lon="6.97306">
        <ele>934.79998779297</ele>
        <time>2021-06-04T12:54:19Z</time>
      </trkpt>
      <trkpt lat="48.04274" lon="6.97315">
        <ele>934.20001220703</ele>
        <time>2021-06-04T12:54:36Z</time>
      </trkpt>
      <trkpt lat="48.04277" lon="6.97317">
        <ele>934</ele>
        <time>2021-06-04T12:54:38Z</time>
      </trkpt>
      <trkpt lat="48.04278" lon="6.97317">
        <ele>934</ele>
        <time>2021-06-04T12:54:39Z</time>
      </trkpt>
      <trkpt lat="48.04279" lon="6.97318">
        <ele>934</ele>
        <time>2021-06-04T12:54:40Z</time>
      </trkpt>
      <trkpt lat="48.0428" lon="6.97319">
        <ele>934</ele>
        <time>2021-06-04T12:54:41Z</time>
      </trkpt>
      <trkpt lat="48.04282" lon="6.97319">
        <ele>934</ele>
        <time>2021-06-04T12:54:42Z</time>
      </trkpt>
      <trkpt lat="48.04284" lon="6.97319">
        <ele>934</ele>
        <time>2021-06-04T12:54:43Z</time>
      </trkpt>
      <trkpt lat="48.04285" lon="6.9732">
        <ele>934</ele>
        <time>2021-06-04T12:54:44Z</time>
      </trkpt>
      <trkpt lat="48.04287" lon="6.9732">
        <ele>934</ele>
        <time>2021-06-04T12:54:45Z</time>
      </trkpt>
      <trkpt lat="48.04288" lon="6.97321">
        <ele>933.79998779297</ele>
        <time>2021-06-04T12:54:46Z</time>
      </trkpt>
      <trkpt lat="48.04289" lon="6.97321">
        <ele>933.79998779297</ele>
        <time>2021-06-04T12:54:47Z</time>
      </trkpt>
      <trkpt lat="48.04291" lon="6.97322">
        <ele>933.79998779297</ele>
        <time>2021-06-04T12:54:48Z</time>
      </trkpt>
      <trkpt lat="48.04293" lon="6.97322">
        <ele>933.79998779297</ele>
        <time>2021-06-04T12:54:49Z</time>
      </trkpt>
      <trkpt lat="48.04294" lon="6.97323">
        <ele>933.79998779297</ele>
        <time>2021-06-04T12:54:50Z</time>
      </trkpt>
      <trkpt lat="48.04295" lon="6.97325">
        <ele>933.79998779297</ele>
        <time>2021-06-04T12:54:51Z</time>
      </trkpt>
      <trkpt lat="48.04297" lon="6.97326">
        <ele>933.59997558594</ele>
        <time>2021-06-04T12:54:52Z</time>
      </trkpt>
      <trkpt lat="48.0432" lon="6.97338">
        <ele>934</ele>
        <time>2021-06-04T12:55:09Z</time>
      </trkpt>
      <trkpt lat="48.04341" lon="6.97345">
        <ele>934.40002441406</ele>
        <time>2021-06-04T12:55:26Z</time>
      </trkpt>
      <trkpt lat="48.04368" lon="6.97358">
        <ele>935.20001220703</ele>
        <time>2021-06-04T12:55:46Z</time>
      </trkpt>
      <trkpt lat="48.04392" lon="6.97355">
        <ele>937</ele>
        <time>2021-06-04T12:56:05Z</time>
      </trkpt>
      <trkpt lat="48.04414" lon="6.97364">
        <ele>937.79998779297</ele>
        <time>2021-06-04T12:56:22Z</time>
      </trkpt>
      <trkpt lat="48.04443" lon="6.97371">
        <ele>938.40002441406</ele>
        <time>2021-06-04T12:56:43Z</time>
      </trkpt>
      <trkpt lat="48.04467" lon="6.97382">
        <ele>940.20001220703</ele>
        <time>2021-06-04T12:57:02Z</time>
      </trkpt>
      <trkpt lat="48.0449" lon="6.97393">
        <ele>940.59997558594</ele>
        <time>2021-06-04T12:57:20Z</time>
      </trkpt>
      <trkpt lat="48.04523" lon="6.974">
        <ele>942.20001220703</ele>
        <time>2021-06-04T12:57:45Z</time>
      </trkpt>
      <trkpt lat="48.0455" lon="6.97406">
        <ele>943.20001220703</ele>
        <time>2021-06-04T12:58:05Z</time>
      </trkpt>
      <trkpt lat="48.04578" lon="6.97408">
        <ele>945.40002441406</ele>
        <time>2021-06-04T12:58:26Z</time>
      </trkpt>
      <trkpt lat="48.046" lon="6.97401">
        <ele>946</ele>
        <time>2021-06-04T12:58:43Z</time>
      </trkpt>
      <trkpt lat="48.04615" lon="6.97391">
        <ele>946.59997558594</ele>
        <time>2021-06-04T12:58:56Z</time>
      </trkpt>
      <trkpt lat="48.04626" lon="6.97378">
        <ele>948.79998779297</ele>
        <time>2021-06-04T12:59:08Z</time>
      </trkpt>
      <trkpt lat="48.04627" lon="6.97377">
        <ele>948.79998779297</ele>
        <time>2021-06-04T12:59:09Z</time>
      </trkpt>
      <trkpt lat="48.04628" lon="6.97377">
        <ele>948.79998779297</ele>
        <time>2021-06-04T12:59:10Z</time>
      </trkpt>
      <trkpt lat="48.04629" lon="6.97376">
        <ele>948.79998779297</ele>
        <time>2021-06-04T12:59:11Z</time>
      </trkpt>
      <trkpt lat="48.0463" lon="6.97376">
        <ele>948.59997558594</ele>
        <time>2021-06-04T12:59:12Z</time>
      </trkpt>
      <trkpt lat="48.04637" lon="6.97373">
        <ele>947.79998779297</ele>
        <time>2021-06-04T12:59:20Z</time>
      </trkpt>
      <trkpt lat="48.04644" lon="6.97372">
        <ele>947.79998779297</ele>
        <time>2021-06-04T12:59:35Z</time>
      </trkpt>
      <trkpt lat="48.04643" lon="6.9737">
        <ele>947.79998779297</ele>
        <time>2021-06-04T13:00:03Z</time>
      </trkpt>
      <trkpt lat="48.04647" lon="6.9737">
        <ele>947.79998779297</ele>
        <time>2021-06-04T13:00:11Z</time>
      </trkpt>
      <trkpt lat="48.0465" lon="6.9737">
        <ele>947.79998779297</ele>
        <time>2021-06-04T13:00:13Z</time>
      </trkpt>
      <trkpt lat="48.04662" lon="6.9737">
        <ele>948</ele>
        <time>2021-06-04T13:00:24Z</time>
      </trkpt>
      <trkpt lat="48.04682" lon="6.97366">
        <ele>948.79998779297</ele>
        <time>2021-06-04T13:00:41Z</time>
      </trkpt>
      <trkpt lat="48.04687" lon="6.97366">
        <ele>949.20001220703</ele>
        <time>2021-06-04T13:00:45Z</time>
      </trkpt>
      <trkpt lat="48.04688" lon="6.97367">
        <ele>949.20001220703</ele>
        <time>2021-06-04T13:00:46Z</time>
      </trkpt>
      <trkpt lat="48.0469" lon="6.97368">
        <ele>949.40002441406</ele>
        <time>2021-06-04T13:00:47Z</time>
      </trkpt>
      <trkpt lat="48.04691" lon="6.97369">
        <ele>949.40002441406</ele>
        <time>2021-06-04T13:00:48Z</time>
      </trkpt>
      <trkpt lat="48.04692" lon="6.9737">
        <ele>949.59997558594</ele>
        <time>2021-06-04T13:00:49Z</time>
      </trkpt>
      <trkpt lat="48.04693" lon="6.97371">
        <ele>949.79998779297</ele>
        <time>2021-06-04T13:00:50Z</time>
      </trkpt>
      <trkpt lat="48.04695" lon="6.97373">
        <ele>950</ele>
        <time>2021-06-04T13:00:51Z</time>
      </trkpt>
      <trkpt lat="48.04709" lon="6.97404">
        <ele>952.40002441406</ele>
        <time>2021-06-04T13:01:10Z</time>
      </trkpt>
      <trkpt lat="48.04717" lon="6.97433">
        <ele>953.20001220703</ele>
        <time>2021-06-04T13:01:27Z</time>
      </trkpt>
      <trkpt lat="48.04726" lon="6.97471">
        <ele>954.79998779297</ele>
        <time>2021-06-04T13:01:47Z</time>
      </trkpt>
      <trkpt lat="48.04734" lon="6.97496">
        <ele>957.79998779297</ele>
        <time>2021-06-04T13:02:04Z</time>
      </trkpt>
      <trkpt lat="48.04735" lon="6.97501">
        <ele>958.59997558594</ele>
        <time>2021-06-04T13:02:08Z</time>
      </trkpt>
      <trkpt lat="48.04735" lon="6.97505">
        <ele>958.79998779297</ele>
        <time>2021-06-04T13:02:11Z</time>
      </trkpt>
      <trkpt lat="48.04733" lon="6.97521">
        <ele>959.59997558594</ele>
        <time>2021-06-04T13:02:25Z</time>
      </trkpt>
      <trkpt lat="48.04732" lon="6.97523">
        <ele>959.59997558594</ele>
        <time>2021-06-04T13:02:26Z</time>
      </trkpt>
      <trkpt lat="48.04732" lon="6.97524">
        <ele>959.59997558594</ele>
        <time>2021-06-04T13:02:27Z</time>
      </trkpt>
      <trkpt lat="48.04723" lon="6.97548">
        <ele>962.59997558594</ele>
        <time>2021-06-04T13:02:44Z</time>
      </trkpt>
      <trkpt lat="48.04722" lon="6.97557">
        <ele>963.59997558594</ele>
        <time>2021-06-04T13:02:51Z</time>
      </trkpt>
      <trkpt lat="48.04723" lon="6.97559">
        <ele>963.79998779297</ele>
        <time>2021-06-04T13:02:52Z</time>
      </trkpt>
      <trkpt lat="48.04725" lon="6.97562">
        <ele>964</ele>
        <time>2021-06-04T13:02:55Z</time>
      </trkpt>
      <trkpt lat="48.04726" lon="6.97562">
        <ele>964</ele>
        <time>2021-06-04T13:02:56Z</time>
      </trkpt>
      <trkpt lat="48.04727" lon="6.97561">
        <ele>964</ele>
        <time>2021-06-04T13:02:57Z</time>
      </trkpt>
      <trkpt lat="48.04728" lon="6.9756">
        <ele>964</ele>
        <time>2021-06-04T13:02:58Z</time>
      </trkpt>
      <trkpt lat="48.04728" lon="6.97557">
        <ele>964.20001220703</ele>
        <time>2021-06-04T13:03:15Z</time>
      </trkpt>
      <trkpt lat="48.04728" lon="6.9756">
        <ele>964</ele>
        <time>2021-06-04T13:03:32Z</time>
      </trkpt>
      <trkpt lat="48.04727" lon="6.97558">
        <ele>963.40002441406</ele>
        <time>2021-06-04T13:03:56Z</time>
      </trkpt>
    </trkseg>
  </trk>
</gpx>